[[{"header":{"parameterUnit":"m.s-1","parameterCategory":1,"la1":31.0,"la2":29.5877,"lo1":-88.7671,"lo2":-86.6584,"dy":0.0162,"dx":0.0185,"nx":115,"ny":88,"refTime":"2023-06-27T18:00:00:Z","depth":0,"parameterNumber":2,"parameterNumberName":"U-component_of_WINDS"},"data":[0.0,0.0,0.0,0.0,0.0,0.0,0.0,0.0,0.0,0.0,0.0,0.0,0.0,0.0,0.0,0.0,0.0,0.0,0.0,0.0,0.0,0.0,0.0,0.0,0.0,0.0,0.0,0.0,0.0,0.0,0.0,0.0,0.0,0.0,0.0,0.0,0.0,0.0,0.0,0.0,0.0,0.0,0.0,0.0,0.0,0.0,0.0,0.0,0.0,0.0,0.0,0.0,0.0,0.0,0.0,0.0,0.0,0.0,0.0,0.0,0.0,0.0,0.0,0.0,0.0,0.0,0.0,0.0,0.0,0.0,0.0,0.0,0.0,0.0,0.0,0.0,0.0,0.0,0.0,0.0,0.0,0.0,0.0,0.0,0.0,0.0,0.0,0.0,0.0,0.0,0.0,0.0,0.0,0.0,0.0,0.0,0.0,0.0,0.0,0.0,0.0,0.0,0.0,0.0,0.0,0.0,0.0,0.0,0.0,0.0,0.0,0.0,0.0,0.0,0.0,0.0,0.0,0.0,0.0,0.0,0.0,0.0,0.0,0.0,0.0,0.0,0.0,0.0,0.0,0.0,0.0,0.0,0.0,0.0,0.0,0.0,0.0,0.0,0.0,0.0,0.0,0.0,0.0,0.0,0.0,0.0,0.0,0.0,0.0,0.0,0.0,0.0,0.0,0.0,0.0,0.0,0.0,0.0,0.0,0.0,0.0,0.0,0.0,0.0,0.0,0.0,0.0,0.0,0.0,0.0,0.0,0.0,0.0,0.0,0.0,0.0,0.0,0.0,0.0,0.0,0.0,0.0,0.0,0.0,0.0,0.0,0.0,0.0,0.0,0.0,0.0,0.0,0.0,0.0,0.0,0.0,0.0,0.0,0.0,0.0,0.0,0.0,0.0,0.0,0.0,0.0,0.0,0.0,0.0,0.0,0.0,0.0,0.0,0.0,0.0,0.0,0.0,0.0,0.0,0.0,0.0,0.0,0.0,0.0,0.0,0.0,0.0,0.0,0.0,0.0,0.0,0.0,0.0,0.0,0.0,0.0,0.0,0.0,0.0,0.0,0.0,0.0,0.0,0.0,0.0,0.0,0.0,0.0,0.0,0.0,0.0,0.0,0.0,0.0,0.0,0.0,0.0,0.0,0.0,0.0,0.0,0.0,0.0,0.0,0.0,0.0,0.0,0.0,0.0,0.0,0.0,0.0,0.0,0.0,0.0,0.0,0.0,0.0,0.0,0.0,0.0,0.0,0.0,0.0,0.0,0.0,0.0,0.0,0.0,0.0,0.0,0.0,0.0,0.0,0.0,0.0,0.0,0.0,0.0,0.0,0.0,0.0,0.0,0.0,0.0,0.0,0.0,0.0,0.0,0.0,0.0,0.0,0.0,0.0,0.0,0.0,0.0,0.0,0.0,0.0,0.0,0.0,0.0,0.0,0.0,0.0,0.0,0.0,0.0,0.0,0.0,0.0,0.0,0.0,0.0,0.0,0.0,0.0,0.0,0.0,0.0,0.0,0.0,0.0,0.0,0.0,0.0,0.0,0.0,0.0,0.0,0.0,0.0,0.0,0.0,0.0,0.0,0.0,0.0,0.0,0.0,0.0,0.0,0.0,0.0,0.0,0.0,0.0,0.0,0.0,0.0,0.0,0.0,0.0,0.0,0.0,0.0,0.0,0.0,0.0,0.0,0.0,0.0,0.0,0.0,0.0,0.0,0.0,0.0,0.0,0.0,0.0,0.0,0.0,0.0,0.0,0.0,0.0,0.0,0.0,0.0,0.0,0.0,0.0,0.0,0.0,0.0,0.0,0.0,0.0,0.0,0.0,0.0,0.0,0.0,0.0,0.0,0.0,0.0,0.0,0.0,0.0,0.0,0.0,0.0,0.0,0.0,0.0,0.0,0.0,0.0,0.0,0.0,0.0,0.0,0.0,0.0,0.0,0.0,0.0,0.0,0.0,0.0,0.0,0.0,0.0,0.0,0.0,0.0,0.0,0.0,0.0,0.0,0.0,0.0,0.0,0.0,0.0,0.0,0.0,0.0,0.0,0.0,0.0,0.0,0.0,0.0,0.0,0.0,0.0,0.0,0.0,0.0,0.0,0.0,0.0,0.0,0.0,0.0,0.0,0.0,0.0,0.0,0.0,0.0,0.0,0.0,0.0,0.0,0.0,0.0,0.0,0.0,0.0,0.0,0.0,0.0,0.0,0.0,0.0,0.0,0.0,0.0,0.0,0.0,0.0,0.0,0.0,0.0,0.0,0.0,0.0,0.0,0.0,0.0,0.0,0.0,0.0,0.0,0.0,0.0,0.0,0.0,0.0,0.0,0.0,0.0,0.0,0.0,0.0,0.0,0.0,0.0,0.0,0.0,0.0,0.0,0.0,0.0,0.0,0.0,0.0,0.0,0.0,0.0,0.0,0.0,0.0,0.0,0.0,0.0,0.0,0.0,0.0,0.0,0.0,0.0,0.0,0.0,0.0,0.0,0.0,0.0,0.0,0.0,0.0,0.0,0.0,0.0,0.0,0.0,0.0,0.0,0.0,0.0,0.0,0.0,0.0,0.0,0.0,0.0,0.0,0.0,0.0,0.0,0.0,0.0,0.0,0.0,0.0,0.0,0.0,0.0,0.0,0.0,0.0,0.0,0.0,0.0,0.0,0.0,0.0,0.0,0.0,0.0,0.0,0.0,0.0,0.0,0.0,0.0,0.0,0.0,0.0,0.0,0.0,0.0,0.0,0.0,0.0,0.0,0.0,0.0,0.0,0.0,0.0,0.0,0.0,0.0,0.0,0.0,0.0,0.0,0.0,0.0,0.0,0.0,0.0,0.0,0.0,0.0,0.0,0.0,0.0,0.0,0.0,0.0,0.0,0.0,0.0,0.0,0.0,0.0,0.0,0.0,0.0,0.0,0.0,0.0,0.0,0.0,0.0,0.0,0.0,0.0,0.0,0.0,0.0,0.0,0.0,0.0,0.0,0.0,0.0,0.0,0.0,0.0,0.0,0.0,0.0,0.0,0.0,0.0,0.0,0.0,0.0,0.0,0.0,0.0,0.0,0.0,0.0,0.0,0.0,0.0,0.0,0.0,0.0,0.0,0.0,0.0,0.0,0.0,0.0,0.0,0.0,0.0,0.0,0.0,0.0,0.0,0.0,0.0,0.0,0.0,0.0,0.0,0.0,0.0,0.0,0.0,0.0,0.0,0.0,0.0,0.0,0.0,0.0,0.0,0.0,0.0,0.0,0.0,0.0,0.0,0.0,0.0,0.0,0.0,0.0,0.0,0.0,0.0,0.0,0.0,0.0,0.0,0.0,0.0,0.0,0.0,0.0,0.0,0.0,0.0,0.0,0.0,0.0,0.0,0.0,0.0,0.0,0.0,0.0,0.0,0.0,0.0,0.0,0.0,0.0,0.0,0.0,0.0,0.0,0.0,0.0,0.0,0.0,0.0,0.0,0.0,0.0,0.0,0.0,0.0,0.0,0.0,0.0,0.0,0.0,0.0,0.0,0.0,0.0,0.0,0.0,0.0,0.0,0.0,0.0,0.0,0.0,0.0,0.0,0.0,0.0,0.0,0.0,0.0,0.0,0.0,0.0,0.0,0.0,0.0,0.0,0.0,0.0,0.0,0.0,0.0,0.0,0.0,0.0,0.0,0.0,0.0,0.0,0.0,0.0,0.0,0.0,0.0,0.0,0.0,0.0,0.0,0.0,0.0,0.0,0.0,0.0,0.0,0.0,0.0,0.0,0.0,0.0,0.0,0.0,0.0,0.0,0.0,0.0,0.0,0.0,0.0,0.0,0.0,0.0,0.0,0.0,0.0,0.0,0.0,0.0,0.0,0.0,0.0,0.0,0.0,0.0,0.0,0.0,0.0,0.0,0.0,0.0,0.0,0.0,0.0,0.0,0.0,0.0,0.0,0.0,0.0,0.0,0.0,0.0,0.0,0.0,0.0,0.0,0.0,0.0,0.0,0.0,0.0,0.0,0.0,0.0,0.0,0.0,0.0,0.0,0.0,0.0,0.0,0.0,0.0,0.0,0.0,0.0,0.0,0.0,0.0,0.0,0.0,0.0,0.0,0.0,0.0,0.0,0.0,0.0,0.0,0.0,0.0,0.0,0.0,0.0,0.0,0.0,0.0,0.0,0.0,0.0,0.0,0.0,0.0,0.0,0.0,0.0,0.0,0.0,0.0,0.0,0.0,0.0,0.0,0.0,0.0,0.0,0.0,0.0,0.0,0.0,0.0,0.0,0.0,0.0,0.0,0.0,0.0,0.0,-1.1073,0.0,0.0,0.0,0.0,0.0,0.0,0.0,0.0,0.0,0.0,0.0,0.0,0.0,0.0,0.0,0.0,0.0,0.0,0.0,0.0,0.0,0.0,0.0,0.0,0.0,0.0,0.0,0.0,0.0,0.0,0.0,0.0,0.0,0.0,0.0,0.0,0.0,0.0,0.0,0.0,0.0,0.0,0.0,0.0,0.0,0.0,0.0,0.0,0.0,0.0,0.0,0.0,0.0,0.0,0.0,0.0,0.0,0.0,0.0,0.0,0.0,0.0,0.0,0.0,0.0,0.0,0.0,0.0,0.0,0.0,0.0,0.0,0.0,0.0,0.0,0.0,0.0,0.0,0.0,0.0,0.0,0.0,0.0,0.0,0.0,0.0,0.0,0.0,0.0,0.0,0.0,0.0,0.0,0.0,0.0,0.0,0.0,0.0,0.0,0.0,0.0,0.0,0.0,0.0,0.0,0.0,0.0,0.0,0.0,0.0,-1.1244,-1.1244,-1.1063,-1.0987,-1.0987,0.0,0.0,0.0,0.0,0.0,0.0,0.0,0.0,0.0,0.0,0.0,0.0,0.0,0.0,0.0,0.0,0.0,0.0,0.0,0.0,0.0,0.0,0.0,0.0,0.0,0.0,0.0,0.0,0.0,0.0,0.0,0.0,0.0,0.0,0.0,0.0,0.0,0.0,0.0,0.0,0.0,0.0,0.0,0.0,0.0,0.0,0.0,0.0,0.0,0.0,0.0,0.0,0.0,0.0,0.0,0.0,0.0,0.0,0.0,0.0,0.0,0.0,0.0,0.0,0.0,0.0,0.0,0.0,0.0,0.0,0.0,0.0,0.0,0.0,0.0,0.0,0.0,0.0,0.0,0.0,0.0,0.0,0.0,0.0,0.0,0.0,0.0,0.0,0.0,0.0,0.0,0.0,0.0,0.0,0.0,0.0,0.0,0.0,0.0,0.0,0.0,0.0,0.0,0.0,0.0,0.0,0.0,0.0,0.0,0.0,0.0,0.0,-1.0949,-1.09,-1.09,0.0,0.0,0.0,0.0,0.0,0.0,0.0,0.0,0.0,0.0,0.0,0.0,0.0,0.0,0.0,0.0,0.0,0.0,0.0,0.0,0.0,0.0,0.0,0.0,0.0,0.0,0.0,0.0,0.0,0.0,0.0,0.0,0.0,0.0,0.0,0.0,0.0,0.0,0.0,0.0,0.0,0.0,0.0,0.0,0.0,0.0,0.0,0.0,0.0,0.0,0.0,0.0,0.0,0.0,0.0,0.0,0.0,0.0,0.0,0.0,0.0,0.0,0.0,0.0,0.0,0.0,0.0,0.0,0.0,0.0,0.0,0.0,0.0,0.0,0.0,0.0,0.0,0.0,0.0,0.0,0.0,0.0,0.0,0.0,0.0,0.0,0.0,0.0,0.0,0.0,0.0,0.0,0.0,0.0,0.0,0.0,0.0,0.0,0.0,0.0,0.0,0.0,0.0,0.0,0.0,0.0,0.0,0.0,0.0,0.0,-1.093,-1.09,-1.09,0.0,-1.09,0.0,0.0,0.0,0.0,0.0,0.0,0.0,0.0,0.0,0.0,0.0,0.0,0.0,0.0,0.0,0.0,0.0,0.0,0.0,0.0,0.0,0.0,0.0,0.0,0.0,0.0,0.0,0.0,0.0,0.0,0.0,0.0,0.0,0.0,0.0,0.0,0.0,0.0,0.0,0.0,0.0,0.0,0.0,0.0,0.0,0.0,0.0,0.0,0.0,0.0,0.0,0.0,0.0,0.0,0.0,0.0,0.0,0.0,0.0,0.0,0.0,0.0,0.0,0.0,0.0,0.0,0.0,0.0,0.0,0.0,0.0,0.0,0.0,0.0,0.0,0.0,0.0,0.0,0.0,0.0,0.0,0.0,0.0,0.0,0.0,0.0,0.0,0.0,0.0,0.0,0.0,0.0,0.0,0.0,0.0,0.0,0.0,0.0,0.0,0.0,0.0,0.0,0.0,0.0,0.0,0.0,0.0,0.0,0.0,0.0,-1.09,-1.09,-1.09,-1.09,0.0,0.0,0.0,0.0,0.0,0.0,0.0,0.0,0.0,0.0,0.0,0.0,0.0,0.0,0.0,0.0,0.0,0.0,0.0,0.0,0.0,0.0,0.0,0.0,0.0,0.0,0.0,0.0,0.0,0.0,0.0,0.0,0.0,0.0,0.0,0.0,0.0,0.0,0.0,0.0,0.0,0.0,0.0,0.0,0.0,0.0,0.0,0.0,0.0,0.0,0.0,0.0,0.0,0.0,0.0,0.0,0.0,0.0,0.0,0.0,0.0,0.0,0.0,0.0,0.0,0.0,0.0,0.0,0.0,0.0,0.0,0.0,0.0,0.0,0.0,0.0,0.0,0.0,0.0,0.0,0.0,0.0,0.0,0.0,0.0,0.0,0.0,0.0,0.0,0.0,0.0,0.0,0.0,0.0,0.0,0.0,0.0,0.0,0.0,0.0,0.0,0.0,0.0,0.0,0.0,0.0,0.0,0.0,0.0,0.0,-1.09,-1.09,-1.09,-1.09,-1.09,-1.09,0.0,0.0,0.0,0.0,0.0,0.0,0.0,0.0,0.0,0.0,0.0,0.0,0.0,0.0,0.0,0.0,0.0,0.0,0.0,0.0,0.0,0.0,0.0,0.0,0.0,0.0,0.0,0.0,0.0,0.0,0.0,0.0,0.0,0.0,0.0,0.0,0.0,0.0,0.0,0.0,0.0,0.0,0.0,0.0,0.0,0.0,0.0,0.0,0.0,0.0,0.0,0.0,0.0,0.0,0.0,0.0,0.0,0.0,0.0,0.0,0.0,0.0,0.0,0.0,0.0,0.0,0.0,0.0,0.0,0.0,0.0,0.0,0.0,0.0,0.0,0.0,0.0,0.0,0.0,0.0,0.0,0.0,0.0,0.0,0.0,0.0,0.0,0.0,0.0,0.0,0.0,0.0,0.0,0.0,0.0,0.0,0.0,0.0,0.0,0.0,0.0,0.0,0.0,0.0,0.0,0.0,0.0,0.0,-1.09,-1.09,-1.09,-1.09,-1.09,-1.09,0.0,0.0,0.0,0.0,0.0,0.0,0.0,0.0,0.0,0.0,0.0,0.0,0.0,0.0,0.0,0.0,0.0,0.0,0.0,0.0,0.0,0.0,0.0,0.0,0.0,0.0,0.0,0.0,0.0,0.0,0.0,0.0,0.0,0.0,0.0,0.0,0.0,0.0,0.0,0.0,0.0,0.0,0.0,0.0,0.0,0.0,0.0,0.0,0.0,0.0,0.0,0.0,0.0,0.0,0.0,0.0,0.0,0.0,0.0,0.0,0.0,0.0,0.0,0.0,0.0,0.0,0.0,0.0,0.0,0.0,0.0,0.0,0.0,0.0,0.0,0.0,0.0,0.0,0.0,0.0,0.0,0.0,0.0,0.0,0.0,0.0,0.0,0.0,0.0,0.0,0.0,0.0,0.0,0.0,0.0,0.0,0.0,0.0,0.0,0.0,0.0,0.0,0.0,0.0,0.0,0.0,0.0,0.0,0.0,-1.0833,-1.0871,-1.09,-1.09,-1.09,-1.09,0.0,0.0,0.0,0.0,0.0,0.0,0.0,0.0,0.0,0.0,0.0,0.0,0.0,0.0,0.0,0.0,0.0,0.0,0.0,0.0,0.0,0.0,0.0,0.0,0.0,0.0,0.0,0.0,0.0,0.0,0.0,0.0,0.0,0.0,0.0,0.0,0.0,0.0,0.0,0.0,0.0,0.0,0.0,0.0,0.0,0.0,0.0,0.0,0.0,0.0,0.0,0.0,0.0,0.0,0.0,0.0,0.0,0.0,0.0,0.0,0.0,0.0,0.0,0.0,0.0,0.0,0.0,0.0,0.0,0.0,0.0,0.0,0.0,0.0,0.0,0.0,0.0,0.0,0.0,0.0,0.0,0.0,0.0,0.0,0.0,0.0,0.0,0.0,0.0,0.0,0.0,0.0,0.0,0.0,0.0,0.0,0.0,0.0,0.0,0.0,0.0,0.0,0.0,0.0,0.0,0.0,0.0,0.0,0.0,-1.0822,0.0,-1.09,-1.09,-1.09,-1.09,0.0,0.0,0.0,0.0,0.0,0.0,0.0,0.0,0.0,0.0,0.0,0.0,0.0,0.0,0.0,0.0,0.0,0.0,0.0,0.0,0.0,0.0,0.0,0.0,0.0,0.0,0.0,0.0,0.0,0.0,0.0,0.0,0.0,0.0,0.0,0.0,0.0,0.0,0.0,0.0,0.0,0.0,0.0,0.0,0.0,0.0,0.0,0.0,0.0,0.0,0.0,0.0,0.0,0.0,0.0,0.0,0.0,0.0,0.0,0.0,0.0,0.0,0.0,0.0,0.0,0.0,0.0,0.0,0.0,0.0,0.0,0.0,0.0,0.0,0.0,0.0,0.0,0.0,0.0,0.0,0.0,0.0,0.0,0.0,0.0,0.0,0.0,0.0,0.0,0.0,0.0,0.0,0.0,0.0,0.0,0.0,0.0,0.0,0.0,0.0,0.0,0.0,0.0,0.0,0.0,0.0,0.0,0.0,-1.0688,-1.0881,-1.09,-1.09,-1.09,-1.09,-1.09,0.0,0.0,0.0,0.0,0.0,0.0,0.0,0.0,0.0,0.0,0.0,0.0,0.0,0.0,0.0,0.0,0.0,0.0,0.0,0.0,0.0,0.0,0.0,0.0,0.0,0.0,0.0,0.0,0.0,0.0,0.0,0.0,0.0,0.0,0.0,0.0,0.0,0.0,0.0,0.0,0.0,0.0,0.0,0.0,0.0,0.0,0.0,0.0,0.0,0.0,0.0,0.0,0.0,0.0,0.0,0.0,0.0,0.0,0.0,0.0,0.0,0.0,0.0,0.0,0.0,0.0,0.0,0.0,0.0,0.0,0.0,0.0,0.0,0.0,0.0,0.0,0.0,0.0,0.0,0.0,0.0,0.0,0.0,0.0,0.0,0.0,0.0,0.0,0.0,0.0,0.0,0.0,0.0,0.0,0.0,0.0,0.0,0.0,0.0,0.0,0.0,0.0,0.0,0.0,0.0,0.0,0.0,0.0,0.0,-1.0843,-1.0871,-1.09,-1.09,-1.09,-1.09,0.0,0.0,0.0,0.0,0.0,0.0,0.0,0.0,0.0,0.0,0.0,0.0,0.0,0.0,0.0,0.0,0.0,0.0,0.0,0.0,0.0,0.0,0.0,0.0,0.0,0.0,0.0,0.0,0.0,0.0,0.0,0.0,0.0,0.0,0.0,0.0,0.0,0.0,0.0,0.0,0.0,0.0,0.0,0.0,0.0,0.0,0.0,0.0,0.0,0.0,0.0,0.0,0.0,0.0,0.0,0.0,0.0,0.0,0.0,0.0,0.0,0.0,0.0,0.0,0.0,0.0,0.0,0.0,0.0,0.0,0.0,0.0,0.0,0.0,0.0,0.0,0.0,0.0,0.0,0.0,0.0,0.0,0.0,0.0,0.0,0.0,0.0,0.0,0.0,0.0,0.0,0.0,0.0,0.0,0.0,0.0,0.0,0.0,0.0,0.0,0.0,0.0,0.0,0.0,0.0,0.0,0.0,0.0,0.0,-1.1357,-1.1532,-1.1644,-1.1654,-1.1489,-1.1344,-1.1168,0.0,0.0,0.0,0.0,0.0,0.0,0.0,0.0,0.0,0.0,0.0,0.0,0.0,0.0,0.0,0.0,0.0,0.0,0.0,0.0,0.0,0.0,0.0,0.0,0.0,0.0,0.0,0.0,0.0,0.0,0.0,0.0,0.0,0.0,0.0,0.0,0.0,0.0,0.0,0.0,0.0,0.0,0.0,0.0,0.0,0.0,0.0,0.0,0.0,0.0,0.0,0.0,0.0,0.0,0.0,0.0,0.0,0.0,0.0,0.0,0.0,0.0,0.0,0.0,0.0,0.0,0.0,0.0,0.0,0.0,0.0,0.0,0.0,0.0,0.0,0.0,0.0,0.0,0.0,0.0,0.0,0.0,0.0,0.0,0.0,0.0,0.0,0.0,0.0,0.0,0.0,0.0,0.0,0.0,0.0,0.0,0.0,0.0,0.0,0.0,0.0,0.0,0.0,0.0,0.0,0.0,0.0,0.0,-1.2341,-1.2768,-1.2978,-1.2915,-1.2535,-1.2141,0.0,0.0,0.0,0.0,0.0,0.0,0.0,0.0,0.0,0.0,0.0,0.0,0.0,0.0,0.0,0.0,0.0,0.0,0.0,0.0,0.0,0.0,0.0,0.0,0.0,0.0,0.0,0.0,0.0,0.0,0.0,0.0,0.0,0.0,0.0,0.0,0.0,0.0,0.0,0.0,0.0,0.0,0.0,0.0,0.0,0.0,0.0,0.0,0.0,0.0,0.0,0.0,0.0,0.0,0.0,0.0,0.0,0.0,0.0,0.0,0.0,0.0,0.0,0.0,0.0,0.0,0.0,0.0,0.0,0.0,0.0,0.0,0.0,0.0,0.0,0.0,0.0,0.0,0.0,0.0,0.0,0.0,0.0,0.0,0.0,0.0,0.0,0.0,0.0,0.0,0.0,0.0,0.0,0.0,0.0,0.0,0.0,0.0,0.0,0.0,0.0,0.0,0.0,0.0,0.0,0.0,0.0,0.0,0.0,-1.3858,-1.4173,-1.4015,-1.3436,-1.2989,-1.2677,0.0,0.0,0.0,0.0,0.0,0.0,0.0,0.0,0.0,0.0,0.0,0.0,0.0,0.0,0.0,0.0,0.0,0.0,0.0,0.0,0.0,0.0,0.0,0.0,0.0,0.0,0.0,0.0,0.0,0.0,0.0,0.0,0.0,0.0,0.0,0.0,0.0,0.0,0.0,0.0,0.0,0.0,0.0,0.0,0.0,0.0,0.0,0.0,0.0,0.0,0.0,0.0,0.0,0.0,0.0,0.0,0.0,0.0,0.0,0.0,0.0,0.0,0.0,0.0,0.0,0.0,0.0,0.0,0.0,0.0,0.0,0.0,0.0,0.0,0.0,0.0,0.0,0.0,0.0,0.0,0.0,0.0,0.0,0.0,0.0,0.0,0.0,0.0,0.0,0.0,0.0,0.0,0.0,0.0,0.0,0.0,0.0,0.0,0.0,0.0,0.0,0.0,0.0,0.0,0.0,0.0,0.0,0.0,-1.3286,-1.3939,-1.471,-1.4877,-1.4408,-1.3633,-1.326,0.0,0.0,0.0,0.0,0.0,0.0,0.0,0.0,0.0,0.0,0.0,0.0,0.0,0.0,0.0,0.0,0.0,0.0,0.0,0.0,0.0,0.0,0.0,0.0,0.0,0.0,0.0,0.0,0.0,0.0,0.0,0.0,0.0,0.0,0.0,0.0,0.0,0.0,0.0,0.0,0.0,0.0,0.0,0.0,0.0,0.0,0.0,0.0,0.0,0.0,0.0,0.0,0.0,0.0,0.0,0.0,0.0,0.0,0.0,0.0,0.0,0.0,0.0,0.0,0.0,0.0,0.0,0.0,0.0,0.0,0.0,0.0,0.0,0.0,0.0,0.0,0.0,0.0,0.0,0.0,0.0,0.0,0.0,0.0,0.0,0.0,0.0,0.0,0.0,0.0,0.0,0.0,0.0,0.0,0.0,0.0,0.0,0.0,0.0,0.0,0.0,0.0,0.0,0.0,0.0,0.0,0.0,0.0,-1.3524,-1.336,-1.4738,-1.5544,-1.5596,-1.4417,-1.3828,0.0,0.0,0.0,0.0,0.0,0.0,0.0,0.0,0.0,0.0,0.0,0.0,0.0,0.0,0.0,0.0,0.0,0.0,0.0,0.0,0.0,0.0,0.0,0.0,0.0,0.0,0.0,0.0,0.0,0.0,0.0,0.0,0.0,0.0,0.0,0.0,0.0,0.0,0.0,0.0,0.0,0.0,0.0,0.0,0.0,0.0,0.0,0.0,0.0,0.0,0.0,0.0,0.0,0.0,0.0,0.0,0.0,0.0,0.0,0.0,0.0,0.0,0.0,0.0,0.0,0.0,0.0,0.0,0.0,0.0,0.0,0.0,0.0,0.0,0.0,0.0,0.0,0.0,0.0,0.0,0.0,0.0,0.0,0.0,0.0,0.0,0.0,0.0,0.0,0.0,0.0,0.0,0.0,0.0,0.0,0.0,0.0,0.0,0.0,0.0,0.0,0.0,0.0,0.0,0.0,0.0,0.0,0.0,-1.3796,-1.4215,-1.5052,-1.5791,-1.634,-1.5016,-1.423,0.0,0.0,0.0,0.0,0.0,0.0,0.0,0.0,0.0,0.0,0.0,0.0,0.0,0.0,0.0,0.0,0.0,0.0,0.0,0.0,0.0,0.0,0.0,0.0,0.0,0.0,0.0,0.0,0.0,0.0,0.0,0.0,0.0,0.0,0.0,0.0,0.0,0.0,0.0,0.0,0.0,0.0,0.0,0.0,0.0,0.0,0.0,0.0,-0.855,0.0,0.0,0.0,0.0,0.0,0.0,0.0,0.0,0.0,0.0,0.0,0.0,0.0,0.0,0.0,0.0,0.0,0.0,0.0,0.0,0.0,0.0,0.0,0.0,0.0,0.0,0.0,0.0,0.0,0.0,0.0,0.0,0.0,0.0,0.0,0.0,0.0,0.0,0.0,0.0,0.0,0.0,0.0,0.0,0.0,0.0,0.0,0.0,0.0,0.0,0.0,0.0,0.0,0.0,0.0,0.0,0.0,0.0,0.0,-1.3255,-1.3793,-1.4485,-1.5196,-1.5869,-1.4789,-1.4273,0.0,0.0,0.0,0.0,0.0,0.0,0.0,0.0,0.0,0.0,0.0,0.0,0.0,0.0,0.0,0.0,0.0,0.0,0.0,0.0,0.0,0.0,0.0,0.0,0.0,0.0,0.0,0.0,0.0,0.0,0.0,0.0,0.0,0.0,0.0,0.0,0.0,0.0,0.0,0.0,0.0,0.0,0.0,0.0,0.0,0.0,0.0,0.0,0.0,0.0,0.0,0.0,0.0,0.0,0.0,0.0,0.0,0.0,0.0,0.0,0.0,0.0,0.0,0.0,0.0,0.0,0.0,0.0,0.0,0.0,0.0,0.0,0.0,0.0,0.0,0.0,0.0,0.0,0.0,0.0,0.0,0.0,0.0,0.0,0.0,0.0,0.0,0.0,0.0,0.0,0.0,0.0,0.0,0.0,0.0,0.0,0.0,0.0,0.0,0.0,0.0,0.0,0.0,0.0,0.0,0.0,0.0,-1.2094,-1.2709,-1.3135,-1.3873,-1.4517,-1.501,-1.4279,-1.4052,-1.4437,0.0,0.0,0.0,0.0,0.0,0.0,0.0,0.0,0.0,0.0,0.0,0.0,0.0,0.0,0.0,0.0,0.0,0.0,0.0,0.0,0.0,0.0,0.0,0.0,0.0,0.0,0.0,0.0,0.0,0.0,0.0,0.0,0.0,0.0,0.0,0.0,0.0,0.0,-0.8208,-0.8519,0.0,0.0,0.0,0.0,0.0,0.0,0.0,0.0,-0.8935,0.0,0.0,0.0,0.0,0.0,0.0,0.0,0.0,0.0,0.0,0.0,0.0,0.0,0.0,0.0,0.0,0.0,0.0,0.0,0.0,0.0,0.0,0.0,0.0,0.0,0.0,0.0,0.0,0.0,0.0,0.0,0.0,0.0,0.0,0.0,0.0,0.0,0.0,0.0,0.0,0.0,0.0,0.0,0.0,0.0,0.0,0.0,0.0,0.0,0.0,0.0,0.0,0.0,0.0,0.0,0.0,-1.1691,-1.286,-1.3523,-1.3667,-1.4577,-1.4768,-1.4302,-1.3983,-1.3718,-1.3554,0.0,0.0,0.0,0.0,0.0,0.0,0.0,0.0,0.0,0.0,0.0,0.0,0.0,0.0,0.0,0.0,0.0,0.0,0.0,0.0,0.0,0.0,0.0,0.0,0.0,0.0,0.0,0.0,0.0,0.0,0.0,0.0,0.0,0.0,0.0,0.0,0.0,0.0,0.0,-0.9233,-0.9376,0.0,0.0,0.0,0.0,0.0,0.0,0.0,0.0,-0.9662,0.0,0.0,0.0,0.0,0.0,0.0,0.0,0.0,0.0,0.0,0.0,0.0,0.0,0.0,0.0,0.0,0.0,0.0,0.0,0.0,0.0,0.0,0.0,0.0,0.0,0.0,0.0,0.0,0.0,0.0,0.0,0.0,0.0,0.0,0.0,0.0,0.0,0.0,0.0,0.0,0.0,0.0,0.0,0.0,0.0,0.0,0.0,0.0,0.0,0.0,0.0,0.0,0.0,0.0,0.0,-1.1694,-1.2611,-1.3252,-1.3644,-1.4181,-1.4489,-1.4502,-1.3805,-1.3466,0.0,0.0,0.0,0.0,0.0,0.0,0.0,0.0,0.0,0.0,0.0,0.0,0.0,0.0,0.0,0.0,0.0,0.0,0.0,0.0,0.0,0.0,0.0,0.0,0.0,0.0,0.0,0.0,0.0,0.0,0.0,0.0,0.0,0.0,0.0,0.0,0.0,0.0,0.0,0.0,-0.9923,-1.0232,-1.0543,0.0,0.0,0.0,0.0,0.0,0.0,-1.0408,-1.0249,0.0,0.0,0.0,0.0,0.0,0.0,0.0,0.0,0.0,0.0,0.0,0.0,0.0,0.0,0.0,0.0,0.0,0.0,0.0,0.0,0.0,0.0,0.0,0.0,0.0,0.0,0.0,0.0,0.0,0.0,0.0,0.0,0.0,0.0,0.0,0.0,0.0,0.0,0.0,0.0,0.0,0.0,0.0,0.0,0.0,0.0,0.0,0.0,0.0,0.0,0.0,0.0,0.0,0.0,0.0,-1.1591,-1.2288,-1.2976,-1.3535,-1.3754,-1.4137,-1.4653,-1.3595,-1.3171,0.0,0.0,0.0,0.0,0.0,0.0,0.0,0.0,0.0,0.0,0.0,0.0,0.0,0.0,0.0,0.0,0.0,0.0,0.0,0.0,0.0,0.0,0.0,0.0,0.0,0.0,0.0,0.0,0.0,0.0,0.0,0.0,0.0,0.0,0.0,0.0,0.0,0.0,0.0,0.0,0.0,-1.1032,-1.1352,-1.1027,0.0,0.0,0.0,0.0,-1.0887,-1.0995,0.0,0.0,0.0,0.0,0.0,0.0,0.0,0.0,0.0,0.0,0.0,0.0,0.0,0.0,0.0,0.0,0.0,0.0,0.0,0.0,0.0,0.0,0.0,0.0,0.0,0.0,0.0,0.0,0.0,0.0,0.0,0.0,0.0,0.0,0.0,0.0,0.0,0.0,0.0,0.0,0.0,0.0,0.0,0.0,0.0,0.0,0.0,0.0,0.0,0.0,0.0,0.0,0.0,0.0,0.0,0.0,-1.1645,-1.2658,-1.3381,-1.3775,-1.3964,-1.4021,-1.3928,-1.3201,-1.2702,0.0,0.0,0.0,0.0,0.0,0.0,0.0,0.0,0.0,0.0,0.0,0.0,0.0,0.0,0.0,0.0,0.0,0.0,0.0,0.0,0.0,0.0,0.0,0.0,0.0,0.0,0.0,0.0,0.0,0.0,0.0,0.0,0.0,0.0,0.0,0.0,0.0,0.0,0.0,0.0,0.0,-1.1368,-1.1704,-1.1433,-1.1248,0.0,0.0,-1.1943,-1.2065,-1.2513,0.0,0.0,0.0,0.0,0.0,0.0,0.0,0.0,0.0,0.0,0.0,0.0,0.0,0.0,0.0,0.0,0.0,0.0,0.0,0.0,0.0,0.0,0.0,0.0,0.0,0.0,0.0,0.0,0.0,0.0,0.0,0.0,0.0,0.0,0.0,0.0,0.0,0.0,0.0,0.0,0.0,0.0,0.0,0.0,0.0,0.0,0.0,0.0,0.0,0.0,0.0,0.0,0.0,0.0,0.0,-1.154,-1.1853,-1.2858,-1.3497,-1.3637,-1.3819,-1.3899,-1.379,-1.3062,-1.2589,0.0,0.0,0.0,0.0,0.0,0.0,0.0,0.0,0.0,0.0,0.0,0.0,0.0,0.0,0.0,0.0,0.0,0.0,0.0,0.0,0.0,0.0,0.0,0.0,0.0,0.0,0.0,0.0,0.0,0.0,0.0,0.0,0.0,0.0,0.0,0.0,0.0,0.0,0.0,0.0,0.0,0.0,-1.1943,-1.1996,0.0,0.0,0.0,-1.2342,-1.2212,0.0,0.0,0.0,0.0,0.0,0.0,0.0,0.0,0.0,0.0,0.0,0.0,0.0,0.0,0.0,0.0,0.0,0.0,0.0,0.0,0.0,0.0,0.0,0.0,0.0,0.0,0.0,0.0,0.0,0.0,0.0,0.0,0.0,0.0,0.0,0.0,0.0,0.0,0.0,0.0,0.0,0.0,0.0,0.0,0.0,0.0,0.0,0.0,0.0,0.0,0.0,0.0,0.0,0.0,0.0,0.0,0.0,-1.2018,-1.2994,-1.3492,-1.3492,-1.3681,-1.3754,-1.3702,-1.3078,0.0,0.0,0.0,0.0,0.0,0.0,0.0,0.0,0.0,0.0,0.0,0.0,0.0,0.0,0.0,0.0,0.0,0.0,0.0,0.0,0.0,0.0,0.0,0.0,0.0,0.0,0.0,-0.9233,0.0,0.0,0.0,0.0,0.0,0.0,0.0,0.0,0.0,0.0,0.0,0.0,0.0,0.0,-1.2158,-1.2274,-1.2504,-1.2769,0.0,0.0,-1.2411,-1.2277,-1.2966,-1.3035,0.0,0.0,0.0,0.0,0.0,0.0,0.0,0.0,0.0,0.0,0.0,0.0,0.0,0.0,0.0,0.0,0.0,0.0,0.0,0.0,0.0,0.0,0.0,0.0,0.0,0.0,0.0,0.0,0.0,0.0,0.0,0.0,0.0,0.0,0.0,0.0,0.0,0.0,0.0,0.0,0.0,0.0,0.0,0.0,0.0,0.0,0.0,0.0,0.0,0.0,0.0,0.0,0.0,0.0,-1.1753,-1.2025,-1.3001,-1.3492,-1.3528,-1.3717,-1.3717,-1.3521,-1.3159,-1.2683,0.0,0.0,0.0,0.0,0.0,0.0,0.0,0.0,0.0,0.0,0.0,0.0,0.0,0.0,0.0,0.0,0.0,0.0,0.0,0.0,0.0,0.0,0.0,0.0,0.0,0.0,0.0,0.0,0.0,0.0,0.0,0.0,0.0,0.0,0.0,0.0,0.0,0.0,0.0,0.0,0.0,-1.2274,-1.2789,-1.2851,-1.3049,0.0,-1.2687,-1.2189,-1.261,-1.3287,-1.3182,-1.1443,0.0,0.0,0.0,0.0,0.0,0.0,0.0,0.0,0.0,0.0,0.0,0.0,0.0,0.0,0.0,0.0,0.0,0.0,0.0,0.0,0.0,0.0,0.0,0.0,0.0,0.0,0.0,0.0,0.0,0.0,0.0,0.0,0.0,0.0,0.0,0.0,0.0,0.0,0.0,0.0,0.0,0.0,0.0,0.0,0.0,0.0,0.0,0.0,0.0,0.0,0.0,0.0,0.0,-1.1816,-1.2295,-1.3104,-1.366,-1.3948,-1.3741,-1.3733,-1.4,-1.3482,-1.2911,0.0,0.0,0.0,0.0,0.0,0.0,0.0,0.0,0.0,0.0,0.0,0.0,0.0,0.0,0.0,0.0,0.0,0.0,0.0,0.0,0.0,0.0,0.0,0.0,0.0,0.0,0.0,0.0,-1.1144,-1.1107,-1.0806,0.0,0.0,0.0,0.0,0.0,0.0,0.0,0.0,0.0,0.0,-1.2445,-1.3093,-1.3384,0.0,0.0,-1.3494,-1.3106,-1.2962,-1.337,-1.3107,-1.1496,-1.1218,0.0,0.0,0.0,0.0,0.0,0.0,0.0,0.0,0.0,0.0,0.0,0.0,0.0,0.0,0.0,0.0,0.0,0.0,0.0,0.0,0.0,0.0,0.0,0.0,0.0,0.0,0.0,0.0,0.0,0.0,0.0,0.0,0.0,0.0,0.0,0.0,0.0,0.0,0.0,0.0,0.0,0.0,0.0,0.0,0.0,0.0,0.0,0.0,0.0,0.0,0.0,0.0,-1.2028,-1.2631,-1.3404,-1.3969,-1.4327,-1.4007,-1.3999,-1.4426,-1.3933,-1.3473,0.0,0.0,0.0,0.0,0.0,0.0,0.0,0.0,0.0,0.0,0.0,0.0,0.0,0.0,0.0,0.0,0.0,0.0,0.0,0.0,0.0,0.0,0.0,0.0,0.0,0.0,0.0,0.0,-1.1239,-1.1085,-1.0499,0.0,0.0,0.0,0.0,0.0,0.0,0.0,0.0,0.0,0.0,-1.2812,-1.3355,-1.3637,-1.3787,-1.3916,-1.3504,-1.304,-1.2817,-1.292,-1.2615,-1.1434,0.0,0.0,0.0,0.0,0.0,0.0,0.0,0.0,0.0,0.0,0.0,0.0,0.0,0.0,0.0,0.0,0.0,0.0,0.0,0.0,0.0,0.0,0.0,0.0,0.0,0.0,0.0,-1.075,0.0,0.0,-1.006,0.0,0.0,0.0,0.0,0.0,0.0,0.0,0.0,0.0,0.0,0.0,0.0,0.0,0.0,0.0,0.0,0.0,0.0,0.0,0.0,0.0,0.0,-1.231,-1.2994,-1.3931,-1.4474,-1.4496,-1.4489,-1.4545,-1.4778,-1.4591,-1.4383,-1.4246,0.0,0.0,0.0,0.0,0.0,0.0,0.0,0.0,0.0,0.0,0.0,0.0,0.0,0.0,0.0,0.0,0.0,0.0,0.0,0.0,0.0,0.0,0.0,0.0,0.0,0.0,-1.0192,-1.0426,-1.0485,0.0,0.0,0.0,0.0,0.0,0.0,0.0,0.0,0.0,-1.1538,-1.2624,-1.3427,-1.3551,-1.3483,-1.348,-1.3632,-1.2427,-1.1629,-1.2039,-1.1907,-1.1584,0.0,0.0,0.0,0.0,0.0,0.0,0.0,0.0,0.0,0.0,0.0,0.0,0.0,0.0,0.0,0.0,0.0,0.0,0.0,0.0,0.0,0.0,0.0,0.0,0.0,0.0,0.0,-1.1211,-1.1518,0.0,0.0,0.0,0.0,0.0,0.0,0.0,0.0,0.0,0.0,0.0,-1.3155,-1.2961,0.0,0.0,0.0,0.0,0.0,0.0,0.0,0.0,0.0,0.0,0.0,0.0,-1.2611,-1.3214,-1.405,-1.4724,-1.5202,-1.4739,-1.4678,-1.5115,-1.4732,-1.4466,-1.4298,0.0,0.0,0.0,0.0,0.0,0.0,0.0,0.0,0.0,0.0,0.0,0.0,0.0,0.0,0.0,0.0,0.0,0.0,0.0,0.0,0.0,0.0,0.0,0.0,0.0,-1.0455,0.0,0.0,0.0,0.0,0.0,0.0,0.0,0.0,0.0,0.0,0.0,-1.1741,-1.2375,-1.2704,-1.3036,-1.3521,-1.3559,-1.3692,0.0,0.0,0.0,0.0,0.0,0.0,0.0,0.0,0.0,0.0,0.0,0.0,0.0,0.0,-1.0755,-1.0248,-1.042,-1.0602,-1.0516,0.0,0.0,0.0,0.0,0.0,0.0,0.0,0.0,0.0,0.0,0.0,0.0,0.0,0.0,-1.2378,-1.2577,-1.243,0.0,0.0,0.0,0.0,0.0,0.0,0.0,0.0,-1.3579,-1.3939,-1.4163,-1.3954,-1.3873,-1.3925,-1.3638,-1.2944,0.0,0.0,0.0,0.0,0.0,0.0,0.0,0.0,-1.2952,-1.3384,-1.4399,-1.513,-1.5567,-1.5105,-1.5065,-1.5534,-1.5145,-1.4798,-1.4504,-1.4072,-1.3601,0.0,0.0,0.0,0.0,0.0,0.0,0.0,0.0,0.0,0.0,0.0,0.0,0.0,0.0,0.0,0.0,0.0,0.0,0.0,0.0,0.0,0.0,0.0,-1.0594,0.0,0.0,0.0,0.0,0.0,0.0,0.0,0.0,0.0,-1.0895,-1.1584,-1.229,-1.2812,-1.3138,-1.3314,-1.3402,0.0,0.0,0.0,0.0,0.0,0.0,0.0,-1.2406,-1.2352,-1.2523,-1.2693,-1.2885,-1.2719,-1.2608,-1.2632,0.0,0.0,-1.1522,-1.1582,-1.1758,-1.1786,-1.1743,-1.1679,-1.1542,-1.0972,-1.0477,0.0,0.0,0.0,0.0,-1.2305,0.0,0.0,0.0,-1.3959,-1.3897,0.0,-1.3544,0.0,0.0,0.0,0.0,-1.2562,-1.322,0.0,0.0,-1.4933,-1.5248,-1.4933,-1.468,-1.4643,-1.4793,-1.3984,-1.3828,-1.4191,-1.3798,0.0,0.0,0.0,0.0,0.0,0.0,-1.3413,-1.3623,-1.4989,-1.5692,-1.5726,-1.5492,-1.5631,-1.6038,-1.5858,-1.5453,-1.4962,-1.4702,-1.4449,-1.4268,-1.2893,0.0,0.0,0.0,0.0,0.0,0.0,0.0,0.0,0.0,0.0,0.0,0.0,0.0,0.0,0.0,0.0,0.0,0.0,0.0,0.0,-1.0836,0.0,0.0,0.0,0.0,0.0,0.0,0.0,0.0,0.0,-1.1316,-1.1038,-1.1935,-1.2674,-1.289,0.0,0.0,0.0,0.0,-1.3598,-1.2846,-1.2232,-1.1946,-1.1985,-1.2387,-1.2846,-1.3363,0.0,0.0,-1.4449,-1.3751,-1.332,-1.3666,-1.3767,-1.3549,-1.2594,-1.2295,-1.227,-1.2548,-1.2492,-1.2361,-1.2319,-1.2026,-1.1758,-1.4735,0.0,0.0,0.0,0.0,-1.3037,-1.3697,-1.4733,-1.4697,-1.4801,-1.4945,-1.4682,0.0,0.0,0.0,0.0,0.0,0.0,-1.4456,-1.4796,-1.5165,-1.5472,-1.5737,-1.5476,-1.5505,-1.5708,-1.5486,-1.5435,-1.5555,-1.5435,-1.4524,-1.2959,0.0,0.0,0.0,0.0,-1.4372,-1.4698,-1.5516,-1.6004,-1.6004,-1.5922,-1.5963,-1.6087,-1.5824,-1.5696,-1.5745,-1.5368,-1.501,-1.4673,-1.4118,0.0,0.0,0.0,0.0,0.0,0.0,0.0,0.0,0.0,0.0,0.0,0.0,0.0,0.0,0.0,0.0,0.0,0.0,0.0,-1.11,-1.1406,-1.1319,0.0,0.0,0.0,0.0,0.0,0.0,0.0,0.0,0.0,-1.2243,-1.2531,-1.2913,0.0,0.0,-1.3521,-1.3449,-1.3789,-1.4153,-1.4403,-1.409,0.0,-1.4518,-1.4202,-1.4065,-1.4585,-1.5057,-1.5312,-1.5169,-1.498,-1.4813,-1.4668,-1.4612,-1.453,-1.4432,-1.4283,-1.4208,-1.4134,-1.3857,-1.3556,-1.3367,-1.2603,-1.1916,-1.6895,-1.5888,-1.4783,-1.447,-1.4686,-1.4621,-1.5168,-1.6134,-1.6095,-1.6142,-1.6141,-1.6096,-1.5698,-1.5087,-1.4547,0.0,0.0,0.0,-1.5353,-1.5759,-1.5748,-1.6027,-1.6469,-1.6264,-1.6314,-1.6653,-1.6389,-1.6369,-1.6578,-1.6183,-1.5464,-1.4348,0.0,-1.3808,-1.3684,-1.4513,-1.4988,-1.5134,-1.5817,-1.6203,-1.6245,-1.6245,-1.6087,-1.5839,-1.5748,-1.5782,-1.5914,-1.559,-1.5371,-1.5332,-1.4793,-1.4094,0.0,0.0,0.0,0.0,0.0,0.0,0.0,0.0,0.0,0.0,0.0,-1.0784,-1.0689,0.0,0.0,0.0,-1.1648,-1.187,-1.1845,-1.193,0.0,0.0,0.0,0.0,0.0,0.0,0.0,-1.1319,-1.2226,-1.2941,-1.3115,-1.3252,-1.3483,-1.3894,-1.3991,-1.3989,-1.3902,0.0,-1.4792,-1.4951,-1.474,-1.4748,-1.5189,-1.5075,-1.5109,-1.5683,-1.596,-1.6055,-1.596,-1.5925,-1.5859,-1.5705,-1.5516,-1.5449,-1.5637,-1.5591,-1.5437,-1.5183,-1.4943,-1.4663,-1.4389,-1.3703,-1.3093,-1.8907,-1.8686,-1.6826,-1.6357,-1.6848,-1.6864,-1.7254,-1.7886,-1.7862,-1.7687,-1.739,-1.7443,-1.7138,-1.6495,-1.6114,0.0,-1.6036,-1.6,-1.6313,-1.6823,-1.6595,-1.672,-1.7115,-1.6955,-1.7094,-1.7517,-1.6954,-1.6935,-1.7286,-1.6462,-1.6045,-1.599,-1.5497,-1.4958,-1.4363,-1.504,-1.5327,-1.5164,-1.5995,-1.637,-1.6435,-1.6394,-1.6105,-1.5514,-1.5624,-1.5733,-1.5692,-1.5548,-1.5639,-1.5982,-1.514,-1.4665,-1.4717,0.0,0.0,0.0,0.0,0.0,0.0,0.0,0.0,0.0,0.0,0.0,0.0,0.0,0.0,0.0,-1.2877,0.0,-1.3089,-1.2507,0.0,0.0,0.0,-1.1973,-1.2499,-1.2914,-1.3104,-1.3053,0.0,0.0,-1.3748,-1.3996,-1.4242,-1.4539,-1.5057,-1.5162,-1.4509,-1.5164,-1.5483,-1.489,-1.4779,-1.4795,-1.4993,-1.5419,-1.5952,-1.6491,-1.6689,-1.6657,-1.6568,-1.6453,-1.6435,-1.6478,-1.6319,-1.6113,-1.6312,-1.6165,-1.6038,-1.5786,-1.5662,-1.5477,-1.5081,-1.4859,-1.4601,-1.9614,-1.9574,-1.912,-1.8661,-1.8282,-1.8282,-1.8377,-1.8549,-1.8287,-1.8128,-1.8049,-1.7456,-1.6988,-1.6669,-1.6929,-1.7019,-1.7052,-1.706,-1.7134,-1.7306,-1.727,-1.7306,-1.7394,-1.7358,-1.7481,-1.7727,-1.7605,-1.7565,-1.7687,-1.7442,-1.7228,-1.6949,-1.682,-1.6211,-1.5149,-1.5449,-1.5669,-1.5707,-1.6054,-1.6379,-1.6599,-1.6476,-1.6319,-1.6196,-1.6079,-1.5906,-1.5692,-1.588,-1.5839,-1.559,-1.5475,-1.5171,-1.4589,-1.366,0.0,0.0,0.0,0.0,0.0,0.0,0.0,0.0,0.0,-1.1342,-1.1875,0.0,-1.246,0.0,-1.3411,-1.3755,-1.3748,-1.3645,0.0,0.0,-1.3126,-1.3097,-1.325,-1.377,-1.3968,-1.344,-1.3887,-1.4276,-1.4276,-1.4346,-1.4599,-1.5106,-1.5211,-1.5265,-1.5328,-1.5754,-1.6031,-1.588,-1.5984,-1.6198,-1.6158,-1.6317,-1.6483,-1.6665,-1.6689,-1.6615,-1.6286,-1.6203,-1.6121,-1.5989,-1.5865,-1.5914,-1.6121,-1.6128,-1.6128,-1.6154,-1.5699,-1.5166,-1.4866,-1.4699,-1.4398,-2.0337,-2.0329,-2.0337,-2.0114,-1.9733,-1.9423,-1.9288,-1.9264,-1.9082,-1.8994,-1.897,-1.8408,-1.7979,-1.7735,-1.7832,-1.7799,-1.7709,-1.7709,-1.7807,-1.795,-1.7852,-1.7852,-1.8076,-1.7995,-1.8032,-1.824,-1.8081,-1.8009,-1.7993,-1.7894,-1.7676,-1.7544,-1.7544,-1.7093,-1.6267,-1.6039,-1.5858,-1.5677,-1.6016,-1.6341,-1.655,-1.6525,-1.6324,-1.5932,-1.598,-1.5789,-1.5348,-1.5501,-1.5468,-1.5153,-1.5227,-1.5023,-1.4511,-1.3711,-1.2972,0.0,0.0,0.0,0.0,0.0,0.0,0.0,0.0,0.0,0.0,0.0,-1.3243,-1.3426,-1.3909,-1.4143,-1.4027,-1.4027,-1.4005,-1.3931,-1.3968,-1.404,-1.4318,-1.4677,-1.4757,-1.4399,-1.467,-1.4896,-1.4896,-1.4977,-1.5216,-1.567,-1.5719,-1.5779,-1.5881,-1.6205,-1.6404,-1.646,-1.6562,-1.6689,-1.6689,-1.6689,-1.6689,-1.6689,-1.6689,-1.6615,-1.6409,-1.6286,-1.6162,-1.6023,-1.5865,-1.5733,-1.5873,-1.5839,-1.588,-1.5989,-1.5692,-1.5325,-1.5159,-1.5068,-1.4768,-2.0925,-2.0925,-2.0925,-2.0925,-2.0869,-2.0265,-2.0044,-2.0044,-1.9996,-1.9908,-1.9844,-1.9566,-1.9288,-1.9011,-1.8738,-1.8489,-1.8194,-1.8248,-1.8319,-1.8527,-1.828,-1.8411,-1.8781,-1.8612,-1.8612,-1.8765,-1.851,-1.8367,-1.8351,-1.8057,-1.7926,-1.7878,-1.7834,-1.7695,-1.7262,-1.6659,-1.6079,-1.5514,-1.6024,-1.6292,-1.6427,-1.6568,-1.6199,-1.5431,-1.5665,-1.5496,-1.4893,-1.4987,-1.4987,-1.4793,-1.4723,-1.4682,-1.454,-1.3645,-1.3023,0.0,-1.1897,0.0,0.0,0.0,0.0,0.0,0.0,0.0,0.0,-1.3895,-1.41,-1.4099,-1.4401,-1.4428,-1.4232,-1.4165,-1.4275,-1.4599,-1.4589,-1.4816,-1.5309,-1.5389,-1.5389,-1.5389,-1.5431,-1.5431,-1.5443,-1.5616,-1.5865,-1.6038,-1.6239,-1.6267,-1.6188,-1.646,-1.6665,-1.6689,-1.6689,-1.6689,-1.6689,-1.6689,-1.6689,-1.6648,-1.6648,-1.6648,-1.6517,-1.6394,-1.6312,-1.6278,-1.5989,-1.5733,-1.5775,-1.5673,-1.5597,-1.5782,-1.5775,-1.5741,-1.5741,-1.5733,-1.5575,-2.0925,-2.0925,-2.0925,-2.0925,-2.0909,-2.0774,-2.0726,-2.0702,-2.0416,-2.0039,-1.9576,-1.9748,-1.953,-1.9092,-1.9225,-1.9135,-1.8823,-1.8823,-1.8816,-1.8735,-1.8689,-1.8735,-1.8781,-1.8789,-1.8735,-1.8819,-1.8764,-1.8724,-1.8678,-1.8661,-1.8478,-1.82,-1.82,-1.7794,-1.7082,0.0,0.0,0.0,-1.642,-1.6626,-1.6632,-1.6258,-1.5973,-1.5783,-1.5599,0.0,-1.4987,-1.5196,-1.5118,-1.473,-1.4762,0.0,0.0,0.0,0.0,0.0,0.0,0.0,0.0,0.0,0.0,0.0,-1.3594,-1.3762,-1.3924,-1.4194,-1.4487,-1.4735,-1.4776,-1.4893,-1.5097,-1.5119,-1.5133,-1.5199,-1.524,-1.5299,-1.5382,-1.5389,-1.5389,-1.5431,-1.5541,-1.5658,-1.5658,-1.5873,-1.6053,-1.6151,-1.6278,-1.6402,-1.6376,-1.6582,-1.6689,-1.6689,-1.6689,-1.6689,-1.6689,-1.6689,-1.6648,-1.6517,-1.6435,-1.6312,-1.6023,-1.5899,-1.5948,-1.6087,-1.5906,-1.5816,-1.6139,-1.6072,-1.5963,-1.6004,-1.6004,-1.6004,-1.5997,-1.6154,-1.6064,-2.1441,-2.1417,-2.125,-2.1127,0.0,-2.0996,-2.0925,-2.0909,-2.0734,-2.0501,-2.0177,-2.0152,-1.9974,-1.9735,-1.9703,-1.9627,-1.9462,-1.9462,-1.9407,-1.9328,-1.9177,-1.9098,-1.909,-1.8915,-1.8781,-1.8781,-1.8781,-1.8781,-1.8781,-1.8781,-1.8732,-1.8565,-1.8557,-1.8345,-1.7908,-1.7822,-1.735,-1.6436,-1.6602,-1.6689,-1.6681,-1.6442,-1.6147,-1.5935,-1.585,0.0,0.0,0.0,0.0,0.0,0.0,0.0,0.0,-1.4253,0.0,-1.4247,-1.377,-1.3638,-1.3945,-1.3975,-1.4114,-1.4428,-1.4604,-1.4633,-1.4472,-1.4757,-1.5006,-1.5119,-1.5141,-1.5214,-1.5367,-1.5389,-1.5389,-1.5389,-1.5389,-1.5389,-1.5389,-1.5389,-1.5389,-1.5431,-1.5506,-1.5575,-1.5692,-1.5981,-1.6282,-1.6465,-1.6764,-1.6985,-1.7038,-1.6854,-1.6689,-1.6689,-1.6689,-1.6689,-1.6689,-1.6689,-1.6656,-1.6566,-1.6476,-1.6312,-1.6105,-1.5858,-1.5733,-1.5865,-1.5782,-1.5775,-1.5982,-1.6079,-1.6128,-1.6245,-1.6237,-1.6286,-1.6376,-1.6402,-1.6312,-2.2011,-2.1987,-2.1655,-2.1491,-2.1468,-2.1227,-2.1099,-2.1099,-2.098,0.0,0.0,-2.0615,-2.0488,-2.0464,-2.0178,-2.0011,-2.0004,-1.9963,-1.9972,-1.9893,-1.963,-1.9463,-1.9495,-1.9145,-1.901,-1.901,-1.8947,-1.8923,-1.8923,-1.8821,-1.8781,-1.8781,-1.8781,-1.8781,-1.8804,-1.8533,-1.7938,-1.7014,-1.6897,-1.6792,-1.6784,-1.6665,-1.6419,-1.5967,-1.6063,-1.5819,-1.5235,-1.5489,-1.5412,-1.4956,-1.5033,-1.4947,-1.4648,-1.4366,-1.4249,-1.4223,-1.3989,-1.407,-1.4636,-1.468,-1.4867,-1.536,-1.5389,-1.5313,-1.5002,-1.5228,-1.5389,-1.5389,-1.5389,-1.5389,-1.5389,-1.5389,-1.5389,-1.5389,-1.5389,-1.5389,-1.5389,-1.5389,-1.5452,-1.5455,-1.5617,-1.5708,-1.5985,-1.6372,-1.6667,-1.6997,-1.7298,-1.7612,-1.7664,-1.7302,-1.6943,-1.6984,-1.6974,-1.6911,-1.6887,-1.6961,-1.6871,-1.6859,-1.6703,-1.6573,-1.6407,-1.6111,-1.5831,-1.5811,-1.5744,-1.5658,-1.5692,-1.5824,-1.6004,-1.6196,-1.6237,-1.6278,-1.6492,-1.6443,-1.636,-2.2011,-2.2003,-2.1955,-2.1939,-2.1878,-2.1884,-2.1814,-2.182,-2.1179,-2.0925,-2.0917,-2.0869,-2.0845,-2.0845,-2.0798,-2.0607,-2.0321,-2.0321,-2.0154,-1.9917,-1.9861,-1.9845,-1.9837,-1.9789,-1.9765,-1.9693,-1.9423,-1.9296,-1.9264,-1.8986,-1.8781,-1.8781,-1.8781,-1.8781,-1.8781,-1.8726,-1.8526,-1.8081,-1.7509,-1.7207,-1.7191,-1.6595,-1.6254,-1.6158,-1.592,-1.5729,-1.5643,-1.5513,-1.5389,-1.5312,-1.5196,-1.5124,-1.5158,-1.5143,-1.5127,-1.5196,-1.5182,-1.5163,-1.5284,-1.525,-1.5294,-1.5374,-1.5389,-1.5367,-1.533,-1.5367,-1.5389,-1.5389,-1.5389,-1.5389,-1.5389,-1.5389,-1.5389,-1.5389,-1.5389,-1.5396,-1.5445,-1.5411,-1.5513,-1.5811,-1.6189,-1.6508,-1.6792,-1.7218,-1.7482,-1.7664,-1.7731,-1.7811,-1.7826,-1.7699,-1.7671,-1.7671,-1.7671,-1.7671,-1.7548,-1.7612,-1.7529,-1.7384,-1.7345,-1.7125,-1.6822,-1.6453,-1.6224,-1.6167,-1.5861,-1.5614,-1.5695,-1.5582,-1.5691,-1.5747,-1.5755,-1.5774,-1.5982,-1.6148,-1.6291,-2.2529,-2.2506,-2.2323,-2.2243,-2.229,-2.2091,-2.2011,-2.1987,-2.1624,-2.1377,-2.1135,-2.0961,-2.0925,-2.0925,-2.0925,-2.0829,-2.0678,-2.0678,-2.0599,-2.0432,-2.0241,-2.0154,-2.0138,-2.0012,-1.9909,-1.9893,-1.9765,-1.9686,-1.9654,-1.9288,-1.9121,-1.9105,-1.8884,-1.8781,-1.8781,-1.8781,-1.8748,-1.8573,-1.8089,-1.7652,-1.7329,-1.6961,-1.6698,-1.6459,-1.6325,-1.6254,-1.6254,-1.6182,-1.6062,-1.5934,-1.5742,-1.565,-1.5721,-1.5483,-1.5427,-1.5526,-1.5465,-1.5389,-1.5389,-1.5389,-1.5389,-1.5389,-1.5389,-1.5389,-1.5389,-1.5389,-1.5389,-1.5389,-1.5389,-1.5389,-1.5389,-1.5389,-1.5389,-1.5389,-1.5389,-1.5462,-1.5615,-1.5652,-1.5811,-1.614,-1.638,-1.6607,-1.6837,-1.7365,-1.7739,-1.7851,-1.8111,-1.8327,-1.8327,-1.8335,-1.8192,-1.7902,-1.7806,-1.7806,-1.7814,-1.7806,-1.7771,-1.7656,-1.7569,-1.7445,-1.7182,-1.6855,-1.662,-1.6554,-1.6282,-1.6165,-1.6221,-1.6286,-1.6244,-1.6251,-1.6244,-1.6329,-1.6415,-1.6621,-1.6753,-2.3014,-2.299,-2.272,-2.2601,-2.2585,-2.237,-2.2196,-2.2188,-2.2162,-2.1926,-2.1595,-2.1182,-2.0984,-2.1028,-2.0956,-2.0925,-2.0925,-2.0925,-2.0917,-2.0893,-2.0639,-2.0512,-2.0488,-2.0234,-2.0098,-2.0091,-2.0027,-2.0036,-1.9988,-1.9646,-1.9487,-1.9344,-1.9002,-1.8781,-1.8781,-1.8781,-1.8781,-1.8765,-1.8557,-1.812,-1.7533,-1.748,-1.7215,-1.6889,-1.6857,-1.6818,-1.6705,-1.6689,-1.6648,-1.6484,-1.6327,-1.6211,-1.6162,-1.5839,-1.5665,-1.5782,-1.5631,-1.5548,-1.5465,-1.5465,-1.5465,-1.5389,-1.5389,-1.5389,-1.5389,-1.5389,-1.5389,-1.5389,-1.5389,-1.5389,-1.5403,-1.5476,-1.554,-1.5498,-1.5656,-1.581,-1.5972,-1.6066,-1.6184,-1.6463,-1.6573,-1.6684,-1.7011,-1.7439,-1.7826,-1.8107,-1.844,-1.8727,-1.8781,-1.8781,-1.8573,-1.8216,-1.8017,-1.8049,-1.8001,-1.8033,-1.8049,-1.8009,-1.7908,-1.7867,-1.7718,-1.7345,-1.7076,-1.7017,-1.6846,-1.6719,-1.6712,-1.68,-1.6829,-1.6748,-1.6697,-1.677,-1.6807,-1.7106,-1.7317,-2.3014,-2.3014,-2.2966,-2.2966,-2.295,-2.2919,-2.2887,-2.2855,-2.2577,-2.2418,-2.2315,-2.1703,-2.1357,-2.1309,-2.1016,-2.0933,-2.0925,-2.0925,-2.0925,-2.0925,-2.0893,-2.0877,-2.0861,-2.0821,-2.0829,-2.0758,-2.0488,-2.0345,-2.0321,-2.0036,-1.971,-1.9415,-1.901,-1.8797,-1.8789,-1.8789,-1.8781,-1.8781,-1.875,-1.8597,-1.8216,-1.7934,-1.7564,-1.7281,-1.7231,-1.7072,-1.6729,-1.6689,-1.6689,-1.6689,-1.6656,-1.6566,-1.6394,-1.6312,-1.6237,-1.6046,-1.6046,-1.5914,-1.5699,-1.5699,-1.5575,-1.5431,-1.5389,-1.5389,-1.5389,-1.5389,-1.5389,-1.5403,-1.5403,-1.5396,-1.5411,-1.5687,-1.584,-1.5884,-1.6263,-1.6572,-1.6404,-1.6558,-1.6728,-1.6815,-1.704,-1.7326,-1.7773,-1.7964,-1.8157,-1.8372,-1.8511,-1.8658,-1.8781,-1.8781,-1.8773,-1.8716,-1.8662,-1.8639,-1.8661,-1.867,-1.8637,-1.8669,-1.8662,-1.8515,-1.8308,-1.8068,-1.7823,-1.7567,-1.7279,-1.7105,-1.6906,-1.6794,-1.6787,-1.6736,-1.6669,-1.6595,-1.6742,-1.7096,-1.7386,-2.3014,-2.3014,-2.3014,-2.3014,-2.3014,-2.3014,-2.3014,-2.2998,-2.2863,-2.2799,-2.2736,-2.2275,-2.1838,-2.1404,-2.1246,-2.1123,-2.0933,-2.0925,-2.0925,-2.0925,-2.0925,-2.0925,-2.0925,-2.0925,-2.0925,-2.0917,-2.0766,-2.0702,-2.0647,-2.0345,-2.0003,-1.9662,-1.932,-1.9153,-1.9129,-1.8939,-1.8781,-1.8781,-1.8781,-1.8702,-1.8597,-1.8263,-1.7922,-1.7631,-1.7424,-1.7223,-1.7056,-1.6857,-1.6689,-1.6689,-1.6607,-1.6525,-1.6566,-1.636,-1.6245,-1.6245,-1.5989,-1.579,-1.5541,-1.5541,-1.5506,-1.5431,-1.5389,-1.5389,-1.5389,-1.5389,-1.5504,-1.5622,-1.5498,-1.5496,-1.5694,-1.584,-1.5987,-1.6155,-1.6441,-1.6588,-1.6683,-1.6937,-1.7116,-1.736,-1.7604,-1.778,-1.8048,-1.8234,-1.8427,-1.8604,-1.8697,-1.8697,-1.8781,-1.8781,-1.8781,-1.8781,-1.8781,-1.8781,-1.8781,-1.8781,-1.8781,-1.8781,-1.8781,-1.8743,-1.8673,-1.8488,-1.8271,-1.811,-1.7864,-1.7591,-1.7401,-1.7325,-1.7234,-1.7007,-1.693,-1.6991,-1.7219,-1.7455,-1.7727,-2.3014,-2.3014,-2.3014,-2.3014,-2.3014,-2.3014,-2.3014,-2.3014,-2.3014,-2.3014,-2.299,-2.2744,-2.2307,-2.1705,-2.1491,-2.1246,-2.1024,-2.0913,-2.0925,-2.0925,-2.0925,-2.0925,-2.0925,-2.0925,-2.0925,-2.0925,-2.0917,-2.0917,-2.0885,-2.0567,-2.0257,-2.0036,-1.9638,-1.9415,-1.9383,-1.9018,-1.8781,-1.8781,-1.8781,-1.8781,-1.8742,-1.8573,-1.8279,-1.7974,-1.7691,-1.756,-1.7448,-1.7072,-1.6881,-1.684,-1.6621,-1.6525,-1.6648,-1.6417,-1.6327,-1.6443,-1.6147,-1.5906,-1.5714,-1.5631,-1.559,-1.559,-1.5548,-1.5543,-1.5666,-1.5639,-1.5786,-1.6066,-1.5876,-1.5818,-1.5987,-1.6118,-1.6323,-1.6566,-1.6743,-1.6959,-1.7227,-1.7408,-1.7636,-1.7816,-1.7909,-1.8087,-1.8133,-1.8326,-1.852,-1.8658,-1.8697,-1.8743,-1.8781,-1.8781,-1.8781,-1.8781,-1.8781,-1.8781,-1.8781,-1.8781,-1.8781,-1.8781,-1.8781,-1.8781,-1.8781,-1.8651,-1.8566,-1.8456,-1.8342,-1.821,-1.7972,-1.7894,-1.7645,-1.7419,-1.7311,-1.7343,-1.7439,-1.7606,-1.7846,-2.3014,-2.3014,-2.3014,-2.3014,-2.3014,-2.3014,-2.3014,-2.3014,-2.3014,-2.3014,-2.3014,-2.299,-2.2784,-2.2386,-2.1737,-2.1396,-2.1317,-2.1032,-2.0941,-2.0925,-2.0925,-2.0925,-2.0925,-2.0925,-2.0925,-2.0925,-2.0925,-2.0925,-2.0901,-2.0583,-2.0384,-2.0337,-1.9749,-1.9447,-1.9447,-1.9135,-1.8835,-1.892,-1.892,-1.8827,-1.8781,-1.8804,-1.8613,-1.8311,-1.8247,-1.8057,-1.7798,-1.7437,-1.7254,-1.7297,-1.6919,-1.6721,-1.6705,-1.6656,-1.6656,-1.6648,-1.6648,-1.6525,-1.6319,-1.6144,-1.6076,-1.602,-1.5899,-1.594,-1.641,-1.6305,-1.6361,-1.669,-1.6499,-1.6404,-1.6485,-1.6617,-1.6845,-1.7115,-1.7605,-1.7895,-1.7987,-1.8118,-1.8303,-1.8133,-1.8133,-1.8179,-1.8133,-1.8326,-1.8481,-1.8574,-1.8527,-1.8612,-1.8735,-1.8781,-1.8781,-1.8781,-1.8781,-1.8781,-1.8781,-1.8781,-1.8781,-1.8781,-1.8781,-1.8781,-1.8781,-1.8781,-1.8781,-1.8789,-1.8689,-1.8604,-1.8473,-1.8195,-1.7846,-1.7567,-1.7426,-1.7426,-1.7527,-1.7581,-1.7815,-2.3014,-2.3014,-2.3014,-2.3014,-2.3014,-2.3014,-2.3014,-2.3014,-2.3014,-2.3014,-2.3014,-2.3014,-2.2942,-2.2799,-2.2331,-2.187,-2.1404,-2.1262,-2.1087,-2.0948,-2.0925,-2.0925,-2.0925,-2.0925,-2.0925,-2.0925,-2.0925,-2.0925,-2.0858,-2.079,-2.0734,-2.0662,-2.0265,-2.0208,-2.0469,-2.0262,-1.9962,-1.9783,-1.9766,-1.9455,-1.8874,-1.8781,-1.8718,-1.8629,-1.8414,-1.824,-1.8112,-1.7822,-1.7596,-1.7639,-1.7461,-1.7294,-1.7088,-1.6816,-1.6648,-1.6517,-1.6517,-1.6402,-1.6275,-1.6335,-1.6415,-1.6431,-1.6563,-1.665,-1.6866,-1.686,-1.6946,-1.7182,-1.7221,-1.7244,-1.7326,-1.7144,-1.6991,-1.7281,-1.7585,-1.7908,-1.7916,-1.8249,-1.8435,-1.8373,-1.8465,-1.855,-1.855,-1.8651,-1.8697,-1.8697,-1.8697,-1.8743,-1.8789,-1.8781,-1.8781,-1.8781,-1.8781,-1.8781,-1.8781,-1.8781,-1.8781,-1.8781,-1.8781,-1.8781,-1.8781,-1.8781,-1.8781,-1.8781,-1.8781,-1.8697,-1.8527,-1.8195,-1.7854,-1.7846,-1.766,-1.7527,-1.7535,-1.7628,-1.7815,-2.3014,-2.3014,-2.3014,-2.3014,-2.3014,-2.3014,-2.3014,-2.3014,-2.3014,-2.3014,-2.3014,-2.3014,-2.3014,-2.2982,-2.2768,-2.2283,-2.164,-2.1444,-2.1206,-2.0941,-2.0925,-2.0925,-2.0925,-2.0925,-2.0925,-2.0925,-2.0925,-2.0925,-2.0925,-2.0925,-2.0925,-2.0893,-2.0567,-2.0628,-2.0913,-2.0843,-2.0677,-2.0454,-2.0363,-1.994,-1.9317,-1.8966,-1.8781,-1.875,-1.8551,-1.847,-1.8462,-1.8128,-1.799,-1.7974,-1.7878,-1.7711,-1.748,-1.7207,-1.6988,-1.6896,-1.6855,-1.6813,-1.6676,-1.68,-1.6931,-1.6974,-1.7116,-1.7285,-1.743,-1.7409,-1.7534,-1.778,-1.7789,-1.7858,-1.7926,-1.7597,-1.7421,-1.763,-1.7861,-1.8009,-1.8055,-1.8381,-1.8566,-1.8604,-1.8689,-1.8781,-1.8781,-1.8781,-1.8781,-1.8781,-1.8781,-1.8781,-1.8781,-1.8781,-1.8781,-1.8781,-1.8781,-1.8781,-1.8781,-1.8781,-1.8781,-1.8781,-1.8781,-1.8781,-1.8781,-1.8781,-1.8781,-1.8781,-1.8743,-1.8705,-1.8473,-1.8195,-1.8094,-1.8133,-1.7994,-1.7807,-1.7768,-1.7675,-1.7861,-2.3014,-2.3014,-2.3014,-2.3014,-2.3014,-2.3014,-2.3014,-2.3014,-2.3014,-2.3014,-2.3014,-2.3014,-2.307,-2.3062,-2.3023,-2.2664,-2.2374,-2.1912,-2.1446,-2.1094,-2.0917,-2.1019,-2.1165,-2.1019,-2.1019,-2.107,-2.0968,-2.1019,-2.1165,-2.1121,-2.1078,-2.0912,-2.0758,-2.0666,-2.0518,-2.0886,-2.0959,-2.0859,-2.0637,-2.0382,-2.0212,-1.95,-1.905,-1.8912,-1.8888,-1.8826,-1.8788,-1.8478,-1.8295,-1.8263,-1.8001,-1.7795,-1.783,-1.7707,-1.7723,-1.7676,-1.7723,-1.7731,-1.7723,-1.7581,-1.7569,-1.7707,-1.76,-1.776,-1.8076,-1.8041,-1.8038,-1.8287,-1.8272,-1.8125,-1.8164,-1.8095,-1.8141,-1.8427,-1.8388,-1.8465,-1.8651,-1.8781,-1.8781,-1.8781,-1.8781,-1.8781,-1.8781,-1.8781,-1.8781,-1.8781,-1.8781,-1.8781,-1.8781,-1.8781,-1.8781,-1.8781,-1.8781,-1.8781,-1.8781,-1.8781,-1.8781,-1.8781,-1.8781,-1.8781,-1.8781,-1.8781,-1.8781,-1.8781,-1.8781,-1.8743,-1.8658,-1.8381,-1.8326,-1.828,-1.8141,-1.8048,-1.7955,-1.7908,-1.7854,-2.3014,-2.3014,-2.3014,-2.3014,-2.3014,-2.3014,-2.3014,-2.3014,-2.3014,-2.3014,-2.3014,-2.3014,-2.3456,-2.3896,-2.34,-2.3632,-2.4597,-2.3525,-2.2563,-2.202,-2.1283,-2.1768,-2.261,-2.1623,-2.1267,-2.1869,-2.1971,-2.2417,-2.2811,-2.2325,-2.1979,-2.1988,-2.1862,-2.167,-2.1387,-2.2123,-2.2369,-2.1785,-2.1633,-2.1536,-2.1275,-2.0934,-2.0484,-1.9894,-1.9849,-1.9546,-1.8866,-1.8724,-1.8661,-1.8607,-1.8557,-1.839,-1.8152,-1.795,-1.7814,-1.7806,-1.7806,-1.7806,-1.7803,-1.7965,-1.8047,-1.8131,-1.8261,-1.8443,-1.8599,-1.8561,-1.8571,-1.8689,-1.8643,-1.8596,-1.8596,-1.8596,-1.8504,-1.8272,-1.8381,-1.852,-1.8612,-1.8743,-1.8781,-1.8781,-1.8781,-1.8781,-1.8781,-1.8781,-1.8781,-1.8781,-1.8781,-1.8781,-1.8781,-1.8781,-1.8781,-1.8781,-1.8781,-1.8781,-1.8781,-1.8781,-1.8781,-1.8781,-1.8781,-1.8781,-1.8781,-1.8781,-1.8781,-1.8781,-1.8781,-1.8781,-1.8697,-1.8604,-1.8512,-1.8465,-1.8319,-1.828,-1.8195,-1.8141,-1.8048,-2.3014,-2.3014,-2.3014,-2.3014,-2.3014,-2.3014,-2.3014,-2.3014,-2.3014,-2.3014,-2.3014,-2.3014,-2.34,-2.3952,-2.3784,-2.4289,-2.521,-2.4686,-2.4278,-2.3788,-2.2653,-2.2902,-2.389,-2.2802,-2.2358,-2.2961,-2.3111,-2.3211,-2.3452,-2.287,-2.2476,-2.2476,-2.2123,-2.1963,-2.2068,-2.2495,-2.2538,-2.2073,-2.1762,-2.1578,-2.1309,-2.087,-2.0348,-1.9803,-1.9712,-1.9409,-1.8827,-1.8781,-1.8781,-1.8781,-1.8781,-1.8716,-1.8502,-1.8295,-1.816,-1.8168,-1.8168,-1.8176,-1.8192,-1.8383,-1.8494,-1.8541,-1.87,-1.8812,-1.8773,-1.8781,-1.8781,-1.8781,-1.8781,-1.8781,-1.8781,-1.8781,-1.8643,-1.8411,-1.8512,-1.8612,-1.8612,-1.8735,-1.8781,-1.8781,-1.8781,-1.8781,-1.8781,-1.8781,-1.8781,-1.8781,-1.8781,-1.8781,-1.8781,-1.8781,-1.8781,-1.8781,-1.8781,-1.8781,-1.8781,-1.8781,-1.8781,-1.8781,-1.8781,-1.8781,-1.8781,-1.8781,-1.8781,-1.8781,-1.8781,-1.8781,-1.8735,-1.8697,-1.8651,-1.8558,-1.8504,-1.8465,-1.8419,-1.8288,-1.8195,-2.3014,-2.3014,-2.3014,-2.3014,-2.3014,-2.3014,-2.3014,-2.3014,-2.3014,-2.3014,-2.3014,-2.3014,-2.3127,-2.34,-2.4223,-2.47,-2.4752,-2.561,-2.6149,-2.5975,-2.5029,-2.4409,-2.4048,-2.3989,-2.4048,-2.4137,-2.4196,-2.3859,-2.3511,-2.317,-2.2627,-2.2669,-2.1971,-2.1471,-2.2122,-2.196,-2.1987,-2.1782,-2.1346,-2.1206,-2.1029,-2.0092,-1.9258,-1.915,-1.9225,-1.9142,-1.8827,-1.8781,-1.8781,-1.8781,-1.8781,-1.8765,-1.8765,-1.8819,-1.871,-1.8732,-1.8804,-1.8764,-1.875,-1.8694,-1.8734,-1.8726,-1.875,-1.8781,-1.8781,-1.8781,-1.8781,-1.8781,-1.8781,-1.8781,-1.8781,-1.8781,-1.8781,-1.8781,-1.8735,-1.8781,-1.8781,-1.8781,-1.8781,-1.8781,-1.8781,-1.8781,-1.8781,-1.8781,-1.8781,-1.8781,-1.8781,-1.8781,-1.8781,-1.8781,-1.8781,-1.8781,-1.8781,-1.8781,-1.8781,-1.8781,-1.8781,-1.8781,-1.8781,-1.8781,-1.8781,-1.8781,-1.8781,-1.8781,-1.8781,-1.8781,-1.8781,-1.8735,-1.8743,-1.8689,-1.8689,-1.8651,-1.8512,-1.8334,-1.8241,-2.3014,-2.3014,-2.3014,-2.3014,-2.3014,-2.3014,-2.3014,-2.3014,-2.3014,-2.3014,-2.3014,-2.3014,-2.3512,-2.4334,-2.4667,-2.5581,-2.6763,-2.7156,-2.7499,-2.7873,-2.7308,-2.5751,-2.4637,-2.4933,-2.5294,-2.5285,-2.5285,-2.5538,-2.5926,-2.5041,-2.4353,-2.3701,-2.3253,-2.2459,-2.1641,-2.2064,-2.2119,-2.1987,-2.25,-2.2371,-2.1959,-2.2245,-2.1563,-2.0048,-2.0484,-2.0085,-1.9004,-1.8781,-1.8781,-1.8781,-1.8781,-1.8781,-1.8781,-1.8781,-1.8781,-1.8781,-1.8781,-1.8781,-1.8781,-1.8781,-1.8781,-1.8781,-1.8781,-1.8781,-1.8781,-1.8781,-1.8781,-1.8781,-1.8781,-1.8781,-1.8781,-1.8781,-1.8781,-1.8781,-1.8781,-1.8781,-1.8781,-1.8781,-1.8781,-1.8781,-1.8781,-1.8781,-1.8781,-1.8781,-1.8781,-1.8781,-1.8781,-1.8781,-1.8781,-1.8781,-1.8781,-1.8781,-1.8781,-1.8781,-1.8781,-1.8781,-1.8781,-1.8781,-1.8781,-1.8781,-1.8781,-1.8781,-1.8781,-1.8781,-1.8781,-1.8781,-1.8781,-1.8781,-1.8781,-1.8781,-1.8697,-1.8612,-1.8427,-1.8241,-1.8141,-2.3014,-2.3014,-2.3014,-2.3014,-2.3014,-2.3014,-2.3014,-2.3014,-2.3014,-2.3014,-2.3014,-2.3014,-2.368,-2.4778,-2.5322,-2.6445,-2.8077,-2.8515,-2.8603,-2.8396,-2.7865,-2.6804,-2.5858,-2.6167,-2.638,-2.638,-2.638,-2.6418,-2.6428,-2.5994,-2.5343,-2.4648,-2.385,-2.2961,-2.2501,-2.2266,-2.2373,-2.2292,-2.3001,-2.3226,-2.2925,-2.3007,-2.2226,-2.0883,-2.095,-2.0303,-1.9004,-1.8781,-1.8781,-1.8781,-1.8781,-1.8781,-1.8781,-1.8781,-1.8781,-1.8781,-1.8781,-1.8781,-1.8781,-1.8781,-1.8781,-1.8781,-1.8781,-1.8781,-1.8781,-1.8781,-1.8781,-1.8781,-1.8781,-1.8781,-1.8781,-1.8781,-1.8781,-1.8781,-1.8781,-1.8781,-1.8781,-1.8781,-1.8781,-1.8781,-1.8781,-1.8781,-1.8781,-1.8781,-1.8781,-1.8781,-1.8781,-1.8781,-1.8781,-1.8781,-1.8781,-1.8781,-1.8781,-1.8781,-1.8781,-1.8781,-1.8781,-1.8781,-1.8781,-1.8781,-1.8781,-1.8781,-1.8781,-1.8781,-1.8781,-1.8781,-1.8781,-1.8781,-1.8781,-1.8781,-1.8651,-1.8612,-1.8465,-1.8334,-1.8187,-2.3014,-2.3014,-2.3014,-2.3014,-2.3014,-2.3014,-2.3014,-2.3014,-2.3014,-2.3127,-2.3287,-2.3239,-2.4064,-2.5055,-2.6227,-2.7239,-2.8276,-2.9282,-2.9158,-2.8618,-2.7872,-2.7184,-2.7034,-2.7013,-2.7119,-2.7119,-2.7262,-2.6822,-2.6332,-2.5887,-2.5693,-2.5099,-2.356,-2.3203,-2.3352,-2.302,-2.2577,-2.2874,-2.3611,-2.3779,-2.3529,-2.3215,-2.252,-2.1403,-2.0813,-2.0402,-1.9546,-1.9142,-1.9004,-1.8781,-1.8781,-1.8781,-1.8781,-1.8781,-1.8781,-1.8781,-1.8781,-1.8781,-1.8781,-1.8781,-1.8781,-1.8781,-1.8781,-1.8781,-1.8781,-1.8781,-1.8781,-1.8781,-1.8781,-1.8781,-1.8781,-1.8781,-1.8781,-1.8781,-1.8781,-1.8781,-1.8781,-1.8781,-1.8781,-1.8781,-1.8781,-1.8781,-1.8781,-1.8781,-1.8781,-1.8781,-1.8781,-1.8781,-1.8781,-1.8781,-1.8781,-1.8781,-1.8781,-1.8781,-1.8781,-1.8781,-1.8781,-1.8781,-1.8781,-1.8781,-1.8781,-1.8781,-1.8781,-1.8781,-1.8781,-1.8781,-1.8781,-1.8781,-1.8781,-1.8781,-1.8743,-1.8689,-1.8689,-1.8558,-1.8419,-2.3014,-2.3014,-2.3014,-2.3014,-2.3014,-2.3014,-2.3014,-2.3014,-2.3014,-2.3568,-2.4231,-2.4398,-2.5093,-2.6218,-2.7248,-2.8009,-2.8382,-2.9377,-2.9497,-2.8618,-2.8059,-2.7572,-2.7392,-2.732,-2.732,-2.732,-2.732,-2.7167,-2.6822,-2.6177,-2.5693,-2.5441,-2.3908,-2.3061,-2.385,-2.3261,-2.2961,-2.3732,-2.4731,-2.4659,-2.4134,-2.4316,-2.3727,-2.2254,-2.159,-2.1257,-2.0979,-2.0393,-1.9629,-1.905,-1.8781,-1.8781,-1.8781,-1.8781,-1.8781,-1.8781,-1.8781,-1.8781,-1.8781,-1.8781,-1.8781,-1.8781,-1.8781,-1.8781,-1.8781,-1.8781,-1.8781,-1.8781,-1.8781,-1.8781,-1.8781,-1.8781,-1.8781,-1.8781,-1.8781,-1.8781,-1.8781,-1.8781,-1.8781,-1.8781,-1.8781,-1.8781,-1.8781,-1.8781,-1.8781,-1.8781,-1.8781,-1.8781,-1.8781,-1.8781,-1.8781,-1.8781,-1.8781,-1.8781,-1.8781,-1.8781,-1.8781,-1.8781,-1.8781,-1.8781,-1.8781,-1.8781,-1.8781,-1.8781,-1.8781,-1.8781,-1.8781,-1.8781,-1.8781,-1.8781,-1.8781,-1.8689,-1.8596,-1.8604,-1.8512,-2.3014,-2.3014,-2.3014,-2.3014,-2.3014,-2.3014,-2.3014,-2.3127,-2.3616,-2.4175,-2.4834,-2.5322,-2.6227,-2.7302,-2.7956,-2.8455,-2.8999,-2.9413,-2.9301,-2.8618,-2.8131,-2.7676,-2.7392,-2.732,-2.732,-2.732,-2.732,-2.732,-2.7119,-2.6774,-2.6476,-2.6274,-2.4295,-2.4007,-2.4541,-2.3809,-2.3899,-2.4845,-2.5887,-2.6038,-2.56,-2.559,-2.4964,-2.3214,-2.2193,-2.1552,-2.0926,-2.0565,-1.9758,-1.9096,-1.8781,-1.8781,-1.8781,-1.8781,-1.8781,-1.8781,-1.8781,-1.8781,-1.8781,-1.8781,-1.8781,-1.8781,-1.8781,-1.8781,-1.8781,-1.8781,-1.8781,-1.8781,-1.8781,-1.8781,-1.8781,-1.8781,-1.8781,-1.8781,-1.8781,-1.8781,-1.8781,-1.8781,-1.8781,-1.8781,-1.8781,-1.8781,-1.8781,-1.8781,-1.8781,-1.8781,-1.8781,-1.8781,-1.8781,-1.8781,-1.8781,-1.8781,-1.8781,-1.8781,-1.8781,-1.8781,-1.8781,-1.8781,-1.8781,-1.8781,-1.8781,-1.8781,-1.8781,-1.8781,-1.8781,-1.8781,-1.8781,-1.8781,-1.8781,-1.8781,-1.8735,-1.8604,-1.8558,-1.8651,-1.8512,-2.3014,-2.3014,-2.3014,-2.3014,-2.3014,-2.3231,-2.3344,-2.3512,-2.4548,-2.5258,-2.5478,-2.6381,-2.7419,-2.8339,-2.8499,-2.9164,-2.9619,-2.9591,-2.9239,-2.8607,-2.8286,-2.7779,-2.7455,-2.732,-2.732,-2.732,-2.732,-2.732,-2.7262,-2.7167,-2.6822,-2.6774,-2.5129,-2.4786,-2.5392,-2.4992,-2.4894,-2.5936,-2.6716,-2.7109,-2.6979,-2.6764,-2.5752,-2.4321,-2.2917,-2.1733,-2.1006,-2.0439,-1.9849,-1.892,-1.8781,-1.8781,-1.8781,-1.8781,-1.8781,-1.8781,-1.8781,-1.8781,-1.8781,-1.8781,-1.8781,-1.8781,-1.8781,-1.8781,-1.8781,-1.8781,-1.8781,-1.8781,-1.8781,-1.8781,-1.8781,-1.8781,-1.8781,-1.8781,-1.8781,-1.8781,-1.8781,-1.8781,-1.8781,-1.8781,-1.8781,-1.8781,-1.8781,-1.8781,-1.8781,-1.8781,-1.8781,-1.8781,-1.8781,-1.8781,-1.8781,-1.8781,-1.8781,-1.8781,-1.8781,-1.8781,-1.8781,-1.8781,-1.8781,-1.8781,-1.8781,-1.8781,-1.8781,-1.8781,-1.8781,-1.8781,-1.8781,-1.8781,-1.8781,-1.8781,-1.8735,-1.8651,-1.8651,-1.8697,-1.8504,-2.3014,-2.3014,-2.3014,-2.3014,-2.3183,-2.4064,-2.4454,-2.4714,-2.5744,-2.6762,-2.7527,-2.7858,-2.8562,-2.9386,-2.9659,-2.9827,-2.99,-2.9756,-2.9342,-2.8711,-2.84,-2.8007,-2.7413,-2.732,-2.732,-2.732,-2.732,-2.732,-2.7071,-2.6524,-2.662,-2.6668,-2.5129,-2.5022,-2.6167,-2.6081,-2.5781,-2.6678,-2.7167,-2.732,-2.7278,-2.7055,-2.6553,-2.5325,-2.4013,-2.2805,-2.1562,-2.0701,-1.9803,-1.8912,-1.8827,-1.8827,-1.8781,-1.8781,-1.8781,-1.8781,-1.8781,-1.8781,-1.8781,-1.8781,-1.8781,-1.8781,-1.8781,-1.8781,-1.8781,-1.8781,-1.8781,-1.8781,-1.8781,-1.8781,-1.8781,-1.8781,-1.8781,-1.8781,-1.8781,-1.8781,-1.8781,-1.8781,-1.8781,-1.8781,-1.8781,-1.8781,-1.8781,-1.8781,-1.8781,-1.8781,-1.8781,-1.8781,-1.8781,-1.8781,-1.8781,-1.8781,-1.8781,-1.8781,-1.8781,-1.8781,-1.8781,-1.8781,-1.8781,-1.8781,-1.8781,-1.8781,-1.8781,-1.8781,-1.8781,-1.8781,-1.8781,-1.8781,-1.8781,-1.8781,-1.8789,-1.8743,-1.8705,-1.8658,-1.8658,-2.3014,-2.3014,-2.3014,-2.3344,-2.3952,-2.4501,-2.5157,-2.5799,-2.687,-2.7678,-2.8286,-2.8827,-2.9386,-2.9889,-2.9994,-2.9994,-2.9942,-2.9704,-2.9249,-2.868,-2.8338,-2.7935,-2.7361,-2.732,-2.732,-2.732,-2.732,-2.732,-2.7214,-2.6235,-2.638,-2.6562,-2.5168,-2.5226,-2.6562,-2.6235,-2.638,-2.7071,-2.732,-2.732,-2.7278,-2.7123,-2.6573,-2.5842,-2.4995,-2.3821,-2.2621,-2.2085,-2.1006,-1.994,-1.9592,-1.9271,-1.8958,-1.8781,-1.8781,-1.8781,-1.8781,-1.8781,-1.8781,-1.8781,-1.8781,-1.8781,-1.8781,-1.8781,-1.8781,-1.8781,-1.8781,-1.8781,-1.8781,-1.8781,-1.8781,-1.8781,-1.8781,-1.8781,-1.8781,-1.8781,-1.8781,-1.8781,-1.8781,-1.8781,-1.8781,-1.8781,-1.8781,-1.8781,-1.8781,-1.8781,-1.8781,-1.8781,-1.8781,-1.8781,-1.8781,-1.8781,-1.8781,-1.8781,-1.8781,-1.8781,-1.8781,-1.8781,-1.8781,-1.8781,-1.8781,-1.8781,-1.8781,-1.8781,-1.8781,-1.8781,-1.8781,-1.8781,-1.8781,-1.8781,-1.8781,-1.8743,-1.8658,-1.8574,-1.8612,-2.3127,-2.3344,-2.3344,-2.4055,-2.5046,-2.5423,-2.6009,-2.6978,-2.8062,-2.8562,-2.8721,-2.9491,-2.9942,-2.9994,-2.9984,-2.9953,-2.9849,-2.9446,-2.9011,-2.8462,-2.8121,-2.7696,-2.7423,-2.732,-2.732,-2.732,-2.732,-2.732,-2.7214,-2.6572,-2.6668,-2.6716,-2.5431,-2.547,-2.6764,-2.6572,-2.6716,-2.6965,-2.732,-2.732,-2.7216,-2.6946,-2.6532,-2.5985,-2.5406,-2.44,-2.3296,-2.2662,-2.1686,-2.0656,-2.0121,-1.9803,-1.9004,-1.8781,-1.8781,-1.8781,-1.8781,-1.8781,-1.8781,-1.8781,-1.8781,-1.8781,-1.8781,-1.8781,-1.8781,-1.8781,-1.8781,-1.8781,-1.8781,-1.8781,-1.8781,-1.8781,-1.8781,-1.8781,-1.8781,-1.8781,-1.8781,-1.8781,-1.8781,-1.8781,-1.8781,-1.8781,-1.8781,-1.8781,-1.8781,-1.8781,-1.8781,-1.8781,-1.8781,-1.8781,-1.8781,-1.8781,-1.8781,-1.8781,-1.8781,-1.8781,-1.8781,-1.8781,-1.8781,-1.8781,-1.8781,-1.8781,-1.8781,-1.8781,-1.8781,-1.8781,-1.8781,-1.8781,-1.8781,-1.8781,-1.8781,-1.8781,-1.8697,-1.8705,-1.8697,-2.3624,-2.4612,-2.4612,-2.5258,-2.6381,-2.7257,-2.7795,-2.8116,-2.9217,-2.9774,-2.9606,-2.9879,-2.9994,-2.9984,-2.9963,-2.9746,-2.9477,-2.9197,-2.8763,-2.8142,-2.7914,-2.7645,-2.7361,-2.732,-2.732,-2.732,-2.732,-2.732,-2.7214,-2.7013,-2.7061,-2.7061,-2.687,-2.7061,-2.7109,-2.7013,-2.7204,-2.7309,-2.732,-2.732,-2.7299,-2.7226,-2.6936,-2.6316,-2.5396,-2.448,-2.3737,-2.2957,-2.1695,-2.0656,-2.0339,-1.9803,-1.9004,-1.8781,-1.8781,-1.8781,-1.8781,-1.8781,-1.8781,-1.8781,-1.8781,-1.8781,-1.8781,-1.8781,-1.8781,-1.8781,-1.8781,-1.8781,-1.8781,-1.8781,-1.8781,-1.8781,-1.8781,-1.8781,-1.8781,-1.8781,-1.8781,-1.8781,-1.8781,-1.8781,-1.8781,-1.8781,-1.8781,-1.8781,-1.8781,-1.8781,-1.8781,-1.8781,-1.8781,-1.8781,-1.8781,-1.8781,-1.8781,-1.8781,-1.8781,-1.8781,-1.8781,-1.8781,-1.8781,-1.8781,-1.8781,-1.8781,-1.8781,-1.8781,-1.8781,-1.8781,-1.8781,-1.8781,-1.8781,-1.8781,-1.8781,-1.8781,-1.8781,-1.8781,-1.8789,-2.5296,-2.5744,-2.5735,-2.6445,-2.7463,-2.8009,-2.8615,-2.927,-2.9774,-2.9994,-2.9994,-2.9994,-2.9994,-2.9942,-2.9746,-2.9497,-2.9228,-2.8794,-2.8359,-2.7924,-2.7676,-2.7506,-2.7361,-2.732,-2.732,-2.732,-2.732,-2.732,-2.7167,-2.6764,-2.662,-2.7204,-2.6812,-2.6668,-2.7214,-2.732,-2.732,-2.732,-2.732,-2.732,-2.732,-2.7278,-2.7092,-2.6635,-2.5722,-2.5093,-2.448,-2.3853,-2.2511,-2.1507,-2.1114,-2.0303,-1.9225,-1.8781,-1.8781,-1.8781,-1.8781,-1.8781,-1.8781,-1.8781,-1.8781,-1.8781,-1.8781,-1.8781,-1.8781,-1.8781,-1.8781,-1.8781,-1.8781,-1.8781,-1.8781,-1.8781,-1.8781,-1.8781,-1.8781,-1.8781,-1.8781,-1.8781,-1.8781,-1.8781,-1.8781,-1.8781,-1.8781,-1.8781,-1.8781,-1.8781,-1.8781,-1.8781,-1.8781,-1.8781,-1.8781,-1.8781,-1.8781,-1.8781,-1.8781,-1.8781,-1.8781,-1.8781,-1.8781,-1.8781,-1.8781,-1.8781,-1.8781,-1.8781,-1.8781,-1.8781,-1.8781,-1.8781,-1.8781,-1.8781,-1.8781,-1.8781,-1.8781,-1.8781,-1.8781,-2.7356,-2.7356,-2.7023,-2.7571,-2.8615,-2.8668,-2.9164,-2.9942,-2.9994,-2.9994,-2.9963,-2.988,-2.9808,-2.9715,-2.9352,-2.9032,-2.8887,-2.8224,-2.7893,-2.7665,-2.7458,-2.7351,-2.732,-2.732,-2.732,-2.732,-2.732,-2.732,-2.7061,-2.6716,-2.6726,-2.7262,-2.6764,-2.6668,-2.7119,-2.732,-2.732,-2.732,-2.732,-2.732,-2.732,-2.732,-2.7123,-2.677,-2.6299,-2.5834,-2.5399,-2.4887,-2.3716,-2.205,-2.1606,-2.0709,-1.9188,-1.8781,-1.8781,-1.8781,-1.8781,-1.8781,-1.8781,-1.8781,-1.8781,-1.8781,-1.8781,-1.8781,-1.8781,-1.8781,-1.8781,-1.8781,-1.8781,-1.8781,-1.8781,-1.8781,-1.8781,-1.8781,-1.8781,-1.8781,-1.8781,-1.8781,-1.8781,-1.8781,-1.8781,-1.8781,-1.8781,-1.8781,-1.8781,-1.8781,-1.8781,-1.8781,-1.8781,-1.8781,-1.8781,-1.8781,-1.8781,-1.8781,-1.8781,-1.8781,-1.8781,-1.8781,-1.8781,-1.8781,-1.8781,-1.8781,-1.8781,-1.8781,-1.8781,-1.8781,-1.8781,-1.8781,-1.8781,-1.8781,-1.8781,-1.8781,-1.8781,-1.8781,-1.8781,-2.9774,-2.9659,-2.8562,-2.8721,-2.9837,-2.9889,-2.9889,-2.9994,-2.9984,-2.9932,-2.9808,-2.957,-2.9352,-2.9228,-2.8876,-2.8452,-2.802,-2.7966,-2.7686,-2.7438,-2.732,-2.732,-2.732,-2.732,-2.732,-2.732,-2.732,-2.732,-2.732,-2.7167,-2.7119,-2.7214,-2.7013,-2.7156,-2.7262,-2.732,-2.732,-2.732,-2.732,-2.732,-2.732,-2.732,-2.7268,-2.7154,-2.6791,-2.6356,-2.5889,-2.5368,-2.4077,-2.1965,-2.1713,-2.0799,-1.9234,-1.8827,-1.8781,-1.8781,-1.8781,-1.8781,-1.8781,-1.8781,-1.8781,-1.8781,-1.8781,-1.8781,-1.8781,-1.8781,-1.8781,-1.8781,-1.8781,-1.8781,-1.8781,-1.8781,-1.8781,-1.8781,-1.8781,-1.8781,-1.8781,-1.8781,-1.8781,-1.8781,-1.8781,-1.8781,-1.8781,-1.8781,-1.8781,-1.8781,-1.8781,-1.8781,-1.8781,-1.8781,-1.8781,-1.8781,-1.8781,-1.8781,-1.8781,-1.8781,-1.8781,-1.8781,-1.8781,-1.8781,-1.8781,-1.8781,-1.8781,-1.8781,-1.8781,-1.8781,-1.8781,-1.8781,-1.8781,-1.8781,-1.8781,-1.8781,-1.8781,-1.8781,-1.8781,-2.9994,-2.9942,-2.9501,-2.9544,-2.9994,-2.9994,-2.9994,-2.9942,-2.9694,-2.9394,-2.9156,-2.8959,-2.8876,-2.8752,-2.8421,-2.811,-2.7883,-2.7603,-2.7427,-2.7382,-2.732,-2.732,-2.732,-2.732,-2.732,-2.732,-2.732,-2.732,-2.732,-2.732,-2.732,-2.732,-2.732,-2.7309,-2.732,-2.732,-2.732,-2.732,-2.732,-2.732,-2.732,-2.732,-2.732,-2.7278,-2.6853,-2.6573,-2.6216,-2.5585,-2.4073,-2.2692,-2.1985,-2.067,-1.9307,-1.8983,-1.8845,-1.8837,-1.8837,-1.8813,-1.8805,-1.8797,-1.8781,-1.8781,-1.8781,-1.8781,-1.8781,-1.8781,-1.8781,-1.8781,-1.8781,-1.8781,-1.8781,-1.8781,-1.8781,-1.8781,-1.8781,-1.8781,-1.8781,-1.8781,-1.8781,-1.8781,-1.8781,-1.8781,-1.8781,-1.8781,-1.8781,-1.8781,-1.8781,-1.8781,-1.8781,-1.8781,-1.8781,-1.8781,-1.8781,-1.8781,-1.8781,-1.8781,-1.8781,-1.8781,-1.8781,-1.8781,-1.8781,-1.8781,-1.8781,-1.8781,-1.8781,-1.8781,-1.8781,-1.8781,-1.8781,-1.8781,-1.8781,-1.8781,-1.8781,-1.8781,-1.8781,-2.958,-2.958,-2.958,-2.9756,-2.9963,-2.9849,-2.9798,-2.9715,-2.929,-2.8938,-2.8607,-2.8504,-2.8411,-2.8286,-2.7945,-2.7728,-2.7614,-2.7427,-2.7361,-2.732,-2.732,-2.732,-2.732,-2.732,-2.732,-2.732,-2.732,-2.732,-2.732,-2.732,-2.732,-2.732,-2.732,-2.732,-2.732,-2.732,-2.732,-2.732,-2.732,-2.732,-2.732,-2.732,-2.732,-2.7299,-2.7009,-2.675,-2.6521,-2.5954,-2.4917,-2.3482,-2.2409,-2.1278,-2.0155,-1.9363,-1.9137,-1.9105,-1.9042,-1.8994,-1.897,-1.8829,-1.8797,-1.8781,-1.8781,-1.8781,-1.8781,-1.8781,-1.8781,-1.8781,-1.8781,-1.8781,-1.8781,-1.8781,-1.8781,-1.8781,-1.8781,-1.8781,-1.8781,-1.8781,-1.8781,-1.8781,-1.8781,-1.8781,-1.8781,-1.8781,-1.8781,-1.8781,-1.8781,-1.8781,-1.8781,-1.8781,-1.8781,-1.8781,-1.8781,-1.8781,-1.8781,-1.8781,-1.8781,-1.8781,-1.8781,-1.8781,-1.8781,-1.8781,-1.8781,-1.8781,-1.8781,-1.8781,-1.8781,-1.8781,-1.8781,-1.8781,-1.8781,-1.8781,-1.8781,-1.8781,-1.8781,-2.869,-2.8638,-2.869,-2.9187,-2.9818,-2.9497,-2.9321,-2.9259,-2.8835,-2.8576,-2.8421,-2.811,-2.7935,-2.7852,-2.7521,-2.7455,-2.7423,-2.7351,-2.732,-2.732,-2.732,-2.732,-2.732,-2.732,-2.732,-2.732,-2.732,-2.732,-2.732,-2.732,-2.732,-2.732,-2.732,-2.732,-2.732,-2.732,-2.732,-2.732,-2.732,-2.732,-2.732,-2.732,-2.732,-2.7289,-2.7237,-2.7009,-2.675,-2.6455,-2.5426,-2.4052,-2.3112,-2.2033,-2.0889,-2.0062,-1.9742,-1.975,-1.9503,-1.9336,-1.9304,-1.901,-1.8813,-1.8781,-1.8781,-1.8781,-1.8781,-1.8781,-1.8781,-1.8781,-1.8781,-1.8781,-1.8781,-1.8781,-1.8781,-1.8781,-1.8781,-1.8781,-1.8781,-1.8781,-1.8781,-1.8781,-1.8781,-1.8781,-1.8781,-1.8781,-1.8781,-1.8781,-1.8781,-1.8781,-1.8781,-1.8781,-1.8781,-1.8781,-1.8781,-1.8781,-1.8781,-1.8781,-1.8781,-1.8781,-1.8781,-1.8781,-1.8781,-1.8781,-1.8781,-1.8781,-1.8781,-1.8781,-1.8781,-1.8781,-1.8781,-1.8781,-1.8781,-1.8781,-1.8781,-1.8781,-1.8781,-2.8618,-2.8618,-2.8618,-2.8794,-2.9052,-2.8918,-2.8845,-2.8763,-2.8369,-2.7997,-2.7738,-2.7521,-2.7479,-2.7417,-2.7434,-2.732,-2.732,-2.732,-2.732,-2.732,-2.732,-2.732,-2.732,-2.732,-2.732,-2.732,-2.732,-2.732,-2.732,-2.732,-2.732,-2.732,-2.732,-2.732,-2.732,-2.732,-2.732,-2.732,-2.732,-2.732,-2.732,-2.732,-2.732,-2.732,-2.732,-2.7216,-2.7019,-2.6822,-2.5845,-2.441,-2.3466,-2.2354,-2.1128,-2.0176,-1.9957,-1.9877,-1.9622,-1.9256,-1.9098,-1.8813,-1.8789,-1.8781,-1.8781,-1.8781,-1.8781,-1.8781,-1.8781,-1.8781,-1.8781,-1.8781,-1.8781,-1.8781,-1.8781,-1.8781,-1.8781,-1.8781,-1.8781,-1.8781,-1.8781,-1.8781,-1.8781,-1.8781,-1.8781,-1.8781,-1.8781,-1.8781,-1.8781,-1.8781,-1.8781,-1.8781,-1.8781,-1.8781,-1.8781,-1.8781,-1.8781,-1.8781,-1.8781,-1.8781,-1.8781,-1.8781,-1.8781,-1.8781,-1.8781,-1.8781,-1.8781,-1.8781,-1.8781,-1.8781,-1.8781,-1.8781,-1.8781,-1.8781,-1.8781,-1.8781,-1.8781,-2.8142,-2.8152,-2.8152,-2.8142,-2.8173,-2.8297,-2.8297,-2.811,-2.7821,-2.7521,-2.7361,-2.733,-2.733,-2.733,-2.732,-2.732,-2.732,-2.732,-2.732,-2.732,-2.732,-2.732,-2.732,-2.732,-2.732,-2.732,-2.732,-2.732,-2.732,-2.732,-2.732,-2.732,-2.732,-2.732,-2.732,-2.732,-2.732,-2.732,-2.732,-2.732,-2.732,-2.732,-2.732,-2.732,-2.732,-2.7299,-2.7226,-2.6814,-2.6259,-2.4899,-2.3743,-2.2745,-2.1553,-2.0654,-2.0416,-2.0138,-1.9829,-1.9368,-1.8986,-1.8797,-1.8781,-1.8781,-1.8781,-1.8781,-1.8781,-1.8781,-1.8781,-1.8781,-1.8781,-1.8781,-1.8781,-1.8781,-1.8781,-1.8781,-1.8781,-1.8781,-1.8781,-1.8781,-1.8781,-1.8781,-1.8781,-1.8781,-1.8781,-1.8781,-1.8781,-1.8781,-1.8781,-1.8781,-1.8781,-1.8781,-1.8781,-1.8781,-1.8781,-1.8781,-1.8781,-1.8781,-1.8781,-1.8781,-1.8781,-1.8781,-1.8781,-1.8781,-1.8781,-1.8781,-1.8781,-1.8781,-1.8781,-1.8781,-1.8781,-1.8781,-1.8781,-1.8781,-1.8781,-1.8781,-1.8781,-2.733,-2.732,-2.732,-2.7361,-2.7413,-2.7748,-2.7676,-2.7351,-2.734,-2.733,-2.732,-2.732,-2.732,-2.732,-2.732,-2.732,-2.732,-2.732,-2.732,-2.732,-2.732,-2.732,-2.732,-2.732,-2.732,-2.732,-2.732,-2.732,-2.732,-2.732,-2.732,-2.732,-2.732,-2.732,-2.732,-2.732,-2.732,-2.732,-2.732,-2.732,-2.732,-2.732,-2.732,-2.732,-2.732,-2.732,-2.7289,-2.7132,-2.7026,-2.6184,-2.5198,-2.4368,-2.3308,-2.1996,-2.1302,-2.0662,-2.0106,-1.9534,-1.897,-1.8789,-1.8781,-1.8781,-1.8781,-1.8781,-1.8781,-1.8781,-1.8781,-1.8781,-1.8781,-1.8781,-1.8781,-1.8781,-1.8781,-1.8781,-1.8781,-1.8781,-1.8781,-1.8781,-1.8781,-1.8781,-1.8781,-1.8781,-1.8781,-1.8781,-1.8781,-1.8781,-1.8781,-1.8781,-1.8781,-1.8781,-1.8781,-1.8781,-1.8781,-1.8781,-1.8781,-1.8781,-1.8781,-1.8781,-1.8781,-1.8781,-1.8781,-1.8781,-1.8781,-1.8781,-1.8781,-1.8781,-1.8781,-1.8781,-1.8781,-1.8781,-1.8781,-1.8781,-1.8781,-1.8781,-1.8781,-2.732,-2.732,-2.732,-2.732,-2.733,-2.7455,-2.7413,-2.732,-2.732,-2.732,-2.732,-2.732,-2.732,-2.732,-2.732,-2.732,-2.732,-2.732,-2.732,-2.732,-2.732,-2.732,-2.732,-2.732,-2.732,-2.732,-2.732,-2.732,-2.732,-2.732,-2.732,-2.732,-2.732,-2.732,-2.732,-2.732,-2.732,-2.732,-2.732,-2.732,-2.732,-2.732,-2.732,-2.732,-2.732,-2.732,-2.732,-2.732,-2.7071,-2.6081,-2.5635,-2.4796,-2.2811,-2.2291,-2.1753,-2.0301,-1.9917,-1.9622,-1.8986,-1.8781,-1.8781,-1.8781,-1.8781,-1.8781,-1.8781,-1.8781,-1.8781,-1.8781,-1.8781,-1.8781,-1.8781,-1.8781,-1.8781,-1.8781,-1.8781,-1.8781,-1.8781,-1.8781,-1.8781,-1.8781,-1.8781,-1.8781,-1.8781,-1.8781,-1.8781,-1.8781,-1.8781,-1.8781,-1.8781,-1.8781,-1.8781,-1.8781,-1.8781,-1.8781,-1.8781,-1.8781,-1.8781,-1.8781,-1.8781,-1.8781,-1.8781,-1.8781,-1.8781,-1.8781,-1.8781,-1.8781,-1.8781,-1.8781,-1.8781,-1.8781,-1.8781,-1.8781,-1.8781,-1.8781,-1.8781,-2.732,-2.732,-2.732,-2.732,-2.732,-2.732,-2.732,-2.732,-2.732,-2.732,-2.732,-2.732,-2.732,-2.732,-2.732,-2.732,-2.732,-2.732,-2.732,-2.732,-2.732,-2.732,-2.732,-2.732,-2.732,-2.732,-2.732,-2.732,-2.732,-2.732,-2.732,-2.732,-2.732,-2.732,-2.732,-2.732,-2.732,-2.732,-2.732,-2.732,-2.732,-2.732,-2.732,-2.732,-2.732,-2.732,-2.732,-2.732,-2.6918,-2.6284,-2.6129,-2.4943,-2.3059,-2.2322,-2.1346,-2.002,-1.9757,-1.9383,-1.8939,-1.8781,-1.8781,-1.8781,-1.8781,-1.8781,-1.8781,-1.8781,-1.8781,-1.8781,-1.8781,-1.8781,-1.8781,-1.8781,-1.8781,-1.8781,-1.8781,-1.8781,-1.8781,-1.8781,-1.8781,-1.8781,-1.8781,-1.8781,-1.8781,-1.8781,-1.8781,-1.8781,-1.8781,-1.8781,-1.8781,-1.8781,-1.8781,-1.8781,-1.8781,-1.8781,-1.8781,-1.8781,-1.8781,-1.8781,-1.8781,-1.8781,-1.8781,-1.8781,-1.8781,-1.8781,-1.8781,-1.8781,-1.8781,-1.8781,-1.8781,-1.8781,-1.8781,-1.8781,-1.8781,-1.8781,-1.8781,-2.732,-2.732,-2.732,-2.732,-2.732,-2.732,-2.732,-2.732,-2.732,-2.732,-2.732,-2.732,-2.732,-2.732,-2.732,-2.732,-2.732,-2.732,-2.732,-2.732,-2.732,-2.732,-2.732,-2.732,-2.732,-2.732,-2.732,-2.732,-2.732,-2.732,-2.732,-2.732,-2.732,-2.732,-2.732,-2.732,-2.732,-2.732,-2.732,-2.732,-2.732,-2.732,-2.732,-2.732,-2.732,-2.732,-2.732,-2.732,-2.732,-2.6928,-2.6428,-2.5382,-2.3741,-2.1828,-2.0637,-2.0005,-1.9662,-1.9248,-1.8962,-1.8781,-1.8781,-1.8781,-1.8781,-1.8781,-1.8781,-1.8781,-1.8781,-1.8781,-1.8781,-1.8781,-1.8781,-1.8781,-1.8781,-1.8781,-1.8781,-1.8781,-1.8781,-1.8781,-1.8781,-1.8781,-1.8781,-1.8781,-1.8781,-1.8781,-1.8781,-1.8781,-1.8781,-1.8781,-1.8781,-1.8781,-1.8781,-1.8781,-1.8781,-1.8781,-1.8781,-1.8781,-1.8781,-1.8781,-1.8781,-1.8781,-1.8781,-1.8781,-1.8781,-1.8781,-1.8781,-1.8781,-1.8781,-1.8781,-1.8781,-1.8781,-1.8781,-1.8781,-1.8781,-1.8781,-1.8781,-2.732,-2.732,-2.732,-2.732,-2.732,-2.732,-2.732,-2.732,-2.732,-2.732,-2.732,-2.732,-2.732,-2.732,-2.732,-2.732,-2.732,-2.732,-2.732,-2.732,-2.732,-2.732,-2.732,-2.732,-2.732,-2.732,-2.732,-2.732,-2.732,-2.732,-2.732,-2.732,-2.732,-2.732,-2.732,-2.732,-2.732,-2.732,-2.732,-2.732,-2.732,-2.732,-2.732,-2.732,-2.732,-2.732,-2.732,-2.732,-2.732,-2.7167,-2.7119,-2.5926,-2.4168,-2.1736,-2.0424,-1.9933,-1.9582,-1.9169,-1.8947,-1.8781,-1.8781,-1.8781,-1.8781,-1.8781,-1.8781,-1.8781,-1.8781,-1.8781,-1.8781,-1.8781,-1.8781,-1.8781,-1.8781,-1.8781,-1.8781,-1.8781,-1.8781,-1.8781,-1.8781,-1.8781,-1.8781,-1.8781,-1.8781,-1.8781,-1.8781,-1.8781,-1.8781,-1.8781,-1.8781,-1.8781,-1.8781,-1.8781,-1.8781,-1.8781,-1.8781,-1.8781,-1.8781,-1.8781,-1.8781,-1.8781,-1.8781,-1.8781,-1.8781,-1.8781,-1.8781,-1.8781,-1.8781,-1.8781,-1.8781,-1.8781,-1.8781,-1.8781,-1.8781,-1.8781,-1.8781,-2.732,-2.732,-2.732,-2.732,-2.732,-2.732,-2.732,-2.732,-2.732,-2.732,-2.732,-2.732,-2.732,-2.732,-2.732,-2.732,-2.732,-2.732,-2.732,-2.732,-2.732,-2.732,-2.732,-2.732,-2.732,-2.732,-2.732,-2.732,-2.732,-2.732,-2.732,-2.732,-2.732,-2.732,-2.732,-2.732,-2.732,-2.732,-2.732,-2.732,-2.732,-2.732,-2.732,-2.732,-2.732,-2.732,-2.732,-2.732,-2.732,-2.687,-2.6322,-2.547,-2.3686,-2.1576,-2.0287,-1.9781,-1.9431,-1.905,-1.8891,-1.8781,-1.8781,-1.8781,-1.8781,-1.8781,-1.8781,-1.8781,-1.8781,-1.8781,-1.8781,-1.8781,-1.8781,-1.8781,-1.8781,-1.8781,-1.8781,-1.8781,-1.8781,-1.8781,-1.8781,-1.8781,-1.8781,-1.8781,-1.8781,-1.8781,-1.8781,-1.8781,-1.8781,-1.8781,-1.8781,-1.8781,-1.8781,-1.8781,-1.8781,-1.8781,-1.8781,-1.8781,-1.8781,-1.8781,-1.8781,-1.8781,-1.8781,-1.8781,-1.8781,-1.8781,-1.8781,-1.8781,-1.8781,-1.8781,-1.8781,-1.8781,-1.8781,-1.8781,-1.8781,-1.8781,-1.8781,-2.732,-2.732,-2.732,-2.732,-2.732,-2.732,-2.732,-2.732,-2.732,-2.732,-2.732,-2.732,-2.732,-2.732,-2.732,-2.732,-2.732,-2.732,-2.732,-2.732,-2.732,-2.732,-2.732,-2.732,-2.732,-2.732,-2.732,-2.732,-2.732,-2.732,-2.732,-2.732,-2.732,-2.732,-2.732,-2.732,-2.732,-2.732,-2.732,-2.732,-2.732,-2.732,-2.732,-2.732,-2.732,-2.732,-2.732,-2.732,-2.732,-2.6716,-2.5771,-2.4835,-2.3644,-2.1818,-2.0614,-1.9862,-1.9248,-1.8962,-1.8781,-1.8781,-1.8781,-1.8781,-1.8781,-1.8781,-1.8781,-1.8781,-1.8781,-1.8874,-1.8874,-1.8827,-1.8827,-1.8781,-1.8781,-1.8781,-1.8781,-1.8781,-1.8781,-1.8781,-1.8781,-1.8781,-1.8781,-1.8781,-1.8781,-1.8781,-1.8781,-1.8781,-1.8781,-1.8781,-1.8781,-1.8781,-1.8781,-1.8781,-1.8781,-1.8781,-1.8781,-1.8781,-1.8781,-1.8781,-1.8781,-1.8781,-1.8781,-1.8781,-1.8781,-1.8781,-1.8781,-1.8781,-1.8781,-1.8781,-1.8781,-1.8781,-1.8781,-1.8781,-1.8781,-1.8781,-1.8781,-2.732,-2.732,-2.732,-2.732,-2.732,-2.732,-2.732,-2.732,-2.732,-2.732,-2.732,-2.732,-2.732,-2.732,-2.732,-2.732,-2.732,-2.732,-2.732,-2.732,-2.732,-2.732,-2.732,-2.732,-2.732,-2.732,-2.732,-2.732,-2.732,-2.732,-2.732,-2.732,-2.732,-2.732,-2.732,-2.732,-2.732,-2.732,-2.732,-2.732,-2.732,-2.732,-2.732,-2.732,-2.732,-2.732,-2.732,-2.732,-2.732,-2.6918,-2.6081,-2.5031,-2.3773,-2.232,-2.096,-2.003,-1.9397,-1.8915,-1.8781,-1.8781,-1.8781,-1.8781,-1.8781,-1.8781,-1.8781,-1.8781,-1.892,-1.9188,-1.9142,-1.8966,-1.892,-1.8827,-1.8781,-1.8781,-1.8781,-1.8781,-1.8781,-1.8781,-1.8781,-1.8781,-1.8781,-1.8781,-1.8781,-1.8781,-1.8781,-1.8781,-1.8781,-1.8781,-1.8781,-1.8781,-1.8781,-1.8781,-1.8781,-1.8781,-1.8781,-1.8781,-1.8781,-1.8781,-1.8781,-1.8781,-1.8781,-1.8781,-1.8781,-1.8781,-1.8781,-1.8781,-1.8781,-1.8781,-1.8781,-1.8781,-1.8781,-1.8781,-1.8781,-1.8781,-1.8781]},{"header":{"parameterUnit":"m.s-1","parameterCategory":1,"la1":31.0,"la2":29.5877,"lo1":-88.7671,"lo2":-86.6584,"dy":0.0162,"dx":0.0185,"nx":115,"ny":88,"refTime":"2023-06-27T18:00:00:Z","depth":0,"parameterNumber":3,"parameterNumberName":"V-component_of_WINDS"},"data":[0.0,0.0,0.0,0.0,0.0,0.0,0.0,0.0,0.0,0.0,0.0,0.0,0.0,0.0,0.0,0.0,0.0,0.0,0.0,0.0,0.0,0.0,0.0,0.0,0.0,0.0,0.0,0.0,0.0,0.0,0.0,0.0,0.0,0.0,0.0,0.0,0.0,0.0,0.0,0.0,0.0,0.0,0.0,0.0,0.0,0.0,0.0,0.0,0.0,0.0,0.0,0.0,0.0,0.0,0.0,0.0,0.0,0.0,0.0,0.0,0.0,0.0,0.0,0.0,0.0,0.0,0.0,0.0,0.0,0.0,0.0,0.0,0.0,0.0,0.0,0.0,0.0,0.0,0.0,0.0,0.0,0.0,0.0,0.0,0.0,0.0,0.0,0.0,0.0,0.0,0.0,0.0,0.0,0.0,0.0,0.0,0.0,0.0,0.0,0.0,0.0,0.0,0.0,0.0,0.0,0.0,0.0,0.0,0.0,0.0,0.0,0.0,0.0,0.0,0.0,0.0,0.0,0.0,0.0,0.0,0.0,0.0,0.0,0.0,0.0,0.0,0.0,0.0,0.0,0.0,0.0,0.0,0.0,0.0,0.0,0.0,0.0,0.0,0.0,0.0,0.0,0.0,0.0,0.0,0.0,0.0,0.0,0.0,0.0,0.0,0.0,0.0,0.0,0.0,0.0,0.0,0.0,0.0,0.0,0.0,0.0,0.0,0.0,0.0,0.0,0.0,0.0,0.0,0.0,0.0,0.0,0.0,0.0,0.0,0.0,0.0,0.0,0.0,0.0,0.0,0.0,0.0,0.0,0.0,0.0,0.0,0.0,0.0,0.0,0.0,0.0,0.0,0.0,0.0,0.0,0.0,0.0,0.0,0.0,0.0,0.0,0.0,0.0,0.0,0.0,0.0,0.0,0.0,0.0,0.0,0.0,0.0,0.0,0.0,0.0,0.0,0.0,0.0,0.0,0.0,0.0,0.0,0.0,0.0,0.0,0.0,0.0,0.0,0.0,0.0,0.0,0.0,0.0,0.0,0.0,0.0,0.0,0.0,0.0,0.0,0.0,0.0,0.0,0.0,0.0,0.0,0.0,0.0,0.0,0.0,0.0,0.0,0.0,0.0,0.0,0.0,0.0,0.0,0.0,0.0,0.0,0.0,0.0,0.0,0.0,0.0,0.0,0.0,0.0,0.0,0.0,0.0,0.0,0.0,0.0,0.0,0.0,0.0,0.0,0.0,0.0,0.0,0.0,0.0,0.0,0.0,0.0,0.0,0.0,0.0,0.0,0.0,0.0,0.0,0.0,0.0,0.0,0.0,0.0,0.0,0.0,0.0,0.0,0.0,0.0,0.0,0.0,0.0,0.0,0.0,0.0,0.0,0.0,0.0,0.0,0.0,0.0,0.0,0.0,0.0,0.0,0.0,0.0,0.0,0.0,0.0,0.0,0.0,0.0,0.0,0.0,0.0,0.0,0.0,0.0,0.0,0.0,0.0,0.0,0.0,0.0,0.0,0.0,0.0,0.0,0.0,0.0,0.0,0.0,0.0,0.0,0.0,0.0,0.0,0.0,0.0,0.0,0.0,0.0,0.0,0.0,0.0,0.0,0.0,0.0,0.0,0.0,0.0,0.0,0.0,0.0,0.0,0.0,0.0,0.0,0.0,0.0,0.0,0.0,0.0,0.0,0.0,0.0,0.0,0.0,0.0,0.0,0.0,0.0,0.0,0.0,0.0,0.0,0.0,0.0,0.0,0.0,0.0,0.0,0.0,0.0,0.0,0.0,0.0,0.0,0.0,0.0,0.0,0.0,0.0,0.0,0.0,0.0,0.0,0.0,0.0,0.0,0.0,0.0,0.0,0.0,0.0,0.0,0.0,0.0,0.0,0.0,0.0,0.0,0.0,0.0,0.0,0.0,0.0,0.0,0.0,0.0,0.0,0.0,0.0,0.0,0.0,0.0,0.0,0.0,0.0,0.0,0.0,0.0,0.0,0.0,0.0,0.0,0.0,0.0,0.0,0.0,0.0,0.0,0.0,0.0,0.0,0.0,0.0,0.0,0.0,0.0,0.0,0.0,0.0,0.0,0.0,0.0,0.0,0.0,0.0,0.0,0.0,0.0,0.0,0.0,0.0,0.0,0.0,0.0,0.0,0.0,0.0,0.0,0.0,0.0,0.0,0.0,0.0,0.0,0.0,0.0,0.0,0.0,0.0,0.0,0.0,0.0,0.0,0.0,0.0,0.0,0.0,0.0,0.0,0.0,0.0,0.0,0.0,0.0,0.0,0.0,0.0,0.0,0.0,0.0,0.0,0.0,0.0,0.0,0.0,0.0,0.0,0.0,0.0,0.0,0.0,0.0,0.0,0.0,0.0,0.0,0.0,0.0,0.0,0.0,0.0,0.0,0.0,0.0,0.0,0.0,0.0,0.0,0.0,0.0,0.0,0.0,0.0,0.0,0.0,0.0,0.0,0.0,0.0,0.0,0.0,0.0,0.0,0.0,0.0,0.0,0.0,0.0,0.0,0.0,0.0,0.0,0.0,0.0,0.0,0.0,0.0,0.0,0.0,0.0,0.0,0.0,0.0,0.0,0.0,0.0,0.0,0.0,0.0,0.0,0.0,0.0,0.0,0.0,0.0,0.0,0.0,0.0,0.0,0.0,0.0,0.0,0.0,0.0,0.0,0.0,0.0,0.0,0.0,0.0,0.0,0.0,0.0,0.0,0.0,0.0,0.0,0.0,0.0,0.0,0.0,0.0,0.0,0.0,0.0,0.0,0.0,0.0,0.0,0.0,0.0,0.0,0.0,0.0,0.0,0.0,0.0,0.0,0.0,0.0,0.0,0.0,0.0,0.0,0.0,0.0,0.0,0.0,0.0,0.0,0.0,0.0,0.0,0.0,0.0,0.0,0.0,0.0,0.0,0.0,0.0,0.0,0.0,0.0,0.0,0.0,0.0,0.0,0.0,0.0,0.0,0.0,0.0,0.0,0.0,0.0,0.0,0.0,0.0,0.0,0.0,0.0,0.0,0.0,0.0,0.0,0.0,0.0,0.0,0.0,0.0,0.0,0.0,0.0,0.0,0.0,0.0,0.0,0.0,0.0,0.0,0.0,0.0,0.0,0.0,0.0,0.0,0.0,0.0,0.0,0.0,0.0,0.0,0.0,0.0,0.0,0.0,0.0,0.0,0.0,0.0,0.0,0.0,0.0,0.0,0.0,0.0,0.0,0.0,0.0,0.0,0.0,0.0,0.0,0.0,0.0,0.0,0.0,0.0,0.0,0.0,0.0,0.0,0.0,0.0,0.0,0.0,0.0,0.0,0.0,0.0,0.0,0.0,0.0,0.0,0.0,0.0,0.0,0.0,0.0,0.0,0.0,0.0,0.0,0.0,0.0,0.0,0.0,0.0,0.0,0.0,0.0,0.0,0.0,0.0,0.0,0.0,0.0,0.0,0.0,0.0,0.0,0.0,0.0,0.0,0.0,0.0,0.0,0.0,0.0,0.0,0.0,0.0,0.0,0.0,0.0,0.0,0.0,0.0,0.0,0.0,0.0,0.0,0.0,0.0,0.0,0.0,0.0,0.0,0.0,0.0,0.0,0.0,0.0,0.0,0.0,0.0,0.0,0.0,0.0,0.0,0.0,0.0,0.0,0.0,0.0,0.0,0.0,0.0,0.0,0.0,0.0,0.0,0.0,0.0,0.0,0.0,0.0,0.0,0.0,0.0,0.0,0.0,0.0,0.0,0.0,0.0,0.0,0.0,0.0,0.0,0.0,0.0,0.0,0.0,0.0,0.0,0.0,0.0,0.0,0.0,0.0,0.0,0.0,0.0,0.0,0.0,0.0,0.0,0.0,0.0,0.0,0.0,0.0,0.0,0.0,0.0,0.0,0.0,0.0,0.0,0.0,0.0,0.0,0.0,0.0,0.0,0.0,0.0,0.0,0.0,0.0,0.0,0.0,0.0,0.0,0.0,0.0,0.0,0.0,0.0,0.0,0.0,0.0,0.0,0.0,0.0,0.0,0.0,0.0,0.0,0.0,0.0,0.0,0.0,0.0,0.0,0.0,0.0,0.0,0.0,0.0,0.0,0.0,0.0,0.0,0.0,0.0,0.0,0.0,0.0,0.0,0.0,0.0,0.0,0.0,0.0,0.0,0.0,0.0,0.0,0.0,0.0,0.0,0.0,0.0,0.0,0.0,0.0,0.0,0.0,0.0,0.0,0.0,0.0,0.0,0.0,0.0,0.0,0.0,0.0,0.0,0.0,0.0,0.0,-1.7423,0.0,0.0,0.0,0.0,0.0,0.0,0.0,0.0,0.0,0.0,0.0,0.0,0.0,0.0,0.0,0.0,0.0,0.0,0.0,0.0,0.0,0.0,0.0,0.0,0.0,0.0,0.0,0.0,0.0,0.0,0.0,0.0,0.0,0.0,0.0,0.0,0.0,0.0,0.0,0.0,0.0,0.0,0.0,0.0,0.0,0.0,0.0,0.0,0.0,0.0,0.0,0.0,0.0,0.0,0.0,0.0,0.0,0.0,0.0,0.0,0.0,0.0,0.0,0.0,0.0,0.0,0.0,0.0,0.0,0.0,0.0,0.0,0.0,0.0,0.0,0.0,0.0,0.0,0.0,0.0,0.0,0.0,0.0,0.0,0.0,0.0,0.0,0.0,0.0,0.0,0.0,0.0,0.0,0.0,0.0,0.0,0.0,0.0,0.0,0.0,0.0,0.0,0.0,0.0,0.0,0.0,0.0,0.0,0.0,0.0,-1.7314,-1.7314,-1.7407,-1.7455,-1.7455,0.0,0.0,0.0,0.0,0.0,0.0,0.0,0.0,0.0,0.0,0.0,0.0,0.0,0.0,0.0,0.0,0.0,0.0,0.0,0.0,0.0,0.0,0.0,0.0,0.0,0.0,0.0,0.0,0.0,0.0,0.0,0.0,0.0,0.0,0.0,0.0,0.0,0.0,0.0,0.0,0.0,0.0,0.0,0.0,0.0,0.0,0.0,0.0,0.0,0.0,0.0,0.0,0.0,0.0,0.0,0.0,0.0,0.0,0.0,0.0,0.0,0.0,0.0,0.0,0.0,0.0,0.0,0.0,0.0,0.0,0.0,0.0,0.0,0.0,0.0,0.0,0.0,0.0,0.0,0.0,0.0,0.0,0.0,0.0,0.0,0.0,0.0,0.0,0.0,0.0,0.0,0.0,0.0,0.0,0.0,0.0,0.0,0.0,0.0,0.0,0.0,0.0,0.0,0.0,0.0,0.0,0.0,0.0,0.0,0.0,0.0,0.0,-1.7479,-1.7486,-1.7486,0.0,0.0,0.0,0.0,0.0,0.0,0.0,0.0,0.0,0.0,0.0,0.0,0.0,0.0,0.0,0.0,0.0,0.0,0.0,0.0,0.0,0.0,0.0,0.0,0.0,0.0,0.0,0.0,0.0,0.0,0.0,0.0,0.0,0.0,0.0,0.0,0.0,0.0,0.0,0.0,0.0,0.0,0.0,0.0,0.0,0.0,0.0,0.0,0.0,0.0,0.0,0.0,0.0,0.0,0.0,0.0,0.0,0.0,0.0,0.0,0.0,0.0,0.0,0.0,0.0,0.0,0.0,0.0,0.0,0.0,0.0,0.0,0.0,0.0,0.0,0.0,0.0,0.0,0.0,0.0,0.0,0.0,0.0,0.0,0.0,0.0,0.0,0.0,0.0,0.0,0.0,0.0,0.0,0.0,0.0,0.0,0.0,0.0,0.0,0.0,0.0,0.0,0.0,0.0,0.0,0.0,0.0,0.0,0.0,0.0,-1.7491,-1.7486,-1.7486,0.0,-1.7486,0.0,0.0,0.0,0.0,0.0,0.0,0.0,0.0,0.0,0.0,0.0,0.0,0.0,0.0,0.0,0.0,0.0,0.0,0.0,0.0,0.0,0.0,0.0,0.0,0.0,0.0,0.0,0.0,0.0,0.0,0.0,0.0,0.0,0.0,0.0,0.0,0.0,0.0,0.0,0.0,0.0,0.0,0.0,0.0,0.0,0.0,0.0,0.0,0.0,0.0,0.0,0.0,0.0,0.0,0.0,0.0,0.0,0.0,0.0,0.0,0.0,0.0,0.0,0.0,0.0,0.0,0.0,0.0,0.0,0.0,0.0,0.0,0.0,0.0,0.0,0.0,0.0,0.0,0.0,0.0,0.0,0.0,0.0,0.0,0.0,0.0,0.0,0.0,0.0,0.0,0.0,0.0,0.0,0.0,0.0,0.0,0.0,0.0,0.0,0.0,0.0,0.0,0.0,0.0,0.0,0.0,0.0,0.0,0.0,0.0,-1.7486,-1.7486,-1.7486,-1.7486,0.0,0.0,0.0,0.0,0.0,0.0,0.0,0.0,0.0,0.0,0.0,0.0,0.0,0.0,0.0,0.0,0.0,0.0,0.0,0.0,0.0,0.0,0.0,0.0,0.0,0.0,0.0,0.0,0.0,0.0,0.0,0.0,0.0,0.0,0.0,0.0,0.0,0.0,0.0,0.0,0.0,0.0,0.0,0.0,0.0,0.0,0.0,0.0,0.0,0.0,0.0,0.0,0.0,0.0,0.0,0.0,0.0,0.0,0.0,0.0,0.0,0.0,0.0,0.0,0.0,0.0,0.0,0.0,0.0,0.0,0.0,0.0,0.0,0.0,0.0,0.0,0.0,0.0,0.0,0.0,0.0,0.0,0.0,0.0,0.0,0.0,0.0,0.0,0.0,0.0,0.0,0.0,0.0,0.0,0.0,0.0,0.0,0.0,0.0,0.0,0.0,0.0,0.0,0.0,0.0,0.0,0.0,0.0,0.0,0.0,-1.7486,-1.7486,-1.7486,-1.7486,-1.7486,-1.7486,0.0,0.0,0.0,0.0,0.0,0.0,0.0,0.0,0.0,0.0,0.0,0.0,0.0,0.0,0.0,0.0,0.0,0.0,0.0,0.0,0.0,0.0,0.0,0.0,0.0,0.0,0.0,0.0,0.0,0.0,0.0,0.0,0.0,0.0,0.0,0.0,0.0,0.0,0.0,0.0,0.0,0.0,0.0,0.0,0.0,0.0,0.0,0.0,0.0,0.0,0.0,0.0,0.0,0.0,0.0,0.0,0.0,0.0,0.0,0.0,0.0,0.0,0.0,0.0,0.0,0.0,0.0,0.0,0.0,0.0,0.0,0.0,0.0,0.0,0.0,0.0,0.0,0.0,0.0,0.0,0.0,0.0,0.0,0.0,0.0,0.0,0.0,0.0,0.0,0.0,0.0,0.0,0.0,0.0,0.0,0.0,0.0,0.0,0.0,0.0,0.0,0.0,0.0,0.0,0.0,0.0,0.0,0.0,-1.7486,-1.7486,-1.7486,-1.7486,-1.7486,-1.7486,0.0,0.0,0.0,0.0,0.0,0.0,0.0,0.0,0.0,0.0,0.0,0.0,0.0,0.0,0.0,0.0,0.0,0.0,0.0,0.0,0.0,0.0,0.0,0.0,0.0,0.0,0.0,0.0,0.0,0.0,0.0,0.0,0.0,0.0,0.0,0.0,0.0,0.0,0.0,0.0,0.0,0.0,0.0,0.0,0.0,0.0,0.0,0.0,0.0,0.0,0.0,0.0,0.0,0.0,0.0,0.0,0.0,0.0,0.0,0.0,0.0,0.0,0.0,0.0,0.0,0.0,0.0,0.0,0.0,0.0,0.0,0.0,0.0,0.0,0.0,0.0,0.0,0.0,0.0,0.0,0.0,0.0,0.0,0.0,0.0,0.0,0.0,0.0,0.0,0.0,0.0,0.0,0.0,0.0,0.0,0.0,0.0,0.0,0.0,0.0,0.0,0.0,0.0,0.0,0.0,0.0,0.0,0.0,0.0,-1.7505,-1.7482,-1.7486,-1.7486,-1.7486,-1.7486,0.0,0.0,0.0,0.0,0.0,0.0,0.0,0.0,0.0,0.0,0.0,0.0,0.0,0.0,0.0,0.0,0.0,0.0,0.0,0.0,0.0,0.0,0.0,0.0,0.0,0.0,0.0,0.0,0.0,0.0,0.0,0.0,0.0,0.0,0.0,0.0,0.0,0.0,0.0,0.0,0.0,0.0,0.0,0.0,0.0,0.0,0.0,0.0,0.0,0.0,0.0,0.0,0.0,0.0,0.0,0.0,0.0,0.0,0.0,0.0,0.0,0.0,0.0,0.0,0.0,0.0,0.0,0.0,0.0,0.0,0.0,0.0,0.0,0.0,0.0,0.0,0.0,0.0,0.0,0.0,0.0,0.0,0.0,0.0,0.0,0.0,0.0,0.0,0.0,0.0,0.0,0.0,0.0,0.0,0.0,0.0,0.0,0.0,0.0,0.0,0.0,0.0,0.0,0.0,0.0,0.0,0.0,0.0,0.0,-1.7489,0.0,-1.7486,-1.7486,-1.7486,-1.7486,0.0,0.0,0.0,0.0,0.0,0.0,0.0,0.0,0.0,0.0,0.0,0.0,0.0,0.0,0.0,0.0,0.0,0.0,0.0,0.0,0.0,0.0,0.0,0.0,0.0,0.0,0.0,0.0,0.0,0.0,0.0,0.0,0.0,0.0,0.0,0.0,0.0,0.0,0.0,0.0,0.0,0.0,0.0,0.0,0.0,0.0,0.0,0.0,0.0,0.0,0.0,0.0,0.0,0.0,0.0,0.0,0.0,0.0,0.0,0.0,0.0,0.0,0.0,0.0,0.0,0.0,0.0,0.0,0.0,0.0,0.0,0.0,0.0,0.0,0.0,0.0,0.0,0.0,0.0,0.0,0.0,0.0,0.0,0.0,0.0,0.0,0.0,0.0,0.0,0.0,0.0,0.0,0.0,0.0,0.0,0.0,0.0,0.0,0.0,0.0,0.0,0.0,0.0,0.0,0.0,0.0,0.0,0.0,-1.7571,-1.7498,-1.7486,-1.7486,-1.7486,-1.7486,-1.7486,0.0,0.0,0.0,0.0,0.0,0.0,0.0,0.0,0.0,0.0,0.0,0.0,0.0,0.0,0.0,0.0,0.0,0.0,0.0,0.0,0.0,0.0,0.0,0.0,0.0,0.0,0.0,0.0,0.0,0.0,0.0,0.0,0.0,0.0,0.0,0.0,0.0,0.0,0.0,0.0,0.0,0.0,0.0,0.0,0.0,0.0,0.0,0.0,0.0,0.0,0.0,0.0,0.0,0.0,0.0,0.0,0.0,0.0,0.0,0.0,0.0,0.0,0.0,0.0,0.0,0.0,0.0,0.0,0.0,0.0,0.0,0.0,0.0,0.0,0.0,0.0,0.0,0.0,0.0,0.0,0.0,0.0,0.0,0.0,0.0,0.0,0.0,0.0,0.0,0.0,0.0,0.0,0.0,0.0,0.0,0.0,0.0,0.0,0.0,0.0,0.0,0.0,0.0,0.0,0.0,0.0,0.0,0.0,0.0,-1.7522,-1.7482,-1.7486,-1.7486,-1.7486,-1.7486,0.0,0.0,0.0,0.0,0.0,0.0,0.0,0.0,0.0,0.0,0.0,0.0,0.0,0.0,0.0,0.0,0.0,0.0,0.0,0.0,0.0,0.0,0.0,0.0,0.0,0.0,0.0,0.0,0.0,0.0,0.0,0.0,0.0,0.0,0.0,0.0,0.0,0.0,0.0,0.0,0.0,0.0,0.0,0.0,0.0,0.0,0.0,0.0,0.0,0.0,0.0,0.0,0.0,0.0,0.0,0.0,0.0,0.0,0.0,0.0,0.0,0.0,0.0,0.0,0.0,0.0,0.0,0.0,0.0,0.0,0.0,0.0,0.0,0.0,0.0,0.0,0.0,0.0,0.0,0.0,0.0,0.0,0.0,0.0,0.0,0.0,0.0,0.0,0.0,0.0,0.0,0.0,0.0,0.0,0.0,0.0,0.0,0.0,0.0,0.0,0.0,0.0,0.0,0.0,0.0,0.0,0.0,0.0,0.0,-1.8855,-1.8726,-1.868,-1.8696,-1.8431,-1.8153,-1.7872,0.0,0.0,0.0,0.0,0.0,0.0,0.0,0.0,0.0,0.0,0.0,0.0,0.0,0.0,0.0,0.0,0.0,0.0,0.0,0.0,0.0,0.0,0.0,0.0,0.0,0.0,0.0,0.0,0.0,0.0,0.0,0.0,0.0,0.0,0.0,0.0,0.0,0.0,0.0,0.0,0.0,0.0,0.0,0.0,0.0,0.0,0.0,0.0,0.0,0.0,0.0,0.0,0.0,0.0,0.0,0.0,0.0,0.0,0.0,0.0,0.0,0.0,0.0,0.0,0.0,0.0,0.0,0.0,0.0,0.0,0.0,0.0,0.0,0.0,0.0,0.0,0.0,0.0,0.0,0.0,0.0,0.0,0.0,0.0,0.0,0.0,0.0,0.0,0.0,0.0,0.0,0.0,0.0,0.0,0.0,0.0,0.0,0.0,0.0,0.0,0.0,0.0,0.0,0.0,0.0,0.0,0.0,0.0,-2.1269,-2.1198,-2.1024,-2.0718,-2.0011,-1.9336,0.0,0.0,0.0,0.0,0.0,0.0,0.0,0.0,0.0,0.0,0.0,0.0,0.0,0.0,0.0,0.0,0.0,0.0,0.0,0.0,0.0,0.0,0.0,0.0,0.0,0.0,0.0,0.0,0.0,0.0,0.0,0.0,0.0,0.0,0.0,0.0,0.0,0.0,0.0,0.0,0.0,0.0,0.0,0.0,0.0,0.0,0.0,0.0,0.0,0.0,0.0,0.0,0.0,0.0,0.0,0.0,0.0,0.0,0.0,0.0,0.0,0.0,0.0,0.0,0.0,0.0,0.0,0.0,0.0,0.0,0.0,0.0,0.0,0.0,0.0,0.0,0.0,0.0,0.0,0.0,0.0,0.0,0.0,0.0,0.0,0.0,0.0,0.0,0.0,0.0,0.0,0.0,0.0,0.0,0.0,0.0,0.0,0.0,0.0,0.0,0.0,0.0,0.0,0.0,0.0,0.0,0.0,0.0,0.0,-2.3526,-2.5372,-2.4834,-2.1659,-2.0787,-2.0337,0.0,0.0,0.0,0.0,0.0,0.0,0.0,0.0,0.0,0.0,0.0,0.0,0.0,0.0,0.0,0.0,0.0,0.0,0.0,0.0,0.0,0.0,0.0,0.0,0.0,0.0,0.0,0.0,0.0,0.0,0.0,0.0,0.0,0.0,0.0,0.0,0.0,0.0,0.0,0.0,0.0,0.0,0.0,0.0,0.0,0.0,0.0,0.0,0.0,0.0,0.0,0.0,0.0,0.0,0.0,0.0,0.0,0.0,0.0,0.0,0.0,0.0,0.0,0.0,0.0,0.0,0.0,0.0,0.0,0.0,0.0,0.0,0.0,0.0,0.0,0.0,0.0,0.0,0.0,0.0,0.0,0.0,0.0,0.0,0.0,0.0,0.0,0.0,0.0,0.0,0.0,0.0,0.0,0.0,0.0,0.0,0.0,0.0,0.0,0.0,0.0,0.0,0.0,0.0,0.0,0.0,0.0,0.0,-2.4988,-2.5212,-2.7593,-2.7615,-2.5082,-2.3319,-2.2178,0.0,0.0,0.0,0.0,0.0,0.0,0.0,0.0,0.0,0.0,0.0,0.0,0.0,0.0,0.0,0.0,0.0,0.0,0.0,0.0,0.0,0.0,0.0,0.0,0.0,0.0,0.0,0.0,0.0,0.0,0.0,0.0,0.0,0.0,0.0,0.0,0.0,0.0,0.0,0.0,0.0,0.0,0.0,0.0,0.0,0.0,0.0,0.0,0.0,0.0,0.0,0.0,0.0,0.0,0.0,0.0,0.0,0.0,0.0,0.0,0.0,0.0,0.0,0.0,0.0,0.0,0.0,0.0,0.0,0.0,0.0,0.0,0.0,0.0,0.0,0.0,0.0,0.0,0.0,0.0,0.0,0.0,0.0,0.0,0.0,0.0,0.0,0.0,0.0,0.0,0.0,0.0,0.0,0.0,0.0,0.0,0.0,0.0,0.0,0.0,0.0,0.0,0.0,0.0,0.0,0.0,0.0,0.0,-2.6472,-2.6796,-2.8769,-2.9781,-2.9644,-2.6553,-2.4379,0.0,0.0,0.0,0.0,0.0,0.0,0.0,0.0,0.0,0.0,0.0,0.0,0.0,0.0,0.0,0.0,0.0,0.0,0.0,0.0,0.0,0.0,0.0,0.0,0.0,0.0,0.0,0.0,0.0,0.0,0.0,0.0,0.0,0.0,0.0,0.0,0.0,0.0,0.0,0.0,0.0,0.0,0.0,0.0,0.0,0.0,0.0,0.0,0.0,0.0,0.0,0.0,0.0,0.0,0.0,0.0,0.0,0.0,0.0,0.0,0.0,0.0,0.0,0.0,0.0,0.0,0.0,0.0,0.0,0.0,0.0,0.0,0.0,0.0,0.0,0.0,0.0,0.0,0.0,0.0,0.0,0.0,0.0,0.0,0.0,0.0,0.0,0.0,0.0,0.0,0.0,0.0,0.0,0.0,0.0,0.0,0.0,0.0,0.0,0.0,0.0,0.0,0.0,0.0,0.0,0.0,0.0,0.0,-2.7975,-2.9226,-3.0948,-3.1672,-3.1305,-2.7584,-2.5475,0.0,0.0,0.0,0.0,0.0,0.0,0.0,0.0,0.0,0.0,0.0,0.0,0.0,0.0,0.0,0.0,0.0,0.0,0.0,0.0,0.0,0.0,0.0,0.0,0.0,0.0,0.0,0.0,0.0,0.0,0.0,0.0,0.0,0.0,0.0,0.0,0.0,0.0,0.0,0.0,0.0,0.0,0.0,0.0,0.0,0.0,0.0,0.0,-2.0706,0.0,0.0,0.0,0.0,0.0,0.0,0.0,0.0,0.0,0.0,0.0,0.0,0.0,0.0,0.0,0.0,0.0,0.0,0.0,0.0,0.0,0.0,0.0,0.0,0.0,0.0,0.0,0.0,0.0,0.0,0.0,0.0,0.0,0.0,0.0,0.0,0.0,0.0,0.0,0.0,0.0,0.0,0.0,0.0,0.0,0.0,0.0,0.0,0.0,0.0,0.0,0.0,0.0,0.0,0.0,0.0,0.0,0.0,0.0,-2.8752,-3.0353,-3.1969,-3.2588,-3.2091,-2.9422,-2.7492,0.0,0.0,0.0,0.0,0.0,0.0,0.0,0.0,0.0,0.0,0.0,0.0,0.0,0.0,0.0,0.0,0.0,0.0,0.0,0.0,0.0,0.0,0.0,0.0,0.0,0.0,0.0,0.0,0.0,0.0,0.0,0.0,0.0,0.0,0.0,0.0,0.0,0.0,0.0,0.0,0.0,0.0,0.0,0.0,0.0,0.0,0.0,0.0,0.0,0.0,0.0,0.0,0.0,0.0,0.0,0.0,0.0,0.0,0.0,0.0,0.0,0.0,0.0,0.0,0.0,0.0,0.0,0.0,0.0,0.0,0.0,0.0,0.0,0.0,0.0,0.0,0.0,0.0,0.0,0.0,0.0,0.0,0.0,0.0,0.0,0.0,0.0,0.0,0.0,0.0,0.0,0.0,0.0,0.0,0.0,0.0,0.0,0.0,0.0,0.0,0.0,0.0,0.0,0.0,0.0,0.0,0.0,-2.7731,-2.9317,-3.1132,-3.2388,-3.2896,-3.2653,-3.1333,-2.9543,-2.7296,0.0,0.0,0.0,0.0,0.0,0.0,0.0,0.0,0.0,0.0,0.0,0.0,0.0,0.0,0.0,0.0,0.0,0.0,0.0,0.0,0.0,0.0,0.0,0.0,0.0,0.0,0.0,0.0,0.0,0.0,0.0,0.0,0.0,0.0,0.0,0.0,0.0,0.0,-1.9219,-1.9829,0.0,0.0,0.0,0.0,0.0,0.0,0.0,0.0,-2.1308,0.0,0.0,0.0,0.0,0.0,0.0,0.0,0.0,0.0,0.0,0.0,0.0,0.0,0.0,0.0,0.0,0.0,0.0,0.0,0.0,0.0,0.0,0.0,0.0,0.0,0.0,0.0,0.0,0.0,0.0,0.0,0.0,0.0,0.0,0.0,0.0,0.0,0.0,0.0,0.0,0.0,0.0,0.0,0.0,0.0,0.0,0.0,0.0,0.0,0.0,0.0,0.0,0.0,0.0,0.0,0.0,-2.8052,-2.8631,-3.0196,-3.2793,-3.2741,-3.2784,-3.299,-3.2064,-3.0365,-2.7789,0.0,0.0,0.0,0.0,0.0,0.0,0.0,0.0,0.0,0.0,0.0,0.0,0.0,0.0,0.0,0.0,0.0,0.0,0.0,0.0,0.0,0.0,0.0,0.0,0.0,0.0,0.0,0.0,0.0,0.0,0.0,0.0,0.0,0.0,0.0,0.0,0.0,0.0,0.0,-2.086,-2.1246,0.0,0.0,0.0,0.0,0.0,0.0,0.0,0.0,-2.3691,0.0,0.0,0.0,0.0,0.0,0.0,0.0,0.0,0.0,0.0,0.0,0.0,0.0,0.0,0.0,0.0,0.0,0.0,0.0,0.0,0.0,0.0,0.0,0.0,0.0,0.0,0.0,0.0,0.0,0.0,0.0,0.0,0.0,0.0,0.0,0.0,0.0,0.0,0.0,0.0,0.0,0.0,0.0,0.0,0.0,0.0,0.0,0.0,0.0,0.0,0.0,0.0,0.0,0.0,0.0,-2.8495,-2.9529,-3.1124,-3.3247,-3.3106,-3.293,-3.286,-3.1843,-3.0157,0.0,0.0,0.0,0.0,0.0,0.0,0.0,0.0,0.0,0.0,0.0,0.0,0.0,0.0,0.0,0.0,0.0,0.0,0.0,0.0,0.0,0.0,0.0,0.0,0.0,0.0,0.0,0.0,0.0,0.0,0.0,0.0,0.0,0.0,0.0,0.0,0.0,0.0,0.0,0.0,-2.2754,-2.3323,-2.4104,0.0,0.0,0.0,0.0,0.0,0.0,-2.482,-2.459,0.0,0.0,0.0,0.0,0.0,0.0,0.0,0.0,0.0,0.0,0.0,0.0,0.0,0.0,0.0,0.0,0.0,0.0,0.0,0.0,0.0,0.0,0.0,0.0,0.0,0.0,0.0,0.0,0.0,0.0,0.0,0.0,0.0,0.0,0.0,0.0,0.0,0.0,0.0,0.0,0.0,0.0,0.0,0.0,0.0,0.0,0.0,0.0,0.0,0.0,0.0,0.0,0.0,0.0,0.0,-2.86,-3.0319,-3.1916,-3.3291,-3.3307,-3.3104,-3.2814,-3.136,-2.9669,0.0,0.0,0.0,0.0,0.0,0.0,0.0,0.0,0.0,0.0,0.0,0.0,0.0,0.0,0.0,0.0,0.0,0.0,0.0,0.0,0.0,0.0,0.0,0.0,0.0,0.0,0.0,0.0,0.0,0.0,0.0,0.0,0.0,0.0,0.0,0.0,0.0,0.0,0.0,0.0,0.0,-2.5297,-2.6031,-2.5512,0.0,0.0,0.0,0.0,-2.5572,-2.5823,0.0,0.0,0.0,0.0,0.0,0.0,0.0,0.0,0.0,0.0,0.0,0.0,0.0,0.0,0.0,0.0,0.0,0.0,0.0,0.0,0.0,0.0,0.0,0.0,0.0,0.0,0.0,0.0,0.0,0.0,0.0,0.0,0.0,0.0,0.0,0.0,0.0,0.0,0.0,0.0,0.0,0.0,0.0,0.0,0.0,0.0,0.0,0.0,0.0,0.0,0.0,0.0,0.0,0.0,0.0,0.0,-2.8641,-3.0844,-3.2404,-3.3256,-3.3198,-3.3132,-3.3214,-3.0912,-2.9213,0.0,0.0,0.0,0.0,0.0,0.0,0.0,0.0,0.0,0.0,0.0,0.0,0.0,0.0,0.0,0.0,0.0,0.0,0.0,0.0,0.0,0.0,0.0,0.0,0.0,0.0,0.0,0.0,0.0,0.0,0.0,0.0,0.0,0.0,0.0,0.0,0.0,0.0,0.0,0.0,0.0,-2.6066,-2.6836,-2.6294,-2.5714,0.0,0.0,-2.7967,-2.7914,-2.9125,0.0,0.0,0.0,0.0,0.0,0.0,0.0,0.0,0.0,0.0,0.0,0.0,0.0,0.0,0.0,0.0,0.0,0.0,0.0,0.0,0.0,0.0,0.0,0.0,0.0,0.0,0.0,0.0,0.0,0.0,0.0,0.0,0.0,0.0,0.0,0.0,0.0,0.0,0.0,0.0,0.0,0.0,0.0,0.0,0.0,0.0,0.0,0.0,0.0,0.0,0.0,0.0,0.0,0.0,0.0,-2.8473,-2.9337,-3.1627,-3.299,-3.3334,-3.3259,-3.3247,-3.3292,-3.0865,-2.939,0.0,0.0,0.0,0.0,0.0,0.0,0.0,0.0,0.0,0.0,0.0,0.0,0.0,0.0,0.0,0.0,0.0,0.0,0.0,0.0,0.0,0.0,0.0,0.0,0.0,0.0,0.0,0.0,0.0,0.0,0.0,0.0,0.0,0.0,0.0,0.0,0.0,0.0,0.0,0.0,0.0,0.0,-2.7797,-2.7923,0.0,0.0,0.0,-2.8901,-2.8425,0.0,0.0,0.0,0.0,0.0,0.0,0.0,0.0,0.0,0.0,0.0,0.0,0.0,0.0,0.0,0.0,0.0,0.0,0.0,0.0,0.0,0.0,0.0,0.0,0.0,0.0,0.0,0.0,0.0,0.0,0.0,0.0,0.0,0.0,0.0,0.0,0.0,0.0,0.0,0.0,0.0,0.0,0.0,0.0,0.0,0.0,0.0,0.0,0.0,0.0,0.0,0.0,0.0,0.0,0.0,0.0,0.0,-2.9839,-3.2162,-3.3393,-3.3393,-3.3337,-3.3307,-3.3286,-3.1092,0.0,0.0,0.0,0.0,0.0,0.0,0.0,0.0,0.0,0.0,0.0,0.0,0.0,0.0,0.0,0.0,0.0,0.0,0.0,0.0,0.0,0.0,0.0,0.0,0.0,0.0,0.0,-2.2854,0.0,0.0,0.0,0.0,0.0,0.0,0.0,0.0,0.0,0.0,0.0,0.0,0.0,0.0,-2.847,-2.8654,-2.9192,-2.9631,0.0,0.0,-2.9508,-2.9098,-3.027,-3.0431,0.0,0.0,0.0,0.0,0.0,0.0,0.0,0.0,0.0,0.0,0.0,0.0,0.0,0.0,0.0,0.0,0.0,0.0,0.0,0.0,0.0,0.0,0.0,0.0,0.0,0.0,0.0,0.0,0.0,0.0,0.0,0.0,0.0,0.0,0.0,0.0,0.0,0.0,0.0,0.0,0.0,0.0,0.0,0.0,0.0,0.0,0.0,0.0,0.0,0.0,0.0,0.0,0.0,0.0,-2.8998,-2.9857,-3.218,-3.3393,-3.3378,-3.3322,-3.3322,-3.336,-3.1672,-3.0431,0.0,0.0,0.0,0.0,0.0,0.0,0.0,0.0,0.0,0.0,0.0,0.0,0.0,0.0,0.0,0.0,0.0,0.0,0.0,0.0,0.0,0.0,0.0,0.0,0.0,0.0,0.0,0.0,0.0,0.0,0.0,0.0,0.0,0.0,0.0,0.0,0.0,0.0,0.0,0.0,0.0,-2.8654,-2.9325,-2.9468,-2.9744,0.0,-3.007,-2.998,-3.0631,-3.1978,-3.2022,-2.9142,0.0,0.0,0.0,0.0,0.0,0.0,0.0,0.0,0.0,0.0,0.0,0.0,0.0,0.0,0.0,0.0,0.0,0.0,0.0,0.0,0.0,0.0,0.0,0.0,0.0,0.0,0.0,0.0,0.0,0.0,0.0,0.0,0.0,0.0,0.0,0.0,0.0,0.0,0.0,0.0,0.0,0.0,0.0,0.0,0.0,0.0,0.0,0.0,0.0,0.0,0.0,0.0,0.0,-2.9246,-3.0527,-3.2433,-3.3599,-3.3987,-3.3587,-3.3569,-3.4008,-3.2447,-3.1267,0.0,0.0,0.0,0.0,0.0,0.0,0.0,0.0,0.0,0.0,0.0,0.0,0.0,0.0,0.0,0.0,0.0,0.0,0.0,0.0,0.0,0.0,0.0,0.0,0.0,0.0,0.0,0.0,-2.7495,-2.7405,-2.6747,0.0,0.0,0.0,0.0,0.0,0.0,0.0,0.0,0.0,0.0,-2.8793,-3.0023,-3.0599,0.0,0.0,-3.1127,-3.0783,-3.008,-3.084,-3.0507,-2.7498,-2.7,0.0,0.0,0.0,0.0,0.0,0.0,0.0,0.0,0.0,0.0,0.0,0.0,0.0,0.0,0.0,0.0,0.0,0.0,0.0,0.0,0.0,0.0,0.0,0.0,0.0,0.0,0.0,0.0,0.0,0.0,0.0,0.0,0.0,0.0,0.0,0.0,0.0,0.0,0.0,0.0,0.0,0.0,0.0,0.0,0.0,0.0,0.0,0.0,0.0,0.0,0.0,0.0,-2.9771,-3.1361,-3.3176,-3.4359,-3.4803,-3.4343,-3.4325,-3.472,-3.374,-3.2831,0.0,0.0,0.0,0.0,0.0,0.0,0.0,0.0,0.0,0.0,0.0,0.0,0.0,0.0,0.0,0.0,0.0,0.0,0.0,0.0,0.0,0.0,0.0,0.0,0.0,0.0,0.0,0.0,-2.7731,-2.7351,-2.5986,0.0,0.0,0.0,0.0,0.0,0.0,0.0,0.0,0.0,0.0,-2.9378,-3.0441,-3.1085,-3.1425,-3.1347,-3.1058,-3.0535,-2.9653,-2.9715,-2.9187,-2.7101,0.0,0.0,0.0,0.0,0.0,0.0,0.0,0.0,0.0,0.0,0.0,0.0,0.0,0.0,0.0,0.0,0.0,0.0,0.0,0.0,0.0,0.0,0.0,0.0,0.0,0.0,0.0,-2.6032,0.0,0.0,-2.49,0.0,0.0,0.0,0.0,0.0,0.0,0.0,0.0,0.0,0.0,0.0,0.0,0.0,0.0,0.0,0.0,0.0,0.0,0.0,0.0,0.0,0.0,-3.0563,-3.2162,-3.448,-3.5713,-3.5768,-3.575,-3.5664,-3.5568,-3.5666,-3.5266,-3.4287,0.0,0.0,0.0,0.0,0.0,0.0,0.0,0.0,0.0,0.0,0.0,0.0,0.0,0.0,0.0,0.0,0.0,0.0,0.0,0.0,0.0,0.0,0.0,0.0,0.0,0.0,-2.5226,-2.5805,-2.595,0.0,0.0,0.0,0.0,0.0,0.0,0.0,0.0,0.0,-2.7099,-2.912,-3.0516,-3.0526,-3.0641,-3.0728,-3.0618,-2.9544,-2.8964,-2.9704,-2.9104,-2.8582,0.0,0.0,0.0,0.0,0.0,0.0,0.0,0.0,0.0,0.0,0.0,0.0,0.0,0.0,0.0,0.0,0.0,0.0,0.0,0.0,0.0,0.0,0.0,0.0,0.0,0.0,0.0,-2.6982,-2.7637,0.0,0.0,0.0,0.0,0.0,0.0,0.0,0.0,0.0,0.0,0.0,-3.2054,-3.188,0.0,0.0,0.0,0.0,0.0,0.0,0.0,0.0,0.0,0.0,0.0,0.0,-3.1116,-3.2199,-3.4558,-3.5991,-3.6364,-3.6027,-3.5989,-3.6379,-3.6009,-3.5358,-3.4413,0.0,0.0,0.0,0.0,0.0,0.0,0.0,0.0,0.0,0.0,0.0,0.0,0.0,0.0,0.0,0.0,0.0,0.0,0.0,0.0,0.0,0.0,0.0,0.0,0.0,-2.5878,0.0,0.0,0.0,0.0,0.0,0.0,0.0,0.0,0.0,0.0,0.0,-2.7246,-2.8546,-2.8872,-2.9365,-3.0368,-3.0544,-3.0933,0.0,0.0,0.0,0.0,0.0,0.0,0.0,0.0,0.0,0.0,0.0,0.0,0.0,0.0,-2.6704,-2.5687,-2.5871,-2.624,-2.6275,0.0,0.0,0.0,0.0,0.0,0.0,0.0,0.0,0.0,0.0,0.0,0.0,0.0,0.0,-2.9161,-2.9629,-2.9733,0.0,0.0,0.0,0.0,0.0,0.0,0.0,0.0,-3.34,-3.4392,-3.4511,-3.4322,-3.4229,-3.4144,-3.365,-3.1739,0.0,0.0,0.0,0.0,0.0,0.0,0.0,0.0,-3.1757,-3.2614,-3.5196,-3.6754,-3.7122,-3.6806,-3.6823,-3.7157,-3.679,-3.6172,-3.5343,-3.4612,-3.3349,0.0,0.0,0.0,0.0,0.0,0.0,0.0,0.0,0.0,0.0,0.0,0.0,0.0,0.0,0.0,0.0,0.0,0.0,0.0,0.0,0.0,0.0,0.0,-2.6222,0.0,0.0,0.0,0.0,0.0,0.0,0.0,0.0,0.0,-2.6141,-2.7207,-2.8349,-2.9378,-2.9683,-2.9904,-3.0101,0.0,0.0,0.0,0.0,0.0,0.0,0.0,-2.8277,-2.8322,-2.8801,-2.9366,-2.99,-3.0056,-2.9976,-2.9669,0.0,0.0,-2.8607,-2.8667,-2.9101,-2.9448,-2.9528,-2.9553,-2.9586,-2.974,-2.9897,0.0,0.0,0.0,0.0,-2.83,0.0,0.0,0.0,-3.1819,-3.1867,0.0,-3.2103,0.0,0.0,0.0,0.0,-3.1093,-3.2618,0.0,0.0,-3.6961,-3.7739,-3.6961,-3.622,-3.5792,-3.5604,-3.4289,-3.3488,-3.3229,-3.3415,0.0,0.0,0.0,0.0,0.0,0.0,-3.2582,-3.3508,-3.641,-3.8001,-3.7966,-3.8104,-3.8089,-3.7898,-3.7932,-3.7655,-3.7033,-3.6274,-3.5428,-3.4447,-3.1613,0.0,0.0,0.0,0.0,0.0,0.0,0.0,0.0,0.0,0.0,0.0,0.0,0.0,0.0,0.0,0.0,0.0,0.0,0.0,0.0,-2.6735,0.0,0.0,0.0,0.0,0.0,0.0,0.0,0.0,0.0,-2.715,-2.6483,-2.8203,-2.9587,-2.9557,0.0,0.0,0.0,0.0,-3.0996,-2.8852,-2.7799,-2.7391,-2.7481,-2.7987,-2.8937,-3.0459,0.0,0.0,-3.3033,-3.1909,-3.1286,-3.1903,-3.273,-3.261,-3.0405,-3.0148,-3.0369,-3.1057,-3.1311,-3.1279,-3.1274,-3.1535,-3.1552,-3.3291,0.0,0.0,0.0,0.0,-2.9983,-3.1315,-3.3484,-3.35,-3.3838,-3.4372,-3.4485,0.0,0.0,0.0,0.0,0.0,0.0,-3.4474,-3.5285,-3.6612,-3.7352,-3.7644,-3.7477,-3.7317,-3.7232,-3.6817,-3.6584,-3.6533,-3.6584,-3.4848,-3.148,0.0,0.0,0.0,0.0,-3.4065,-3.4945,-3.6889,-3.7934,-3.7934,-3.7969,-3.7951,-3.7899,-3.7967,-3.7893,-3.7662,-3.7564,-3.6803,-3.5315,-3.4509,0.0,0.0,0.0,0.0,0.0,0.0,0.0,0.0,0.0,0.0,0.0,0.0,0.0,0.0,0.0,0.0,0.0,0.0,0.0,-2.7387,-2.8232,-2.8015,0.0,0.0,0.0,0.0,0.0,0.0,0.0,0.0,0.0,-2.9557,-2.9521,-2.9697,0.0,0.0,-3.0368,-3.0208,-3.1061,-3.1882,-3.2349,-3.174,0.0,-3.2704,-3.2181,-3.1964,-3.2952,-3.3917,-3.4595,-3.4679,-3.4867,-3.4896,-3.4555,-3.5277,-3.5627,-3.495,-3.4271,-3.3986,-3.4228,-3.4404,-3.4524,-3.4597,-3.4862,-3.5103,-3.8059,-3.5685,-3.3398,-3.2789,-3.3377,-3.3426,-3.4573,-3.6452,-3.647,-3.6577,-3.6791,-3.713,-3.6429,-3.4906,-3.4585,0.0,0.0,0.0,-3.6725,-3.7465,-3.802,-3.8454,-3.8798,-3.8905,-3.8905,-3.8761,-3.8492,-3.8331,-3.8241,-3.7667,-3.6211,-3.3905,0.0,-3.2628,-3.2532,-3.3984,-3.4991,-3.5545,-3.7037,-3.7828,-3.781,-3.781,-3.7899,-3.8003,-3.802,-3.7984,-3.7951,-3.8106,-3.7689,-3.6564,-3.6047,-3.4666,0.0,0.0,0.0,0.0,0.0,0.0,0.0,0.0,0.0,0.0,0.0,-2.6609,-2.6457,0.0,0.0,0.0,-2.883,-2.9287,-2.9318,-2.9621,0.0,0.0,0.0,0.0,0.0,0.0,0.0,-2.8015,-3.026,-3.193,-3.1859,-3.1315,-3.1195,-3.1954,-3.189,-3.1699,-3.1502,0.0,-3.3223,-3.358,-3.3203,-3.3221,-3.4115,-3.4059,-3.4236,-3.5328,-3.5846,-3.6167,-3.6273,-3.6736,-3.6913,-3.6554,-3.6889,-3.7298,-3.7177,-3.673,-3.6477,-3.6542,-3.664,-3.6753,-3.6882,-3.7143,-3.7362,-4.2465,-4.2093,-3.7791,-3.6738,-3.7952,-3.7988,-3.8754,-4.0055,-4.0002,-3.9609,-3.9058,-3.976,-3.9297,-3.7936,-3.8078,0.0,-3.9443,-3.9478,-3.9751,-4.0365,-4.0438,-4.0366,-4.0199,-4.031,-4.0272,-4.0047,-3.9461,-3.9065,-3.8826,-3.7524,-3.679,-3.6665,-3.607,-3.492,-3.3432,-3.4693,-3.5462,-3.5617,-3.6897,-3.765,-3.7685,-3.7703,-3.7827,-3.8158,-3.8071,-3.7984,-3.8001,-3.8123,-3.8107,-3.788,-3.6665,-3.5847,-3.553,0.0,0.0,0.0,0.0,0.0,0.0,0.0,0.0,0.0,0.0,0.0,0.0,0.0,0.0,0.0,-3.1872,0.0,-3.2397,-3.1053,0.0,0.0,0.0,-2.9541,-3.1034,-3.1962,-3.2433,-3.2306,0.0,0.0,-3.35,-3.3376,-3.3653,-3.4567,-3.5047,-3.4767,-3.3369,-3.4361,-3.4775,-3.3543,-3.3293,-3.3328,-3.3775,-3.4633,-3.5828,-3.7149,-3.7595,-3.7523,-3.7542,-3.7614,-3.7685,-3.756,-3.7757,-3.7845,-3.7739,-3.7738,-3.7898,-3.7877,-3.7929,-3.8068,-3.8163,-3.8209,-3.8287,-4.4053,-4.3964,-4.2819,-4.1912,-4.1183,-4.1183,-4.1397,-4.1663,-4.1074,-4.0717,-4.0538,-4.0266,-4.002,-3.9752,-3.9642,-3.9731,-3.9929,-3.9947,-4.0,-4.016,-4.0197,-4.016,-4.0122,-4.0159,-4.0084,-3.9933,-3.9774,-3.9685,-3.9609,-3.9291,-3.8809,-3.8292,-3.8114,-3.6952,-3.4944,-3.5111,-3.5611,-3.6341,-3.6594,-3.7006,-3.7613,-3.7667,-3.7757,-3.781,-3.7881,-3.7933,-3.8001,-3.7986,-3.8003,-3.8106,-3.771,-3.6969,-3.5772,-3.3704,0.0,0.0,0.0,0.0,0.0,0.0,0.0,0.0,0.0,-2.7984,-2.9391,0.0,-3.084,0.0,-3.3194,-3.4045,-3.4027,-3.3668,0.0,0.0,-3.2488,-3.2415,-3.2795,-3.4081,-3.4464,-3.3266,-3.4371,-3.5225,-3.5225,-3.5175,-3.5684,-3.7038,-3.5618,-3.4488,-3.463,-3.5488,-3.6006,-3.5667,-3.6006,-3.6488,-3.6399,-3.6756,-3.7131,-3.7541,-3.7595,-3.7649,-3.7793,-3.7828,-3.7863,-3.7898,-3.795,-3.7951,-3.7863,-3.7881,-3.7881,-3.7828,-3.8019,-3.8256,-3.8352,-3.8417,-3.851,-4.5677,-4.5659,-4.5677,-4.5178,-4.4321,-4.3625,-4.3322,-4.3268,-4.2858,-4.2662,-4.2608,-4.196,-4.1721,-4.1782,-4.138,-4.1181,-4.122,-4.122,-4.1199,-4.1158,-4.118,-4.118,-4.1082,-4.1139,-4.1101,-4.0967,-4.061,-4.0449,-4.0414,-4.0073,-3.97,-3.9288,-3.9288,-3.8505,-3.697,-3.6131,-3.5827,-3.6055,-3.6291,-3.6809,-3.7613,-3.7667,-3.7542,-3.7307,-3.7307,-3.7198,-3.6938,-3.6853,-3.6888,-3.704,-3.6988,-3.6607,-3.5804,-3.3936,-3.2107,0.0,0.0,0.0,0.0,0.0,0.0,0.0,0.0,0.0,0.0,0.0,-3.2777,-3.323,-3.4425,-3.5005,-3.4609,-3.4609,-3.4555,-3.448,-3.4464,-3.4751,-3.5439,-3.6327,-3.6526,-3.5639,-3.6309,-3.687,-3.687,-3.6837,-3.7077,-3.7947,-3.6697,-3.5862,-3.6307,-3.672,-3.6952,-3.697,-3.7309,-3.7595,-3.7595,-3.7595,-3.7595,-3.7595,-3.7595,-3.7649,-3.7739,-3.7793,-3.7846,-3.7862,-3.795,-3.7984,-3.7968,-3.8003,-3.7986,-3.7898,-3.8001,-3.8171,-3.8238,-3.8252,-3.8348,-4.6998,-4.6998,-4.6998,-4.6998,-4.6873,-4.5517,-4.4888,-4.4888,-4.4781,-4.4714,-4.4571,-4.3946,-4.3706,-4.3721,-4.3095,-4.2777,-4.2733,-4.2731,-4.2638,-4.2483,-4.2548,-4.247,-4.2308,-4.2425,-4.2425,-4.2272,-4.1573,-4.1252,-4.1217,-4.0556,-4.0144,-4.0037,-4.0057,-3.9627,-3.8772,-3.7416,-3.6327,-3.5573,-3.6202,-3.6916,-3.7667,-3.7542,-3.7255,-3.6798,-3.6571,-3.6176,-3.5625,-3.5522,-3.5522,-3.5604,-3.5654,-3.5776,-3.5876,-3.3773,-3.2234,0.0,-2.9445,0.0,0.0,0.0,0.0,0.0,0.0,0.0,0.0,-3.4283,-3.479,-3.4896,-3.5532,-3.5711,-3.5116,-3.5059,-3.5331,-3.6021,-3.6109,-3.6671,-3.8009,-3.8209,-3.8209,-3.8209,-3.8192,-3.8192,-3.8103,-3.8053,-3.795,-3.7898,-3.7685,-3.7524,-3.7792,-3.7632,-3.7541,-3.7595,-3.7595,-3.7595,-3.7595,-3.7595,-3.7595,-3.7613,-3.7613,-3.7613,-3.7649,-3.7703,-3.7739,-3.7775,-3.7898,-3.7984,-3.7966,-3.8072,-3.8124,-3.7984,-3.7966,-3.8002,-3.8002,-3.7984,-3.807,-4.6998,-4.6998,-4.6998,-4.6998,-4.6962,-4.6659,-4.6551,-4.6498,-4.5856,-4.5275,-4.4754,-4.4485,-4.4518,-4.4707,-4.448,-4.4008,-4.342,-4.342,-4.3018,-4.2328,-4.2348,-4.2328,-4.2308,-4.2325,-4.2328,-4.2269,-4.2144,-4.2055,-4.2076,-4.1912,-4.1502,-4.0877,-4.0877,-4.0203,-3.8937,0.0,0.0,0.0,-3.6988,-3.7452,-3.7577,-3.7059,-3.6736,-3.6627,-3.5983,0.0,-3.5522,-3.5476,-3.5509,-3.5672,-3.5638,0.0,0.0,0.0,0.0,0.0,0.0,0.0,0.0,0.0,0.0,0.0,-3.3647,-3.4063,-3.4356,-3.5131,-3.5856,-3.6472,-3.6687,-3.6977,-3.7484,-3.7538,-3.7575,-3.7738,-3.7721,-3.7866,-3.8191,-3.8209,-3.8209,-3.8192,-3.8105,-3.8036,-3.8036,-3.7968,-3.7934,-3.7935,-3.7775,-3.7721,-3.7775,-3.7685,-3.7595,-3.7595,-3.7595,-3.7595,-3.7595,-3.7595,-3.7613,-3.7649,-3.7685,-3.7739,-3.7862,-3.7915,-3.7915,-3.7899,-3.7933,-3.7949,-3.7792,-3.7863,-3.7951,-3.7934,-3.7934,-3.7934,-3.7916,-3.7828,-3.7845,-4.8157,-4.8104,-4.7729,-4.7592,0.0,-4.7158,-4.6998,-4.6962,-4.6569,-4.6181,-4.5855,-4.5396,-4.5261,-4.5387,-4.4911,-4.4475,-4.41,-4.41,-4.3846,-4.3411,-4.3072,-4.2894,-4.2876,-4.2483,-4.2308,-4.2308,-4.2308,-4.2308,-4.2308,-4.2308,-4.2073,-4.1698,-4.168,-4.1326,-4.0579,-4.0148,-3.8968,-3.7024,-3.7398,-3.7595,-3.7577,-3.7256,-3.6916,-3.654,-3.6129,0.0,0.0,0.0,0.0,0.0,0.0,0.0,0.0,-3.5276,0.0,-3.5152,-3.4081,-3.3755,-3.4516,-3.4588,-3.4932,-3.5711,-3.6146,-3.6218,-3.582,-3.6526,-3.7142,-3.7538,-3.7593,-3.7774,-3.8154,-3.8209,-3.8209,-3.8209,-3.8209,-3.8209,-3.8209,-3.8209,-3.8209,-3.8192,-3.814,-3.807,-3.8001,-3.8346,-3.8474,-3.8438,-3.8671,-3.8831,-3.8722,-3.8077,-3.7595,-3.7595,-3.7595,-3.7595,-3.7595,-3.7595,-3.7631,-3.7649,-3.7667,-3.7739,-3.7827,-3.7932,-3.7984,-3.795,-3.7984,-3.7966,-3.788,-3.7881,-3.7881,-3.781,-3.7792,-3.7793,-3.7775,-3.7721,-3.7739,-4.9293,-4.924,-4.8639,-4.8413,-4.8359,-4.7676,-4.739,-4.739,-4.7122,0.0,0.0,-4.6302,-4.6016,-4.5963,-4.532,-4.4946,-4.4799,-4.4839,-4.4728,-4.4549,-4.3961,-4.3714,-4.3658,-4.3001,-4.2697,-4.2697,-4.2555,-4.2501,-4.2501,-4.2397,-4.2308,-4.2308,-4.2308,-4.2308,-4.2234,-4.1627,-4.0289,-3.8327,-3.7951,-3.7827,-3.7809,-3.7541,-3.7095,-3.6504,-3.6291,-3.5951,-3.546,-3.5306,-3.534,-3.5557,-3.5524,-3.5645,-3.5917,-3.5336,-3.5046,-3.5204,-3.4624,-3.4824,-3.6112,-3.622,-3.6798,-3.8136,-3.8209,-3.7902,-3.7249,-3.781,-3.8209,-3.8209,-3.8209,-3.8209,-3.8209,-3.8209,-3.8209,-3.8209,-3.8209,-3.8209,-3.8209,-3.8209,-3.8246,-3.8372,-3.8411,-3.8395,-3.8471,-3.8923,-3.9265,-3.9208,-3.9546,-4.0027,-3.9791,-3.8861,-3.8166,-3.8148,-3.8237,-3.8095,-3.8041,-3.8094,-3.8005,-3.8203,-3.8186,-3.8115,-3.8187,-3.8186,-3.8218,-3.829,-3.8127,-3.8036,-3.8001,-3.7967,-3.7934,-3.781,-3.7792,-3.7775,-3.7703,-3.7703,-3.7739,-4.9293,-4.9275,-4.9168,-4.9133,-4.9139,-4.9008,-4.8996,-4.8865,-4.7568,-4.6998,-4.698,-4.6873,-4.6819,-4.6819,-4.6712,-4.6284,-4.5641,-4.5641,-4.5267,-4.4603,-4.4478,-4.4442,-4.4424,-4.4317,-4.4264,-4.4232,-4.3625,-4.334,-4.3268,-4.2644,-4.2308,-4.2308,-4.2308,-4.2308,-4.2308,-4.2183,-4.1609,-4.061,-3.9325,-3.8647,-3.8611,-3.7273,-3.6506,-3.6399,-3.5757,-3.5328,-3.5238,-3.536,-3.5393,-3.5426,-3.5476,-3.5846,-3.6594,-3.6558,-3.686,-3.7612,-3.7576,-3.7647,-3.783,-3.7865,-3.7973,-3.8172,-3.8209,-3.8154,-3.8064,-3.8154,-3.8209,-3.8209,-3.8209,-3.8209,-3.8209,-3.8209,-3.8209,-3.8209,-3.8209,-3.8227,-3.8228,-3.8263,-3.8517,-3.9134,-3.9084,-3.9248,-3.9679,-3.9837,-3.9849,-3.9791,-4.006,-4.0003,-4.0039,-3.9753,-3.9574,-3.9574,-3.9574,-3.9574,-3.9414,-3.9557,-3.9487,-3.9743,-3.9654,-3.9621,-3.9751,-3.9356,-3.9049,-3.903,-3.8649,-3.8286,-3.8126,-3.8088,-3.8234,-3.8253,-3.8271,-3.8199,-3.8113,-3.8043,-3.7918,-5.0602,-5.0548,-5.0138,-4.9959,-4.9917,-4.9471,-4.9293,-4.924,-4.8568,-4.8015,-4.7609,-4.7217,-4.6998,-4.6998,-4.6998,-4.6783,-4.6444,-4.6444,-4.6266,-4.5891,-4.5463,-4.5267,-4.5231,-4.4817,-4.4585,-4.4549,-4.4264,-4.4086,-4.4014,-4.3322,-4.2947,-4.2912,-4.254,-4.2308,-4.2308,-4.2308,-4.2109,-4.1716,-4.0628,-3.9646,-3.8807,-3.8094,-3.7505,-3.7077,-3.6667,-3.6506,-3.6506,-3.6559,-3.6612,-3.6646,-3.6751,-3.6981,-3.7375,-3.7495,-3.7708,-3.8069,-3.8157,-3.8209,-3.8209,-3.8209,-3.8209,-3.8209,-3.8209,-3.8209,-3.8209,-3.8209,-3.8209,-3.8209,-3.8209,-3.8209,-3.8209,-3.8209,-3.8209,-3.8209,-3.8209,-3.839,-3.877,-3.8861,-3.9134,-3.9822,-3.9914,-3.9968,-4.0275,-4.0539,-4.0675,-4.069,-4.0917,-4.1163,-4.1163,-4.1181,-4.086,-4.0091,-3.9877,-3.9877,-3.9895,-3.9877,-3.9914,-4.0008,-4.0046,-4.0121,-4.0235,-3.9949,-3.9878,-3.9842,-3.9553,-3.939,-3.9283,-3.9319,-3.9337,-3.9355,-3.9337,-3.9301,-3.9265,-3.9157,-3.8761,-5.169,-5.1637,-5.103,-5.0762,-5.0727,-5.0096,-4.9852,-4.9834,-4.9632,-4.9246,-4.8645,-4.7717,-4.727,-4.7229,-4.7069,-4.6998,-4.6998,-4.6998,-4.698,-4.6926,-4.6355,-4.607,-4.6016,-4.5445,-4.5142,-4.5124,-4.4981,-4.487,-4.4763,-4.4125,-4.364,-4.3447,-4.268,-4.2308,-4.2308,-4.2308,-4.2308,-4.2272,-4.168,-4.0699,-3.9379,-3.9146,-3.8665,-3.7933,-3.7862,-3.7773,-3.7631,-3.7595,-3.7613,-3.7685,-3.7775,-3.7846,-3.7846,-3.8003,-3.8054,-3.7984,-3.8089,-3.8123,-3.8157,-3.8157,-3.8157,-3.8209,-3.8209,-3.8209,-3.8209,-3.8209,-3.8209,-3.8209,-3.8209,-3.8209,-3.8245,-3.8426,-3.8464,-3.848,-3.8628,-3.9008,-3.9532,-3.9641,-3.9931,-4.0619,-4.0764,-4.0782,-4.0942,-4.1335,-4.1616,-4.1644,-4.2031,-4.231,-4.2308,-4.2308,-4.1716,-4.0913,-4.0467,-4.0538,-4.0431,-4.0503,-4.0538,-4.0449,-4.0579,-4.0726,-4.0748,-4.0739,-4.0598,-4.058,-4.0419,-4.0239,-4.0347,-4.0311,-4.0257,-4.0185,-4.0185,-4.0239,-4.0202,-4.0055,-3.9708,-5.169,-5.169,-5.1583,-5.1583,-5.1547,-5.1476,-5.1405,-5.1333,-5.0709,-5.0352,-5.012,-4.8746,-4.8109,-4.8002,-4.7342,-4.7015,-4.6998,-4.6998,-4.6998,-4.6998,-4.6926,-4.689,-4.6855,-4.6766,-4.6783,-4.6623,-4.6016,-4.5695,-4.5641,-4.487,-4.4139,-4.3479,-4.2697,-4.2343,-4.2325,-4.2325,-4.2308,-4.2308,-4.2236,-4.177,-4.0913,-4.0162,-3.945,-3.87,-3.8701,-3.8344,-3.7684,-3.7595,-3.7595,-3.7595,-3.7631,-3.7649,-3.7703,-3.7739,-3.7792,-3.7916,-3.7916,-3.7951,-3.8019,-3.8019,-3.807,-3.8192,-3.8209,-3.8209,-3.8209,-3.8209,-3.8209,-3.8245,-3.8245,-3.8227,-3.8263,-3.8826,-3.9206,-3.9315,-3.9751,-4.0257,-4.0347,-4.0348,-4.0637,-4.1488,-4.1522,-4.17,-4.2127,-4.2322,-4.2388,-4.2253,-4.232,-4.2405,-4.2308,-4.2308,-4.229,-4.2037,-4.204,-4.1986,-4.1912,-4.2058,-4.1859,-4.193,-4.204,-4.1955,-4.1855,-4.1554,-4.1235,-4.126,-4.083,-4.0543,-4.0563,-4.0419,-4.0528,-4.0781,-4.0745,-4.0565,-4.042,-4.0399,-4.0104,-5.169,-5.169,-5.169,-5.169,-5.169,-5.169,-5.169,-5.1654,-5.1351,-5.1208,-5.1066,-5.0031,-4.9049,-4.8216,-4.7859,-4.7444,-4.7015,-4.6998,-4.6998,-4.6998,-4.6998,-4.6998,-4.6998,-4.6998,-4.6998,-4.698,-4.6641,-4.6498,-4.6373,-4.5695,-4.4928,-4.4161,-4.3393,-4.3019,-4.2965,-4.2537,-4.2308,-4.2308,-4.2308,-4.2129,-4.177,-4.102,-4.0253,-3.9484,-3.9021,-3.8683,-3.8308,-3.7862,-3.7595,-3.7595,-3.7631,-3.7667,-3.7649,-3.7739,-3.781,-3.781,-3.7898,-3.8003,-3.8105,-3.8105,-3.814,-3.8192,-3.8209,-3.8209,-3.8209,-3.8209,-3.8373,-3.8788,-3.848,-3.8355,-3.8844,-3.9206,-3.9568,-3.9985,-4.0311,-4.0673,-4.1162,-4.1142,-4.1449,-4.2172,-4.224,-4.2272,-4.2519,-4.2568,-4.2506,-4.2407,-4.2366,-4.2366,-4.2308,-4.2308,-4.2308,-4.2308,-4.2308,-4.2308,-4.2308,-4.2308,-4.2308,-4.2308,-4.2308,-4.2346,-4.2313,-4.2266,-4.202,-4.2026,-4.1706,-4.1568,-4.188,-4.1827,-4.1865,-4.1831,-4.1904,-4.1922,-4.1829,-4.1752,-4.1637,-5.169,-5.169,-5.169,-5.169,-5.169,-5.169,-5.169,-5.169,-5.169,-5.169,-5.1637,-5.1083,-5.0102,-4.8895,-4.8413,-4.7859,-4.7359,-4.711,-4.6998,-4.6998,-4.6998,-4.6998,-4.6998,-4.6998,-4.6998,-4.6998,-4.698,-4.698,-4.6908,-4.6195,-4.5499,-4.487,-4.3979,-4.3479,-4.3408,-4.2715,-4.2308,-4.2308,-4.2308,-4.2308,-4.2218,-4.1716,-4.1056,-4.0251,-3.9736,-3.9324,-3.9074,-3.8344,-3.7916,-3.7934,-3.7774,-3.7667,-3.7613,-3.7757,-3.7775,-3.7703,-3.781,-3.7933,-3.8055,-3.8089,-3.8106,-3.8106,-3.8123,-3.8231,-3.8412,-3.8466,-3.8828,-3.9515,-3.9171,-3.9152,-3.9568,-3.9894,-4.0275,-4.0745,-4.0926,-4.1323,-4.1847,-4.1898,-4.2057,-4.2617,-4.2578,-4.2609,-4.2589,-4.2528,-4.2465,-4.2405,-4.2366,-4.2346,-4.2308,-4.2308,-4.2308,-4.2308,-4.2308,-4.2308,-4.2308,-4.2308,-4.2308,-4.2308,-4.2308,-4.2308,-4.2308,-4.2387,-4.2445,-4.2195,-4.2436,-4.2514,-4.234,-4.2542,-4.2731,-4.2844,-4.2846,-4.2791,-4.2625,-4.2768,-4.2689,-5.169,-5.169,-5.169,-5.169,-5.169,-5.169,-5.169,-5.169,-5.169,-5.169,-5.169,-5.1637,-5.1173,-5.0281,-4.8966,-4.8199,-4.802,-4.7377,-4.7033,-4.6998,-4.6998,-4.6998,-4.6998,-4.6998,-4.6998,-4.6998,-4.6998,-4.6998,-4.6944,-4.623,-4.5784,-4.5677,-4.4357,-4.3551,-4.3422,-4.2727,-4.2305,-4.2246,-4.2246,-4.2287,-4.2308,-4.2234,-4.1805,-4.1127,-4.0985,-4.0556,-3.9859,-3.9165,-3.8754,-3.8735,-3.8113,-3.7666,-3.7631,-3.7631,-3.7631,-3.7613,-3.7613,-3.7667,-3.7757,-3.7917,-3.7988,-3.797,-3.8148,-3.8363,-3.9013,-3.9121,-3.9499,-4.0293,-4.033,-4.0347,-4.0546,-4.0999,-4.1433,-4.1576,-4.2113,-4.2415,-4.2503,-4.2426,-4.2474,-4.2589,-4.2589,-4.257,-4.2589,-4.2528,-4.2503,-4.2463,-4.2483,-4.2425,-4.2328,-4.2308,-4.2308,-4.2308,-4.2308,-4.2308,-4.2308,-4.2308,-4.2308,-4.2308,-4.2308,-4.2308,-4.2308,-4.2308,-4.2308,-4.2325,-4.2348,-4.2407,-4.2486,-4.2606,-4.2689,-4.2805,-4.2862,-4.2862,-4.2842,-4.2841,-4.2745,-5.169,-5.169,-5.169,-5.169,-5.169,-5.169,-5.169,-5.169,-5.169,-5.169,-5.169,-5.169,-5.153,-5.1208,-5.0156,-4.9121,-4.8216,-4.7895,-4.7502,-4.7051,-4.6998,-4.6998,-4.6998,-4.6998,-4.6998,-4.6998,-4.6998,-4.6998,-4.6985,-4.6694,-4.6569,-4.6409,-4.5517,-4.46,-4.3771,-4.2962,-4.2326,-4.1827,-4.1792,-4.1959,-4.2267,-4.2308,-4.2165,-4.1841,-4.1359,-4.0967,-4.0681,-3.9912,-3.9521,-3.9502,-3.9218,-3.8843,-3.838,-3.788,-3.7613,-3.7649,-3.7649,-3.7721,-3.7882,-3.8366,-3.8672,-3.8708,-3.9139,-3.9463,-3.9733,-3.9841,-4.0165,-4.085,-4.1067,-4.1248,-4.17,-4.1775,-4.1922,-4.2373,-4.2586,-4.2706,-4.2724,-4.2604,-4.2524,-4.2508,-4.2468,-4.2409,-4.2409,-4.2387,-4.2366,-4.2366,-4.2366,-4.2346,-4.2325,-4.2308,-4.2308,-4.2308,-4.2308,-4.2308,-4.2308,-4.2308,-4.2308,-4.2308,-4.2308,-4.2308,-4.2308,-4.2308,-4.2308,-4.2308,-4.2308,-4.2366,-4.2483,-4.2606,-4.2707,-4.2689,-4.2767,-4.2842,-4.286,-4.2822,-4.2745,-5.169,-5.169,-5.169,-5.169,-5.169,-5.169,-5.169,-5.169,-5.169,-5.169,-5.169,-5.169,-5.169,-5.1619,-5.1137,-5.0049,-4.8603,-4.8306,-4.777,-4.7033,-4.6998,-4.6998,-4.6998,-4.6998,-4.6998,-4.6998,-4.6998,-4.6998,-4.6998,-4.6998,-4.6998,-4.6926,-4.6195,-4.5396,-4.4468,-4.3334,-4.2394,-4.1938,-4.1635,-4.1687,-4.2023,-4.2225,-4.2308,-4.2236,-4.179,-4.1484,-4.1466,-4.0717,-4.0287,-4.0251,-4.0037,-3.9663,-3.9146,-3.8647,-3.8381,-3.84,-3.8418,-3.8437,-3.8582,-3.9102,-3.9407,-3.9389,-3.9838,-4.0233,-4.0447,-4.052,-4.0934,-4.1508,-4.1781,-4.207,-4.2359,-4.2222,-4.2189,-4.2694,-4.2725,-4.2685,-4.2665,-4.2526,-4.2445,-4.2407,-4.2348,-4.2308,-4.2308,-4.2308,-4.2308,-4.2308,-4.2308,-4.2308,-4.2308,-4.2308,-4.2308,-4.2308,-4.2308,-4.2308,-4.2308,-4.2308,-4.2308,-4.2308,-4.2308,-4.2308,-4.2308,-4.2308,-4.2308,-4.2308,-4.2346,-4.2384,-4.2486,-4.2606,-4.2627,-4.2589,-4.2649,-4.2727,-4.2764,-4.2803,-4.2725,-5.169,-5.169,-5.169,-5.169,-5.169,-5.169,-5.169,-5.169,-5.169,-5.169,-5.169,-5.169,-5.1665,-5.1647,-5.1558,-5.0755,-4.9237,-4.8502,-4.7748,-4.6964,-4.698,-4.6934,-4.6847,-4.6934,-4.6934,-4.6911,-4.6957,-4.6934,-4.6847,-4.6888,-4.6929,-4.6832,-4.6216,-4.5744,-4.5682,-4.3789,-4.2735,-4.2414,-4.1848,-4.156,-4.1556,-4.1938,-4.2166,-4.2228,-4.2175,-4.216,-4.2198,-4.1502,-4.1092,-4.102,-4.0431,-3.9968,-3.993,-3.9771,-3.9807,-3.97,-3.9807,-3.9825,-3.9807,-3.9955,-4.0046,-4.0006,-4.0118,-4.0602,-4.1082,-4.1246,-4.161,-4.2183,-4.2402,-4.2571,-4.2534,-4.25,-4.248,-4.2506,-4.2544,-4.2468,-4.2387,-4.2308,-4.2308,-4.2308,-4.2308,-4.2308,-4.2308,-4.2308,-4.2308,-4.2308,-4.2308,-4.2308,-4.2308,-4.2308,-4.2308,-4.2308,-4.2308,-4.2308,-4.2308,-4.2308,-4.2308,-4.2308,-4.2308,-4.2308,-4.2308,-4.2308,-4.2308,-4.2308,-4.2308,-4.2346,-4.2405,-4.2526,-4.2528,-4.2548,-4.2607,-4.2647,-4.2686,-4.2706,-4.2707,-5.169,-5.169,-5.169,-5.169,-5.169,-5.169,-5.169,-5.169,-5.169,-5.169,-5.169,-5.169,-5.147,-5.1245,-5.1495,-5.0679,-4.8931,-4.8502,-4.7707,-4.6689,-4.6836,-4.6548,-4.6102,-4.6637,-4.6801,-4.6501,-4.6453,-4.6217,-4.6003,-4.6284,-4.6471,-4.6358,-4.6223,-4.5817,-4.5346,-4.4251,-4.3315,-4.2298,-4.2002,-4.1591,-4.1088,-4.1197,-4.1423,-4.1709,-4.1731,-4.1917,-4.2249,-4.2055,-4.1912,-4.1915,-4.168,-4.1306,-4.077,-4.0198,-3.9895,-3.9877,-3.9877,-3.9877,-3.9985,-4.0469,-4.0774,-4.0844,-4.1256,-4.1667,-4.1897,-4.1935,-4.208,-4.2348,-4.2369,-4.2389,-4.2389,-4.2389,-4.243,-4.253,-4.2526,-4.2465,-4.2425,-4.2346,-4.2308,-4.2308,-4.2308,-4.2308,-4.2308,-4.2308,-4.2308,-4.2308,-4.2308,-4.2308,-4.2308,-4.2308,-4.2308,-4.2308,-4.2308,-4.2308,-4.2308,-4.2308,-4.2308,-4.2308,-4.2308,-4.2308,-4.2308,-4.2308,-4.2308,-4.2308,-4.2308,-4.2308,-4.2366,-4.2407,-4.2447,-4.2468,-4.251,-4.2548,-4.2606,-4.2607,-4.2647,-5.169,-5.169,-5.169,-5.169,-5.169,-5.169,-5.169,-5.169,-5.169,-5.169,-5.169,-5.169,-5.1495,-5.1219,-5.1297,-5.0497,-4.908,-4.8711,-4.7648,-4.6187,-4.6189,-4.5935,-4.5407,-4.5985,-4.6224,-4.5928,-4.5852,-4.5802,-4.5657,-4.5995,-4.6211,-4.6211,-4.6381,-4.6176,-4.5497,-4.4872,-4.3996,-4.3204,-4.2595,-4.2009,-4.1598,-4.1405,-4.149,-4.1753,-4.1796,-4.198,-4.2287,-4.2308,-4.2308,-4.2308,-4.2308,-4.2037,-4.1556,-4.1092,-4.0788,-4.0806,-4.0806,-4.0824,-4.086,-4.1288,-4.1538,-4.1645,-4.2002,-4.2251,-4.229,-4.2308,-4.2308,-4.2308,-4.2308,-4.2308,-4.2308,-4.2308,-4.2369,-4.247,-4.2447,-4.2425,-4.2425,-4.2328,-4.2308,-4.2308,-4.2308,-4.2308,-4.2308,-4.2308,-4.2308,-4.2308,-4.2308,-4.2308,-4.2308,-4.2308,-4.2308,-4.2308,-4.2308,-4.2308,-4.2308,-4.2308,-4.2308,-4.2308,-4.2308,-4.2308,-4.2308,-4.2308,-4.2308,-4.2308,-4.2308,-4.2308,-4.2328,-4.2366,-4.2387,-4.2427,-4.243,-4.2468,-4.2488,-4.2566,-4.2606,-5.169,-5.169,-5.169,-5.169,-5.169,-5.169,-5.169,-5.169,-5.169,-5.169,-5.169,-5.169,-5.164,-5.1495,-5.107,-5.0363,-4.9509,-4.8806,-4.7541,-4.6028,-4.5504,-4.5308,-4.5346,-4.5355,-4.5346,-4.5276,-4.5267,-4.5468,-4.5649,-4.5844,-4.6137,-4.6094,-4.6453,-4.6708,-4.6121,-4.5527,-4.508,-4.4659,-4.3524,-4.2765,-4.2526,-4.2242,-4.2136,-4.2142,-4.2065,-4.2124,-4.2287,-4.2308,-4.2308,-4.2308,-4.2308,-4.2272,-4.2272,-4.2269,-4.2147,-4.2073,-4.2234,-4.2144,-4.2236,-4.2111,-4.22,-4.2183,-4.2236,-4.2308,-4.2308,-4.2308,-4.2308,-4.2308,-4.2308,-4.2308,-4.2308,-4.2308,-4.2308,-4.2308,-4.2328,-4.2308,-4.2308,-4.2308,-4.2308,-4.2308,-4.2308,-4.2308,-4.2308,-4.2308,-4.2308,-4.2308,-4.2308,-4.2308,-4.2308,-4.2308,-4.2308,-4.2308,-4.2308,-4.2308,-4.2308,-4.2308,-4.2308,-4.2308,-4.2308,-4.2308,-4.2308,-4.2308,-4.2308,-4.2308,-4.2308,-4.2308,-4.2308,-4.2328,-4.2346,-4.2348,-4.2348,-4.2387,-4.2447,-4.2546,-4.2586,-5.169,-5.169,-5.169,-5.169,-5.169,-5.169,-5.169,-5.169,-5.169,-5.169,-5.169,-5.169,-5.1444,-5.1017,-5.0857,-5.0206,-4.9164,-4.8367,-4.7271,-4.5821,-4.5113,-4.5055,-4.514,-4.4865,-4.4708,-4.4691,-4.4691,-4.4569,-4.4344,-4.4828,-4.5205,-4.5528,-4.5759,-4.6175,-4.6543,-4.6128,-4.5602,-4.508,-4.4279,-4.3204,-4.2295,-4.1726,-4.1533,-4.1679,-4.1423,-4.164,-4.2187,-4.2308,-4.2308,-4.2308,-4.2308,-4.2308,-4.2308,-4.2308,-4.2308,-4.2308,-4.2308,-4.2308,-4.2308,-4.2308,-4.2308,-4.2308,-4.2308,-4.2308,-4.2308,-4.2308,-4.2308,-4.2308,-4.2308,-4.2308,-4.2308,-4.2308,-4.2308,-4.2308,-4.2308,-4.2308,-4.2308,-4.2308,-4.2308,-4.2308,-4.2308,-4.2308,-4.2308,-4.2308,-4.2308,-4.2308,-4.2308,-4.2308,-4.2308,-4.2308,-4.2308,-4.2308,-4.2308,-4.2308,-4.2308,-4.2308,-4.2308,-4.2308,-4.2308,-4.2308,-4.2308,-4.2308,-4.2308,-4.2308,-4.2308,-4.2308,-4.2308,-4.2308,-4.2308,-4.2308,-4.2366,-4.2425,-4.2506,-4.2586,-4.2607,-5.169,-5.169,-5.169,-5.169,-5.169,-5.169,-5.169,-5.169,-5.169,-5.169,-5.169,-5.169,-5.1367,-5.0803,-5.0512,-4.9867,-4.8877,-4.8169,-4.7137,-4.5775,-4.4702,-4.439,-4.4452,-4.4202,-4.4121,-4.4121,-4.4121,-4.4076,-4.4093,-4.435,-4.468,-4.5045,-4.5451,-4.5928,-4.6133,-4.6291,-4.6,-4.5453,-4.4659,-4.3682,-4.289,-4.1936,-4.1692,-4.177,-4.1452,-4.1512,-4.2187,-4.2308,-4.2308,-4.2308,-4.2308,-4.2308,-4.2308,-4.2308,-4.2308,-4.2308,-4.2308,-4.2308,-4.2308,-4.2308,-4.2308,-4.2308,-4.2308,-4.2308,-4.2308,-4.2308,-4.2308,-4.2308,-4.2308,-4.2308,-4.2308,-4.2308,-4.2308,-4.2308,-4.2308,-4.2308,-4.2308,-4.2308,-4.2308,-4.2308,-4.2308,-4.2308,-4.2308,-4.2308,-4.2308,-4.2308,-4.2308,-4.2308,-4.2308,-4.2308,-4.2308,-4.2308,-4.2308,-4.2308,-4.2308,-4.2308,-4.2308,-4.2308,-4.2308,-4.2308,-4.2308,-4.2308,-4.2308,-4.2308,-4.2308,-4.2308,-4.2308,-4.2308,-4.2308,-4.2308,-4.2387,-4.2425,-4.2468,-4.2546,-4.2588,-5.169,-5.169,-5.169,-5.169,-5.169,-5.169,-5.169,-5.169,-5.169,-5.164,-5.1546,-5.1589,-5.1167,-5.0667,-4.9982,-4.9393,-4.8852,-4.8256,-4.7118,-4.5798,-4.4605,-4.3929,-4.3793,-4.3759,-4.3717,-4.3717,-4.3628,-4.3877,-4.415,-4.439,-4.4502,-4.4818,-4.5623,-4.5784,-4.5708,-4.592,-4.6161,-4.5753,-4.4759,-4.4139,-4.3675,-4.2756,-4.2243,-4.212,-4.163,-4.1485,-4.1917,-4.2124,-4.2187,-4.2308,-4.2308,-4.2308,-4.2308,-4.2308,-4.2308,-4.2308,-4.2308,-4.2308,-4.2308,-4.2308,-4.2308,-4.2308,-4.2308,-4.2308,-4.2308,-4.2308,-4.2308,-4.2308,-4.2308,-4.2308,-4.2308,-4.2308,-4.2308,-4.2308,-4.2308,-4.2308,-4.2308,-4.2308,-4.2308,-4.2308,-4.2308,-4.2308,-4.2308,-4.2308,-4.2308,-4.2308,-4.2308,-4.2308,-4.2308,-4.2308,-4.2308,-4.2308,-4.2308,-4.2308,-4.2308,-4.2308,-4.2308,-4.2308,-4.2308,-4.2308,-4.2308,-4.2308,-4.2308,-4.2308,-4.2308,-4.2308,-4.2308,-4.2308,-4.2308,-4.2308,-4.2346,-4.2348,-4.2348,-4.2427,-4.2488,-5.169,-5.169,-5.169,-5.169,-5.169,-5.169,-5.169,-5.169,-5.169,-5.1418,-5.1088,-5.1008,-5.0605,-4.9965,-4.9411,-4.9006,-4.879,-4.8175,-4.7206,-4.5798,-4.4903,-4.4125,-4.3731,-4.3615,-4.3615,-4.3615,-4.3615,-4.3687,-4.3877,-4.4219,-4.4502,-4.4625,-4.5442,-4.5877,-4.5451,-4.5776,-4.5928,-4.5468,-4.4732,-4.4258,-4.399,-4.3309,-4.2586,-4.2075,-4.1364,-4.1053,-4.1174,-4.1468,-4.1856,-4.2166,-4.2308,-4.2308,-4.2308,-4.2308,-4.2308,-4.2308,-4.2308,-4.2308,-4.2308,-4.2308,-4.2308,-4.2308,-4.2308,-4.2308,-4.2308,-4.2308,-4.2308,-4.2308,-4.2308,-4.2308,-4.2308,-4.2308,-4.2308,-4.2308,-4.2308,-4.2308,-4.2308,-4.2308,-4.2308,-4.2308,-4.2308,-4.2308,-4.2308,-4.2308,-4.2308,-4.2308,-4.2308,-4.2308,-4.2308,-4.2308,-4.2308,-4.2308,-4.2308,-4.2308,-4.2308,-4.2308,-4.2308,-4.2308,-4.2308,-4.2308,-4.2308,-4.2308,-4.2308,-4.2308,-4.2308,-4.2308,-4.2308,-4.2308,-4.2308,-4.2308,-4.2308,-4.2348,-4.2389,-4.2407,-4.2447,-5.169,-5.169,-5.169,-5.169,-5.169,-5.169,-5.169,-5.164,-5.1375,-5.1114,-5.0776,-5.0512,-4.9982,-4.9381,-4.9036,-4.8793,-4.8381,-4.7764,-4.6891,-4.5798,-4.5019,-4.4291,-4.3731,-4.3615,-4.3615,-4.3615,-4.3615,-4.3615,-4.3717,-4.3906,-4.4064,-4.4162,-4.5214,-4.539,-4.5081,-4.5494,-4.5425,-4.4937,-4.439,-4.3984,-4.3788,-4.3228,-4.2486,-4.1665,-4.1088,-4.0855,-4.118,-4.1361,-4.1774,-4.2145,-4.2308,-4.2308,-4.2308,-4.2308,-4.2308,-4.2308,-4.2308,-4.2308,-4.2308,-4.2308,-4.2308,-4.2308,-4.2308,-4.2308,-4.2308,-4.2308,-4.2308,-4.2308,-4.2308,-4.2308,-4.2308,-4.2308,-4.2308,-4.2308,-4.2308,-4.2308,-4.2308,-4.2308,-4.2308,-4.2308,-4.2308,-4.2308,-4.2308,-4.2308,-4.2308,-4.2308,-4.2308,-4.2308,-4.2308,-4.2308,-4.2308,-4.2308,-4.2308,-4.2308,-4.2308,-4.2308,-4.2308,-4.2308,-4.2308,-4.2308,-4.2308,-4.2308,-4.2308,-4.2308,-4.2308,-4.2308,-4.2308,-4.2308,-4.2308,-4.2308,-4.2328,-4.2407,-4.2427,-4.2387,-4.2447,-5.169,-5.169,-5.169,-5.169,-5.169,-5.1571,-5.1521,-5.1444,-5.0893,-5.0522,-5.0411,-4.9879,-4.9338,-4.8838,-4.8745,-4.8418,-4.7981,-4.747,-4.6792,-4.5781,-4.5268,-4.4456,-4.383,-4.3615,-4.3615,-4.3615,-4.3615,-4.3615,-4.3628,-4.3687,-4.3877,-4.3906,-4.4756,-4.4947,-4.4652,-4.4855,-4.491,-4.4361,-4.3919,-4.37,-4.3597,-4.3041,-4.2333,-4.1391,-4.1025,-4.0981,-4.1226,-4.1445,-4.1731,-4.2246,-4.2308,-4.2308,-4.2308,-4.2308,-4.2308,-4.2308,-4.2308,-4.2308,-4.2308,-4.2308,-4.2308,-4.2308,-4.2308,-4.2308,-4.2308,-4.2308,-4.2308,-4.2308,-4.2308,-4.2308,-4.2308,-4.2308,-4.2308,-4.2308,-4.2308,-4.2308,-4.2308,-4.2308,-4.2308,-4.2308,-4.2308,-4.2308,-4.2308,-4.2308,-4.2308,-4.2308,-4.2308,-4.2308,-4.2308,-4.2308,-4.2308,-4.2308,-4.2308,-4.2308,-4.2308,-4.2308,-4.2308,-4.2308,-4.2308,-4.2308,-4.2308,-4.2308,-4.2308,-4.2308,-4.2308,-4.2308,-4.2308,-4.2308,-4.2308,-4.2308,-4.2328,-4.2387,-4.2387,-4.2366,-4.243,-5.169,-5.169,-5.169,-5.169,-5.1615,-5.1167,-5.0982,-5.0812,-5.0254,-4.9676,-4.9278,-4.9114,-4.8731,-4.8307,-4.8163,-4.8082,-4.7967,-4.762,-4.6957,-4.5947,-4.545,-4.4821,-4.3764,-4.3615,-4.3615,-4.3615,-4.3615,-4.3615,-4.3747,-4.4035,-4.3977,-4.3948,-4.4756,-4.4794,-4.4202,-4.4276,-4.4429,-4.3964,-4.3687,-4.3615,-4.3549,-4.3297,-4.2597,-4.1427,-4.1073,-4.0931,-4.0982,-4.1293,-4.1753,-4.2228,-4.2287,-4.2287,-4.2308,-4.2308,-4.2308,-4.2308,-4.2308,-4.2308,-4.2308,-4.2308,-4.2308,-4.2308,-4.2308,-4.2308,-4.2308,-4.2308,-4.2308,-4.2308,-4.2308,-4.2308,-4.2308,-4.2308,-4.2308,-4.2308,-4.2308,-4.2308,-4.2308,-4.2308,-4.2308,-4.2308,-4.2308,-4.2308,-4.2308,-4.2308,-4.2308,-4.2308,-4.2308,-4.2308,-4.2308,-4.2308,-4.2308,-4.2308,-4.2308,-4.2308,-4.2308,-4.2308,-4.2308,-4.2308,-4.2308,-4.2308,-4.2308,-4.2308,-4.2308,-4.2308,-4.2308,-4.2308,-4.2308,-4.2308,-4.2308,-4.2308,-4.2325,-4.2346,-4.2384,-4.2405,-4.2405,-5.169,-5.169,-5.169,-5.1521,-5.1219,-5.0937,-5.0595,-5.0226,-4.9617,-4.9171,-4.8869,-4.8574,-4.8307,-4.8066,-4.8001,-4.8001,-4.7918,-4.7537,-4.6808,-4.5897,-4.5351,-4.4705,-4.3681,-4.3615,-4.3615,-4.3615,-4.3615,-4.3615,-4.3658,-4.4207,-4.4121,-4.3989,-4.4712,-4.4701,-4.3989,-4.4207,-4.4121,-4.3747,-4.3615,-4.3615,-4.3549,-4.33,-4.2423,-4.1659,-4.0988,-4.0643,-4.0497,-4.057,-4.1116,-4.1687,-4.1895,-4.2044,-4.2207,-4.2308,-4.2308,-4.2308,-4.2308,-4.2308,-4.2308,-4.2308,-4.2308,-4.2308,-4.2308,-4.2308,-4.2308,-4.2308,-4.2308,-4.2308,-4.2308,-4.2308,-4.2308,-4.2308,-4.2308,-4.2308,-4.2308,-4.2308,-4.2308,-4.2308,-4.2308,-4.2308,-4.2308,-4.2308,-4.2308,-4.2308,-4.2308,-4.2308,-4.2308,-4.2308,-4.2308,-4.2308,-4.2308,-4.2308,-4.2308,-4.2308,-4.2308,-4.2308,-4.2308,-4.2308,-4.2308,-4.2308,-4.2308,-4.2308,-4.2308,-4.2308,-4.2308,-4.2308,-4.2308,-4.2308,-4.2308,-4.2308,-4.2308,-4.2346,-4.2405,-4.2463,-4.2425,-5.164,-5.1521,-5.1521,-5.1149,-5.0649,-5.0439,-5.0096,-4.9558,-4.8975,-4.8731,-4.8637,-4.8243,-4.8033,-4.8001,-4.7984,-4.7934,-4.7769,-4.7123,-4.6427,-4.5549,-4.5003,-4.4324,-4.378,-4.3615,-4.3615,-4.3615,-4.3615,-4.3615,-4.3658,-4.4006,-4.3948,-4.3919,-4.4608,-4.4563,-4.3889,-4.4006,-4.3919,-4.3789,-4.3615,-4.3615,-4.3449,-4.3019,-4.2357,-4.1685,-4.1056,-4.0709,-4.0451,-4.0362,-4.0784,-4.1316,-4.16,-4.1753,-4.2187,-4.2308,-4.2308,-4.2308,-4.2308,-4.2308,-4.2308,-4.2308,-4.2308,-4.2308,-4.2308,-4.2308,-4.2308,-4.2308,-4.2308,-4.2308,-4.2308,-4.2308,-4.2308,-4.2308,-4.2308,-4.2308,-4.2308,-4.2308,-4.2308,-4.2308,-4.2308,-4.2308,-4.2308,-4.2308,-4.2308,-4.2308,-4.2308,-4.2308,-4.2308,-4.2308,-4.2308,-4.2308,-4.2308,-4.2308,-4.2308,-4.2308,-4.2308,-4.2308,-4.2308,-4.2308,-4.2308,-4.2308,-4.2308,-4.2308,-4.2308,-4.2308,-4.2308,-4.2308,-4.2308,-4.2308,-4.2308,-4.2308,-4.2308,-4.2308,-4.2366,-4.2384,-4.2366,-5.1393,-5.0884,-5.0884,-5.0522,-4.9879,-4.9428,-4.9127,-4.8944,-4.8386,-4.8115,-4.8195,-4.8049,-4.8001,-4.7984,-4.7951,-4.7603,-4.7173,-4.6725,-4.603,-4.5036,-4.4671,-4.4241,-4.3681,-4.3615,-4.3615,-4.3615,-4.3615,-4.3615,-4.3658,-4.3759,-4.373,-4.373,-4.3848,-4.373,-4.37,-4.3759,-4.3641,-4.3598,-4.3615,-4.3615,-4.3582,-4.3466,-4.3002,-4.2422,-4.1955,-4.1456,-4.0805,-4.0577,-4.0802,-4.1316,-4.1472,-4.1753,-4.2187,-4.2308,-4.2308,-4.2308,-4.2308,-4.2308,-4.2308,-4.2308,-4.2308,-4.2308,-4.2308,-4.2308,-4.2308,-4.2308,-4.2308,-4.2308,-4.2308,-4.2308,-4.2308,-4.2308,-4.2308,-4.2308,-4.2308,-4.2308,-4.2308,-4.2308,-4.2308,-4.2308,-4.2308,-4.2308,-4.2308,-4.2308,-4.2308,-4.2308,-4.2308,-4.2308,-4.2308,-4.2308,-4.2308,-4.2308,-4.2308,-4.2308,-4.2308,-4.2308,-4.2308,-4.2308,-4.2308,-4.2308,-4.2308,-4.2308,-4.2308,-4.2308,-4.2308,-4.2308,-4.2308,-4.2308,-4.2308,-4.2308,-4.2308,-4.2308,-4.2308,-4.2308,-4.2325,-5.046,-5.0254,-5.0237,-4.9867,-4.9291,-4.9006,-4.87,-4.8354,-4.8115,-4.8001,-4.8001,-4.8001,-4.8001,-4.7918,-4.7603,-4.7206,-4.6775,-4.6079,-4.5384,-4.4688,-4.4291,-4.3913,-4.3681,-4.3615,-4.3615,-4.3615,-4.3615,-4.3615,-4.3687,-4.3889,-4.3977,-4.3641,-4.386,-4.3948,-4.3658,-4.3615,-4.3615,-4.3615,-4.3615,-4.3615,-4.3615,-4.3549,-4.3251,-4.2522,-4.2077,-4.1454,-4.0843,-4.0193,-4.0402,-4.0879,-4.1105,-4.1512,-4.2065,-4.2308,-4.2308,-4.2308,-4.2308,-4.2308,-4.2308,-4.2308,-4.2308,-4.2308,-4.2308,-4.2308,-4.2308,-4.2308,-4.2308,-4.2308,-4.2308,-4.2308,-4.2308,-4.2308,-4.2308,-4.2308,-4.2308,-4.2308,-4.2308,-4.2308,-4.2308,-4.2308,-4.2308,-4.2308,-4.2308,-4.2308,-4.2308,-4.2308,-4.2308,-4.2308,-4.2308,-4.2308,-4.2308,-4.2308,-4.2308,-4.2308,-4.2308,-4.2308,-4.2308,-4.2308,-4.2308,-4.2308,-4.2308,-4.2308,-4.2308,-4.2308,-4.2308,-4.2308,-4.2308,-4.2308,-4.2308,-4.2308,-4.2308,-4.2308,-4.2308,-4.2308,-4.2308,-4.9351,-4.9351,-4.9512,-4.9231,-4.87,-4.8668,-4.8418,-4.8033,-4.8001,-4.8001,-4.7951,-4.7819,-4.7703,-4.7554,-4.6974,-4.646,-4.6228,-4.5168,-4.4638,-4.4274,-4.3943,-4.3664,-4.3615,-4.3615,-4.3615,-4.3615,-4.3615,-4.3615,-4.373,-4.3919,-4.3935,-4.3628,-4.3889,-4.3948,-4.3717,-4.3615,-4.3615,-4.3615,-4.3615,-4.3615,-4.3615,-4.3615,-4.33,-4.2738,-4.2088,-4.1342,-4.0647,-4.0022,-4.0161,-4.0611,-4.0849,-4.1311,-4.2103,-4.2308,-4.2308,-4.2308,-4.2308,-4.2308,-4.2308,-4.2308,-4.2308,-4.2308,-4.2308,-4.2308,-4.2308,-4.2308,-4.2308,-4.2308,-4.2308,-4.2308,-4.2308,-4.2308,-4.2308,-4.2308,-4.2308,-4.2308,-4.2308,-4.2308,-4.2308,-4.2308,-4.2308,-4.2308,-4.2308,-4.2308,-4.2308,-4.2308,-4.2308,-4.2308,-4.2308,-4.2308,-4.2308,-4.2308,-4.2308,-4.2308,-4.2308,-4.2308,-4.2308,-4.2308,-4.2308,-4.2308,-4.2308,-4.2308,-4.2308,-4.2308,-4.2308,-4.2308,-4.2308,-4.2308,-4.2308,-4.2308,-4.2308,-4.2308,-4.2308,-4.2308,-4.2308,-4.8115,-4.8163,-4.8731,-4.8637,-4.8099,-4.8066,-4.8066,-4.8001,-4.7984,-4.7901,-4.7703,-4.7322,-4.6974,-4.6775,-4.6212,-4.5533,-4.4951,-4.4754,-4.4307,-4.391,-4.3615,-4.3615,-4.3615,-4.3615,-4.3615,-4.3615,-4.3615,-4.3615,-4.3615,-4.3687,-4.3717,-4.3658,-4.3759,-4.3671,-4.3628,-4.3615,-4.3615,-4.3615,-4.3615,-4.3615,-4.3615,-4.3615,-4.3532,-4.335,-4.2771,-4.2075,-4.1331,-4.0597,-4.0469,-4.0879,-4.0836,-4.1265,-4.2082,-4.2287,-4.2308,-4.2308,-4.2308,-4.2308,-4.2308,-4.2308,-4.2308,-4.2308,-4.2308,-4.2308,-4.2308,-4.2308,-4.2308,-4.2308,-4.2308,-4.2308,-4.2308,-4.2308,-4.2308,-4.2308,-4.2308,-4.2308,-4.2308,-4.2308,-4.2308,-4.2308,-4.2308,-4.2308,-4.2308,-4.2308,-4.2308,-4.2308,-4.2308,-4.2308,-4.2308,-4.2308,-4.2308,-4.2308,-4.2308,-4.2308,-4.2308,-4.2308,-4.2308,-4.2308,-4.2308,-4.2308,-4.2308,-4.2308,-4.2308,-4.2308,-4.2308,-4.2308,-4.2308,-4.2308,-4.2308,-4.2308,-4.2308,-4.2308,-4.2308,-4.2308,-4.2308,-4.8001,-4.8033,-4.826,-4.8211,-4.8001,-4.8001,-4.8001,-4.7918,-4.752,-4.704,-4.6659,-4.6344,-4.6212,-4.6013,-4.5483,-4.4986,-4.4622,-4.4175,-4.3893,-4.3714,-4.3615,-4.3615,-4.3615,-4.3615,-4.3615,-4.3615,-4.3615,-4.3615,-4.3615,-4.3615,-4.3615,-4.3615,-4.3615,-4.3598,-4.3615,-4.3615,-4.3615,-4.3615,-4.3615,-4.3615,-4.3615,-4.3615,-4.3615,-4.3549,-4.287,-4.2423,-4.1955,-4.0945,-4.097,-4.115,-4.1023,-4.1571,-4.2242,-4.2388,-4.245,-4.2433,-4.2433,-4.2379,-4.2361,-4.2343,-4.2308,-4.2308,-4.2308,-4.2308,-4.2308,-4.2308,-4.2308,-4.2308,-4.2308,-4.2308,-4.2308,-4.2308,-4.2308,-4.2308,-4.2308,-4.2308,-4.2308,-4.2308,-4.2308,-4.2308,-4.2308,-4.2308,-4.2308,-4.2308,-4.2308,-4.2308,-4.2308,-4.2308,-4.2308,-4.2308,-4.2308,-4.2308,-4.2308,-4.2308,-4.2308,-4.2308,-4.2308,-4.2308,-4.2308,-4.2308,-4.2308,-4.2308,-4.2308,-4.2308,-4.2308,-4.2308,-4.2308,-4.2308,-4.2308,-4.2308,-4.2308,-4.2308,-4.2308,-4.2308,-4.2308,-4.7338,-4.7338,-4.7338,-4.762,-4.7951,-4.7769,-4.7686,-4.7554,-4.6874,-4.6311,-4.5781,-4.5616,-4.5467,-4.5268,-4.4721,-4.4373,-4.4191,-4.3893,-4.3681,-4.3615,-4.3615,-4.3615,-4.3615,-4.3615,-4.3615,-4.3615,-4.3615,-4.3615,-4.3615,-4.3615,-4.3615,-4.3615,-4.3615,-4.3615,-4.3615,-4.3615,-4.3615,-4.3615,-4.3615,-4.3615,-4.3615,-4.3615,-4.3615,-4.3582,-4.3118,-4.2704,-4.234,-4.1636,-4.1469,-4.1716,-4.1815,-4.1986,-4.2494,-4.286,-4.2983,-4.2912,-4.2769,-4.2662,-4.2608,-4.2415,-4.2343,-4.2308,-4.2308,-4.2308,-4.2308,-4.2308,-4.2308,-4.2308,-4.2308,-4.2308,-4.2308,-4.2308,-4.2308,-4.2308,-4.2308,-4.2308,-4.2308,-4.2308,-4.2308,-4.2308,-4.2308,-4.2308,-4.2308,-4.2308,-4.2308,-4.2308,-4.2308,-4.2308,-4.2308,-4.2308,-4.2308,-4.2308,-4.2308,-4.2308,-4.2308,-4.2308,-4.2308,-4.2308,-4.2308,-4.2308,-4.2308,-4.2308,-4.2308,-4.2308,-4.2308,-4.2308,-4.2308,-4.2308,-4.2308,-4.2308,-4.2308,-4.2308,-4.2308,-4.2308,-4.2308,-4.5914,-4.5831,-4.5914,-4.6709,-4.7719,-4.7206,-4.6924,-4.6825,-4.6146,-4.5732,-4.5483,-4.4986,-4.4705,-4.4572,-4.4042,-4.383,-4.378,-4.3664,-4.3615,-4.3615,-4.3615,-4.3615,-4.3615,-4.3615,-4.3615,-4.3615,-4.3615,-4.3615,-4.3615,-4.3615,-4.3615,-4.3615,-4.3615,-4.3615,-4.3615,-4.3615,-4.3615,-4.3615,-4.3615,-4.3615,-4.3615,-4.3615,-4.3615,-4.3565,-4.3482,-4.3118,-4.2704,-4.2336,-4.2211,-4.2404,-4.2568,-4.2895,-4.355,-4.4023,-4.421,-4.4228,-4.3675,-4.3429,-4.3358,-4.2697,-4.2379,-4.2308,-4.2308,-4.2308,-4.2308,-4.2308,-4.2308,-4.2308,-4.2308,-4.2308,-4.2308,-4.2308,-4.2308,-4.2308,-4.2308,-4.2308,-4.2308,-4.2308,-4.2308,-4.2308,-4.2308,-4.2308,-4.2308,-4.2308,-4.2308,-4.2308,-4.2308,-4.2308,-4.2308,-4.2308,-4.2308,-4.2308,-4.2308,-4.2308,-4.2308,-4.2308,-4.2308,-4.2308,-4.2308,-4.2308,-4.2308,-4.2308,-4.2308,-4.2308,-4.2308,-4.2308,-4.2308,-4.2308,-4.2308,-4.2308,-4.2308,-4.2308,-4.2308,-4.2308,-4.2308,-4.5798,-4.5798,-4.5798,-4.6079,-4.6493,-4.6278,-4.6162,-4.603,-4.54,-4.4804,-4.439,-4.4042,-4.3976,-4.3876,-4.3797,-4.3615,-4.3615,-4.3615,-4.3615,-4.3615,-4.3615,-4.3615,-4.3615,-4.3615,-4.3615,-4.3615,-4.3615,-4.3615,-4.3615,-4.3615,-4.3615,-4.3615,-4.3615,-4.3615,-4.3615,-4.3615,-4.3615,-4.3615,-4.3615,-4.3615,-4.3615,-4.3615,-4.3615,-4.3615,-4.3615,-4.3449,-4.3135,-4.282,-4.2802,-4.3144,-4.3331,-4.352,-4.4172,-4.4658,-4.4692,-4.4514,-4.3943,-4.3251,-4.2894,-4.2379,-4.2325,-4.2308,-4.2308,-4.2308,-4.2308,-4.2308,-4.2308,-4.2308,-4.2308,-4.2308,-4.2308,-4.2308,-4.2308,-4.2308,-4.2308,-4.2308,-4.2308,-4.2308,-4.2308,-4.2308,-4.2308,-4.2308,-4.2308,-4.2308,-4.2308,-4.2308,-4.2308,-4.2308,-4.2308,-4.2308,-4.2308,-4.2308,-4.2308,-4.2308,-4.2308,-4.2308,-4.2308,-4.2308,-4.2308,-4.2308,-4.2308,-4.2308,-4.2308,-4.2308,-4.2308,-4.2308,-4.2308,-4.2308,-4.2308,-4.2308,-4.2308,-4.2308,-4.2308,-4.2308,-4.2308,-4.5036,-4.5052,-4.5052,-4.5036,-4.5086,-4.5284,-4.5284,-4.4986,-4.4522,-4.4042,-4.3681,-4.3631,-4.3631,-4.3631,-4.3615,-4.3615,-4.3615,-4.3615,-4.3615,-4.3615,-4.3615,-4.3615,-4.3615,-4.3615,-4.3615,-4.3615,-4.3615,-4.3615,-4.3615,-4.3615,-4.3615,-4.3615,-4.3615,-4.3615,-4.3615,-4.3615,-4.3615,-4.3615,-4.3615,-4.3615,-4.3615,-4.3615,-4.3615,-4.3615,-4.3615,-4.3582,-4.3466,-4.3331,-4.3168,-4.3674,-4.3958,-4.4044,-4.4683,-4.5191,-4.5321,-4.5231,-4.4407,-4.35,-4.2644,-4.2343,-4.2308,-4.2308,-4.2308,-4.2308,-4.2308,-4.2308,-4.2308,-4.2308,-4.2308,-4.2308,-4.2308,-4.2308,-4.2308,-4.2308,-4.2308,-4.2308,-4.2308,-4.2308,-4.2308,-4.2308,-4.2308,-4.2308,-4.2308,-4.2308,-4.2308,-4.2308,-4.2308,-4.2308,-4.2308,-4.2308,-4.2308,-4.2308,-4.2308,-4.2308,-4.2308,-4.2308,-4.2308,-4.2308,-4.2308,-4.2308,-4.2308,-4.2308,-4.2308,-4.2308,-4.2308,-4.2308,-4.2308,-4.2308,-4.2308,-4.2308,-4.2308,-4.2308,-4.2308,-4.2308,-4.2308,-4.3631,-4.3615,-4.3615,-4.3681,-4.3764,-4.4406,-4.4291,-4.3664,-4.3648,-4.3631,-4.3615,-4.3615,-4.3615,-4.3615,-4.3615,-4.3615,-4.3615,-4.3615,-4.3615,-4.3615,-4.3615,-4.3615,-4.3615,-4.3615,-4.3615,-4.3615,-4.3615,-4.3615,-4.3615,-4.3615,-4.3615,-4.3615,-4.3615,-4.3615,-4.3615,-4.3615,-4.3615,-4.3615,-4.3615,-4.3615,-4.3615,-4.3615,-4.3615,-4.3615,-4.3615,-4.3615,-4.3565,-4.3525,-4.3568,-4.4011,-4.4538,-4.4997,-4.5621,-4.6376,-4.6742,-4.6409,-4.516,-4.3875,-4.2608,-4.2325,-4.2308,-4.2308,-4.2308,-4.2308,-4.2308,-4.2308,-4.2308,-4.2308,-4.2308,-4.2308,-4.2308,-4.2308,-4.2308,-4.2308,-4.2308,-4.2308,-4.2308,-4.2308,-4.2308,-4.2308,-4.2308,-4.2308,-4.2308,-4.2308,-4.2308,-4.2308,-4.2308,-4.2308,-4.2308,-4.2308,-4.2308,-4.2308,-4.2308,-4.2308,-4.2308,-4.2308,-4.2308,-4.2308,-4.2308,-4.2308,-4.2308,-4.2308,-4.2308,-4.2308,-4.2308,-4.2308,-4.2308,-4.2308,-4.2308,-4.2308,-4.2308,-4.2308,-4.2308,-4.2308,-4.2308,-4.3615,-4.3615,-4.3615,-4.3615,-4.3631,-4.383,-4.3764,-4.3615,-4.3615,-4.3615,-4.3615,-4.3615,-4.3615,-4.3615,-4.3615,-4.3615,-4.3615,-4.3615,-4.3615,-4.3615,-4.3615,-4.3615,-4.3615,-4.3615,-4.3615,-4.3615,-4.3615,-4.3615,-4.3615,-4.3615,-4.3615,-4.3615,-4.3615,-4.3615,-4.3615,-4.3615,-4.3615,-4.3615,-4.3615,-4.3615,-4.3615,-4.3615,-4.3615,-4.3615,-4.3615,-4.3615,-4.3615,-4.3615,-4.3747,-4.4276,-4.4513,-4.4964,-4.6003,-4.6213,-4.6253,-4.533,-4.4603,-4.3943,-4.2644,-4.2308,-4.2308,-4.2308,-4.2308,-4.2308,-4.2308,-4.2308,-4.2308,-4.2308,-4.2308,-4.2308,-4.2308,-4.2308,-4.2308,-4.2308,-4.2308,-4.2308,-4.2308,-4.2308,-4.2308,-4.2308,-4.2308,-4.2308,-4.2308,-4.2308,-4.2308,-4.2308,-4.2308,-4.2308,-4.2308,-4.2308,-4.2308,-4.2308,-4.2308,-4.2308,-4.2308,-4.2308,-4.2308,-4.2308,-4.2308,-4.2308,-4.2308,-4.2308,-4.2308,-4.2308,-4.2308,-4.2308,-4.2308,-4.2308,-4.2308,-4.2308,-4.2308,-4.2308,-4.2308,-4.2308,-4.2308,-4.3615,-4.3615,-4.3615,-4.3615,-4.3615,-4.3615,-4.3615,-4.3615,-4.3615,-4.3615,-4.3615,-4.3615,-4.3615,-4.3615,-4.3615,-4.3615,-4.3615,-4.3615,-4.3615,-4.3615,-4.3615,-4.3615,-4.3615,-4.3615,-4.3615,-4.3615,-4.3615,-4.3615,-4.3615,-4.3615,-4.3615,-4.3615,-4.3615,-4.3615,-4.3615,-4.3615,-4.3615,-4.3615,-4.3615,-4.3615,-4.3615,-4.3615,-4.3615,-4.3615,-4.3615,-4.3615,-4.3615,-4.3615,-4.3818,-4.4179,-4.4248,-4.4882,-4.5748,-4.5894,-4.5646,-4.4835,-4.4246,-4.3536,-4.2537,-4.2308,-4.2308,-4.2308,-4.2308,-4.2308,-4.2308,-4.2308,-4.2308,-4.2308,-4.2308,-4.2308,-4.2308,-4.2308,-4.2308,-4.2308,-4.2308,-4.2308,-4.2308,-4.2308,-4.2308,-4.2308,-4.2308,-4.2308,-4.2308,-4.2308,-4.2308,-4.2308,-4.2308,-4.2308,-4.2308,-4.2308,-4.2308,-4.2308,-4.2308,-4.2308,-4.2308,-4.2308,-4.2308,-4.2308,-4.2308,-4.2308,-4.2308,-4.2308,-4.2308,-4.2308,-4.2308,-4.2308,-4.2308,-4.2308,-4.2308,-4.2308,-4.2308,-4.2308,-4.2308,-4.2308,-4.2308,-4.3615,-4.3615,-4.3615,-4.3615,-4.3615,-4.3615,-4.3615,-4.3615,-4.3615,-4.3615,-4.3615,-4.3615,-4.3615,-4.3615,-4.3615,-4.3615,-4.3615,-4.3615,-4.3615,-4.3615,-4.3615,-4.3615,-4.3615,-4.3615,-4.3615,-4.3615,-4.3615,-4.3615,-4.3615,-4.3615,-4.3615,-4.3615,-4.3615,-4.3615,-4.3615,-4.3615,-4.3615,-4.3615,-4.3615,-4.3615,-4.3615,-4.3615,-4.3615,-4.3615,-4.3615,-4.3615,-4.3615,-4.3615,-4.3615,-4.3835,-4.4093,-4.4635,-4.5243,-4.5634,-4.5285,-4.467,-4.4032,-4.3233,-4.259,-4.2308,-4.2308,-4.2308,-4.2308,-4.2308,-4.2308,-4.2308,-4.2308,-4.2308,-4.2308,-4.2308,-4.2308,-4.2308,-4.2308,-4.2308,-4.2308,-4.2308,-4.2308,-4.2308,-4.2308,-4.2308,-4.2308,-4.2308,-4.2308,-4.2308,-4.2308,-4.2308,-4.2308,-4.2308,-4.2308,-4.2308,-4.2308,-4.2308,-4.2308,-4.2308,-4.2308,-4.2308,-4.2308,-4.2308,-4.2308,-4.2308,-4.2308,-4.2308,-4.2308,-4.2308,-4.2308,-4.2308,-4.2308,-4.2308,-4.2308,-4.2308,-4.2308,-4.2308,-4.2308,-4.2308,-4.2308,-4.3615,-4.3615,-4.3615,-4.3615,-4.3615,-4.3615,-4.3615,-4.3615,-4.3615,-4.3615,-4.3615,-4.3615,-4.3615,-4.3615,-4.3615,-4.3615,-4.3615,-4.3615,-4.3615,-4.3615,-4.3615,-4.3615,-4.3615,-4.3615,-4.3615,-4.3615,-4.3615,-4.3615,-4.3615,-4.3615,-4.3615,-4.3615,-4.3615,-4.3615,-4.3615,-4.3615,-4.3615,-4.3615,-4.3615,-4.3615,-4.3615,-4.3615,-4.3615,-4.3615,-4.3615,-4.3615,-4.3615,-4.3615,-4.3615,-4.3687,-4.3717,-4.4344,-4.5216,-4.557,-4.5339,-4.4638,-4.3854,-4.3054,-4.2555,-4.2308,-4.2308,-4.2308,-4.2308,-4.2308,-4.2308,-4.2308,-4.2308,-4.2308,-4.2308,-4.2308,-4.2308,-4.2308,-4.2308,-4.2308,-4.2308,-4.2308,-4.2308,-4.2308,-4.2308,-4.2308,-4.2308,-4.2308,-4.2308,-4.2308,-4.2308,-4.2308,-4.2308,-4.2308,-4.2308,-4.2308,-4.2308,-4.2308,-4.2308,-4.2308,-4.2308,-4.2308,-4.2308,-4.2308,-4.2308,-4.2308,-4.2308,-4.2308,-4.2308,-4.2308,-4.2308,-4.2308,-4.2308,-4.2308,-4.2308,-4.2308,-4.2308,-4.2308,-4.2308,-4.2308,-4.2308,-4.3615,-4.3615,-4.3615,-4.3615,-4.3615,-4.3615,-4.3615,-4.3615,-4.3615,-4.3615,-4.3615,-4.3615,-4.3615,-4.3615,-4.3615,-4.3615,-4.3615,-4.3615,-4.3615,-4.3615,-4.3615,-4.3615,-4.3615,-4.3615,-4.3615,-4.3615,-4.3615,-4.3615,-4.3615,-4.3615,-4.3615,-4.3615,-4.3615,-4.3615,-4.3615,-4.3615,-4.3615,-4.3615,-4.3615,-4.3615,-4.3615,-4.3615,-4.3615,-4.3615,-4.3615,-4.3615,-4.3615,-4.3615,-4.3615,-4.3848,-4.4133,-4.4563,-4.5139,-4.5235,-4.5036,-4.4428,-4.3643,-4.2787,-4.243,-4.2308,-4.2308,-4.2308,-4.2308,-4.2308,-4.2308,-4.2308,-4.2308,-4.2308,-4.2308,-4.2308,-4.2308,-4.2308,-4.2308,-4.2308,-4.2308,-4.2308,-4.2308,-4.2308,-4.2308,-4.2308,-4.2308,-4.2308,-4.2308,-4.2308,-4.2308,-4.2308,-4.2308,-4.2308,-4.2308,-4.2308,-4.2308,-4.2308,-4.2308,-4.2308,-4.2308,-4.2308,-4.2308,-4.2308,-4.2308,-4.2308,-4.2308,-4.2308,-4.2308,-4.2308,-4.2308,-4.2308,-4.2308,-4.2308,-4.2308,-4.2308,-4.2308,-4.2308,-4.2308,-4.2308,-4.2308,-4.3615,-4.3615,-4.3615,-4.3615,-4.3615,-4.3615,-4.3615,-4.3615,-4.3615,-4.3615,-4.3615,-4.3615,-4.3615,-4.3615,-4.3615,-4.3615,-4.3615,-4.3615,-4.3615,-4.3615,-4.3615,-4.3615,-4.3615,-4.3615,-4.3615,-4.3615,-4.3615,-4.3615,-4.3615,-4.3615,-4.3615,-4.3615,-4.3615,-4.3615,-4.3615,-4.3615,-4.3615,-4.3615,-4.3615,-4.3615,-4.3615,-4.3615,-4.3615,-4.3615,-4.3615,-4.3615,-4.3615,-4.3615,-4.3615,-4.3919,-4.4412,-4.492,-4.4941,-4.4858,-4.4715,-4.4221,-4.3233,-4.259,-4.2308,-4.2308,-4.2308,-4.2308,-4.2308,-4.2308,-4.2308,-4.2308,-4.2308,-4.2267,-4.2267,-4.2287,-4.2287,-4.2308,-4.2308,-4.2308,-4.2308,-4.2308,-4.2308,-4.2308,-4.2308,-4.2308,-4.2308,-4.2308,-4.2308,-4.2308,-4.2308,-4.2308,-4.2308,-4.2308,-4.2308,-4.2308,-4.2308,-4.2308,-4.2308,-4.2308,-4.2308,-4.2308,-4.2308,-4.2308,-4.2308,-4.2308,-4.2308,-4.2308,-4.2308,-4.2308,-4.2308,-4.2308,-4.2308,-4.2308,-4.2308,-4.2308,-4.2308,-4.2308,-4.2308,-4.2308,-4.2308,-4.3615,-4.3615,-4.3615,-4.3615,-4.3615,-4.3615,-4.3615,-4.3615,-4.3615,-4.3615,-4.3615,-4.3615,-4.3615,-4.3615,-4.3615,-4.3615,-4.3615,-4.3615,-4.3615,-4.3615,-4.3615,-4.3615,-4.3615,-4.3615,-4.3615,-4.3615,-4.3615,-4.3615,-4.3615,-4.3615,-4.3615,-4.3615,-4.3615,-4.3615,-4.3615,-4.3615,-4.3615,-4.3615,-4.3615,-4.3615,-4.3615,-4.3615,-4.3615,-4.3615,-4.3615,-4.3615,-4.3615,-4.3615,-4.3615,-4.3818,-4.4276,-4.4811,-4.4829,-4.4523,-4.4317,-4.408,-4.3059,-4.2483,-4.2308,-4.2308,-4.2308,-4.2308,-4.2308,-4.2308,-4.2308,-4.2308,-4.2246,-4.2103,-4.2124,-4.2225,-4.2246,-4.2287,-4.2308,-4.2308,-4.2308,-4.2308,-4.2308,-4.2308,-4.2308,-4.2308,-4.2308,-4.2308,-4.2308,-4.2308,-4.2308,-4.2308,-4.2308,-4.2308,-4.2308,-4.2308,-4.2308,-4.2308,-4.2308,-4.2308,-4.2308,-4.2308,-4.2308,-4.2308,-4.2308,-4.2308,-4.2308,-4.2308,-4.2308,-4.2308,-4.2308,-4.2308,-4.2308,-4.2308,-4.2308,-4.2308,-4.2308,-4.2308,-4.2308,-4.2308,-4.2308]}]]